<?xml version="1.0" encoding="UTF-8" standalone="no" ?>
<gpx xmlns="http://www.topografix.com/GPX/1/1" xmlns:xsi="http://www.w3.org/2001/XMLSchema-instance" xsi:schemaLocation="http://www.topografix.com/GPX/1/1 http://www.topografix.com/GPX/1/1/gpx.xsd" version="1.1" creator="VisuGPX - https://www.visugpx.com">
  <metadata>
    <name>2012 - Lot - 1er mai - Aubazine - Laborie</name>
    <desc><![CDATA[Aubazine à Laborie près de Martel 
(désolée, qq loupés)]]></desc>
  </metadata>
  <trk>
    <name><![CDATA[1 mai 2012 10:59:45]]></name>
    <cmt><![CDATA[1 mai 2012 10:59:45]]></cmt>
    <trkseg>
      <trkpt lat="45.13966" lon="1.672">
        <ele>187</ele>
        <time>2012-05-01T08:59:46Z</time>
      </trkpt>
      <trkpt lat="45.13959" lon="1.67192">
        <ele>263</ele>
        <time>2012-05-01T08:59:51Z</time>
      </trkpt>
      <trkpt lat="45.1393" lon="1.67152">
        <ele>354</ele>
        <time>2012-05-01T09:00:26Z</time>
      </trkpt>
      <trkpt lat="45.13909" lon="1.67109">
        <ele>373</ele>
        <time>2012-05-01T09:00:59Z</time>
      </trkpt>
      <trkpt lat="45.13881" lon="1.67069">
        <ele>381</ele>
        <time>2012-05-01T09:01:20Z</time>
      </trkpt>
      <trkpt lat="45.13851" lon="1.67045">
        <ele>382</ele>
        <time>2012-05-01T09:01:40Z</time>
      </trkpt>
      <trkpt lat="45.13843" lon="1.67041">
        <ele>382</ele>
        <time>2012-05-01T09:01:45Z</time>
      </trkpt>
      <trkpt lat="45.13817" lon="1.6702">
        <ele>378</ele>
        <time>2012-05-01T09:02:07Z</time>
      </trkpt>
      <trkpt lat="45.13799" lon="1.67007">
        <ele>378</ele>
        <time>2012-05-01T09:02:21Z</time>
      </trkpt>
      <trkpt lat="45.13781" lon="1.66984">
        <ele>375</ele>
        <time>2012-05-01T09:02:38Z</time>
      </trkpt>
      <trkpt lat="45.13772" lon="1.66976">
        <ele>376</ele>
        <time>2012-05-01T09:02:48Z</time>
      </trkpt>
      <trkpt lat="45.13742" lon="1.66957">
        <ele>369</ele>
        <time>2012-05-01T09:03:09Z</time>
      </trkpt>
      <trkpt lat="45.13736" lon="1.66957">
        <ele>369</ele>
        <time>2012-05-01T09:03:12Z</time>
      </trkpt>
      <trkpt lat="45.13722" lon="1.66949">
        <ele>371</ele>
        <time>2012-05-01T09:03:23Z</time>
      </trkpt>
      <trkpt lat="45.13695" lon="1.66929">
        <ele>367</ele>
        <time>2012-05-01T09:03:42Z</time>
      </trkpt>
      <trkpt lat="45.13691" lon="1.66926">
        <ele>367</ele>
        <time>2012-05-01T09:03:45Z</time>
      </trkpt>
      <trkpt lat="45.13681" lon="1.6692">
        <ele>365</ele>
        <time>2012-05-01T09:03:54Z</time>
      </trkpt>
      <trkpt lat="45.13675" lon="1.66915">
        <ele>365</ele>
        <time>2012-05-01T09:03:58Z</time>
      </trkpt>
      <trkpt lat="45.1366" lon="1.66904">
        <ele>368</ele>
        <time>2012-05-01T09:04:09Z</time>
      </trkpt>
      <trkpt lat="45.13646" lon="1.669">
        <ele>368</ele>
        <time>2012-05-01T09:04:20Z</time>
      </trkpt>
      <trkpt lat="45.13633" lon="1.66905">
        <ele>368</ele>
        <time>2012-05-01T09:04:28Z</time>
      </trkpt>
      <trkpt lat="45.13623" lon="1.66908">
        <ele>367</ele>
        <time>2012-05-01T09:04:34Z</time>
      </trkpt>
      <trkpt lat="45.136" lon="1.66907">
        <ele>371</ele>
        <time>2012-05-01T09:04:45Z</time>
      </trkpt>
      <trkpt lat="45.13589" lon="1.66889">
        <ele>373</ele>
        <time>2012-05-01T09:04:56Z</time>
      </trkpt>
      <trkpt lat="45.13583" lon="1.66878">
        <ele>373</ele>
        <time>2012-05-01T09:05:03Z</time>
      </trkpt>
      <trkpt lat="45.13579" lon="1.66874">
        <ele>374</ele>
        <time>2012-05-01T09:05:07Z</time>
      </trkpt>
      <trkpt lat="45.13575" lon="1.66863">
        <ele>374</ele>
        <time>2012-05-01T09:05:40Z</time>
      </trkpt>
      <trkpt lat="45.13558" lon="1.66848">
        <ele>369</ele>
        <time>2012-05-01T09:05:52Z</time>
      </trkpt>
      <trkpt lat="45.13547" lon="1.66841">
        <ele>369</ele>
        <time>2012-05-01T09:06:14Z</time>
      </trkpt>
      <trkpt lat="45.1353" lon="1.66819">
        <ele>365</ele>
        <time>2012-05-01T09:06:34Z</time>
      </trkpt>
      <trkpt lat="45.13521" lon="1.66812">
        <ele>365</ele>
        <time>2012-05-01T09:06:42Z</time>
      </trkpt>
      <trkpt lat="45.13513" lon="1.66804">
        <ele>364</ele>
        <time>2012-05-01T09:06:49Z</time>
      </trkpt>
      <trkpt lat="45.13504" lon="1.66793">
        <ele>364</ele>
        <time>2012-05-01T09:06:56Z</time>
      </trkpt>
      <trkpt lat="45.13482" lon="1.66769">
        <ele>360</ele>
        <time>2012-05-01T09:07:15Z</time>
      </trkpt>
      <trkpt lat="45.13459" lon="1.66744">
        <ele>352</ele>
        <time>2012-05-01T09:07:35Z</time>
      </trkpt>
      <trkpt lat="45.1344" lon="1.66731">
        <ele>351</ele>
        <time>2012-05-01T09:07:48Z</time>
      </trkpt>
      <trkpt lat="45.13435" lon="1.6672">
        <ele>352</ele>
        <time>2012-05-01T09:08:00Z</time>
      </trkpt>
      <trkpt lat="45.13436" lon="1.66706">
        <ele>349</ele>
        <time>2012-05-01T09:08:06Z</time>
      </trkpt>
      <trkpt lat="45.13443" lon="1.66695">
        <ele>347</ele>
        <time>2012-05-01T09:08:14Z</time>
      </trkpt>
      <trkpt lat="45.13449" lon="1.66693">
        <ele>347</ele>
        <time>2012-05-01T09:08:29Z</time>
      </trkpt>
      <trkpt lat="45.13458" lon="1.66689">
        <ele>342</ele>
        <time>2012-05-01T09:08:51Z</time>
      </trkpt>
      <trkpt lat="45.13468" lon="1.66667">
        <ele>340</ele>
        <time>2012-05-01T09:09:03Z</time>
      </trkpt>
      <trkpt lat="45.13469" lon="1.66653">
        <ele>340</ele>
        <time>2012-05-01T09:09:11Z</time>
      </trkpt>
      <trkpt lat="45.13466" lon="1.66641">
        <ele>340</ele>
        <time>2012-05-01T09:09:18Z</time>
      </trkpt>
      <trkpt lat="45.13454" lon="1.66627">
        <ele>337</ele>
        <time>2012-05-01T09:09:32Z</time>
      </trkpt>
      <trkpt lat="45.13439" lon="1.66617">
        <ele>336</ele>
        <time>2012-05-01T09:09:44Z</time>
      </trkpt>
      <trkpt lat="45.13434" lon="1.66614">
        <ele>334</ele>
        <time>2012-05-01T09:09:48Z</time>
      </trkpt>
      <trkpt lat="45.13428" lon="1.66603">
        <ele>331</ele>
        <time>2012-05-01T09:09:57Z</time>
      </trkpt>
      <trkpt lat="45.13427" lon="1.66589">
        <ele>331</ele>
        <time>2012-05-01T09:10:03Z</time>
      </trkpt>
      <trkpt lat="45.13428" lon="1.66581">
        <ele>332</ele>
        <time>2012-05-01T09:10:07Z</time>
      </trkpt>
      <trkpt lat="45.13434" lon="1.66575">
        <ele>333</ele>
        <time>2012-05-01T09:10:18Z</time>
      </trkpt>
      <trkpt lat="45.13443" lon="1.66572">
        <ele>332</ele>
        <time>2012-05-01T09:10:26Z</time>
      </trkpt>
      <trkpt lat="45.13454" lon="1.66568">
        <ele>329</ele>
        <time>2012-05-01T09:10:35Z</time>
      </trkpt>
      <trkpt lat="45.13463" lon="1.66565">
        <ele>328</ele>
        <time>2012-05-01T09:10:40Z</time>
      </trkpt>
      <trkpt lat="45.1347" lon="1.66557">
        <ele>328</ele>
        <time>2012-05-01T09:10:49Z</time>
      </trkpt>
      <trkpt lat="45.13465" lon="1.66545">
        <ele>328</ele>
        <time>2012-05-01T09:10:56Z</time>
      </trkpt>
      <trkpt lat="45.1343" lon="1.66527">
        <ele>320</ele>
        <time>2012-05-01T09:11:22Z</time>
      </trkpt>
      <trkpt lat="45.13425" lon="1.66525">
        <ele>319</ele>
        <time>2012-05-01T09:11:25Z</time>
      </trkpt>
      <trkpt lat="45.13406" lon="1.6652">
        <ele>317</ele>
        <time>2012-05-01T09:11:40Z</time>
      </trkpt>
      <trkpt lat="45.13392" lon="1.66516">
        <ele>317</ele>
        <time>2012-05-01T09:11:51Z</time>
      </trkpt>
      <trkpt lat="45.13382" lon="1.66515">
        <ele>318</ele>
        <time>2012-05-01T09:11:58Z</time>
      </trkpt>
      <trkpt lat="45.1338" lon="1.66522">
        <ele>318</ele>
        <time>2012-05-01T09:12:15Z</time>
      </trkpt>
      <trkpt lat="45.1337" lon="1.66517">
        <ele>316</ele>
        <time>2012-05-01T09:12:25Z</time>
      </trkpt>
      <trkpt lat="45.1336" lon="1.66514">
        <ele>317</ele>
        <time>2012-05-01T09:12:41Z</time>
      </trkpt>
      <trkpt lat="45.13349" lon="1.66512">
        <ele>315</ele>
        <time>2012-05-01T09:12:50Z</time>
      </trkpt>
      <trkpt lat="45.13343" lon="1.6651">
        <ele>315</ele>
        <time>2012-05-01T09:12:54Z</time>
      </trkpt>
      <trkpt lat="45.13303" lon="1.66509">
        <ele>308</ele>
        <time>2012-05-01T09:13:24Z</time>
      </trkpt>
      <trkpt lat="45.13293" lon="1.6651">
        <ele>305</ele>
        <time>2012-05-01T09:13:32Z</time>
      </trkpt>
      <trkpt lat="45.13289" lon="1.66506">
        <ele>304</ele>
        <time>2012-05-01T09:13:37Z</time>
      </trkpt>
      <trkpt lat="45.13288" lon="1.66498">
        <ele>303</ele>
        <time>2012-05-01T09:13:42Z</time>
      </trkpt>
      <trkpt lat="45.133" lon="1.66468">
        <ele>300</ele>
        <time>2012-05-01T09:13:58Z</time>
      </trkpt>
      <trkpt lat="45.13303" lon="1.66461">
        <ele>300</ele>
        <time>2012-05-01T09:14:02Z</time>
      </trkpt>
      <trkpt lat="45.13308" lon="1.66452">
        <ele>300</ele>
        <time>2012-05-01T09:14:07Z</time>
      </trkpt>
      <trkpt lat="45.13325" lon="1.66424">
        <ele>298</ele>
        <time>2012-05-01T09:14:25Z</time>
      </trkpt>
      <trkpt lat="45.13333" lon="1.66415">
        <ele>300</ele>
        <time>2012-05-01T09:14:34Z</time>
      </trkpt>
      <trkpt lat="45.13354" lon="1.66386">
        <ele>286</ele>
        <time>2012-05-01T09:15:02Z</time>
      </trkpt>
      <trkpt lat="45.13361" lon="1.66375">
        <ele>288</ele>
        <time>2012-05-01T09:15:10Z</time>
      </trkpt>
      <trkpt lat="45.13367" lon="1.66363">
        <ele>289</ele>
        <time>2012-05-01T09:15:16Z</time>
      </trkpt>
      <trkpt lat="45.13374" lon="1.66353">
        <ele>289</ele>
        <time>2012-05-01T09:15:22Z</time>
      </trkpt>
      <trkpt lat="45.13388" lon="1.66336">
        <ele>288</ele>
        <time>2012-05-01T09:15:34Z</time>
      </trkpt>
      <trkpt lat="45.13397" lon="1.6633">
        <ele>288</ele>
        <time>2012-05-01T09:15:41Z</time>
      </trkpt>
      <trkpt lat="45.13407" lon="1.66328">
        <ele>289</ele>
        <time>2012-05-01T09:16:01Z</time>
      </trkpt>
      <trkpt lat="45.13417" lon="1.66333">
        <ele>287</ele>
        <time>2012-05-01T09:16:13Z</time>
      </trkpt>
      <trkpt lat="45.13427" lon="1.66338">
        <ele>287</ele>
        <time>2012-05-01T09:16:22Z</time>
      </trkpt>
      <trkpt lat="45.13433" lon="1.66329">
        <ele>286</ele>
        <time>2012-05-01T09:16:27Z</time>
      </trkpt>
      <trkpt lat="45.13432" lon="1.66315">
        <ele>282</ele>
        <time>2012-05-01T09:16:36Z</time>
      </trkpt>
      <trkpt lat="45.13423" lon="1.66311">
        <ele>280</ele>
        <time>2012-05-01T09:16:45Z</time>
      </trkpt>
      <trkpt lat="45.13415" lon="1.66303">
        <ele>275</ele>
        <time>2012-05-01T09:16:54Z</time>
      </trkpt>
      <trkpt lat="45.13408" lon="1.66294">
        <ele>274</ele>
        <time>2012-05-01T09:17:02Z</time>
      </trkpt>
      <trkpt lat="45.1338" lon="1.66254">
        <ele>265</ele>
        <time>2012-05-01T09:17:34Z</time>
      </trkpt>
      <trkpt lat="45.13374" lon="1.66242">
        <ele>263</ele>
        <time>2012-05-01T09:17:42Z</time>
      </trkpt>
      <trkpt lat="45.13351" lon="1.66218">
        <ele>259</ele>
        <time>2012-05-01T09:18:08Z</time>
      </trkpt>
      <trkpt lat="45.13341" lon="1.66216">
        <ele>255</ele>
        <time>2012-05-01T09:18:18Z</time>
      </trkpt>
      <trkpt lat="45.1333" lon="1.66209">
        <ele>255</ele>
        <time>2012-05-01T09:18:26Z</time>
      </trkpt>
      <trkpt lat="45.13302" lon="1.66207">
        <ele>245</ele>
        <time>2012-05-01T09:18:56Z</time>
      </trkpt>
      <trkpt lat="45.13292" lon="1.66208">
        <ele>241</ele>
        <time>2012-05-01T09:19:11Z</time>
      </trkpt>
      <trkpt lat="45.13281" lon="1.66206">
        <ele>240</ele>
        <time>2012-05-01T09:19:21Z</time>
      </trkpt>
      <trkpt lat="45.13271" lon="1.66204">
        <ele>241</ele>
        <time>2012-05-01T09:19:27Z</time>
      </trkpt>
      <trkpt lat="45.13262" lon="1.66206">
        <ele>242</ele>
        <time>2012-05-01T09:19:35Z</time>
      </trkpt>
      <trkpt lat="45.13252" lon="1.66205">
        <ele>243</ele>
        <time>2012-05-01T09:19:41Z</time>
      </trkpt>
      <trkpt lat="45.13243" lon="1.66202">
        <ele>240</ele>
        <time>2012-05-01T09:19:52Z</time>
      </trkpt>
      <trkpt lat="45.13202" lon="1.66208">
        <ele>233</ele>
        <time>2012-05-01T09:20:25Z</time>
      </trkpt>
      <trkpt lat="45.13192" lon="1.66209">
        <ele>231</ele>
        <time>2012-05-01T09:20:34Z</time>
      </trkpt>
      <trkpt lat="45.13182" lon="1.66204">
        <ele>232</ele>
        <time>2012-05-01T09:20:41Z</time>
      </trkpt>
      <trkpt lat="45.13135" lon="1.66193">
        <ele>217</ele>
        <time>2012-05-01T09:21:19Z</time>
      </trkpt>
      <trkpt lat="45.13125" lon="1.66194">
        <ele>214</ele>
        <time>2012-05-01T09:21:27Z</time>
      </trkpt>
      <trkpt lat="45.13115" lon="1.66198">
        <ele>213</ele>
        <time>2012-05-01T09:21:34Z</time>
      </trkpt>
      <trkpt lat="45.13069" lon="1.66216">
        <ele>219</ele>
        <time>2012-05-01T09:22:10Z</time>
      </trkpt>
      <trkpt lat="45.13041" lon="1.66224">
        <ele>222</ele>
        <time>2012-05-01T09:22:33Z</time>
      </trkpt>
      <trkpt lat="45.13001" lon="1.6622">
        <ele>215</ele>
        <time>2012-05-01T09:23:06Z</time>
      </trkpt>
      <trkpt lat="45.12996" lon="1.66219">
        <ele>214</ele>
        <time>2012-05-01T09:23:09Z</time>
      </trkpt>
      <trkpt lat="45.12966" lon="1.6622">
        <ele>214</ele>
        <time>2012-05-01T09:23:33Z</time>
      </trkpt>
      <trkpt lat="45.1295" lon="1.66222">
        <ele>211</ele>
        <time>2012-05-01T09:23:45Z</time>
      </trkpt>
      <trkpt lat="45.12941" lon="1.66219">
        <ele>212</ele>
        <time>2012-05-01T09:23:51Z</time>
      </trkpt>
      <trkpt lat="45.12932" lon="1.66221">
        <ele>211</ele>
        <time>2012-05-01T09:23:56Z</time>
      </trkpt>
      <trkpt lat="45.12917" lon="1.66229">
        <ele>205</ele>
        <time>2012-05-01T09:24:09Z</time>
      </trkpt>
      <trkpt lat="45.12909" lon="1.66238">
        <ele>204</ele>
        <time>2012-05-01T09:24:17Z</time>
      </trkpt>
      <trkpt lat="45.12895" lon="1.6626">
        <ele>207</ele>
        <time>2012-05-01T09:24:32Z</time>
      </trkpt>
      <trkpt lat="45.1289" lon="1.66248">
        <ele>206</ele>
        <time>2012-05-01T09:24:42Z</time>
      </trkpt>
      <trkpt lat="45.12894" lon="1.66234">
        <ele>204</ele>
        <time>2012-05-01T09:24:49Z</time>
      </trkpt>
      <trkpt lat="45.12912" lon="1.66186">
        <ele>196</ele>
        <time>2012-05-01T09:25:21Z</time>
      </trkpt>
      <trkpt lat="45.12913" lon="1.66158">
        <ele>192</ele>
        <time>2012-05-01T09:25:36Z</time>
      </trkpt>
      <trkpt lat="45.12904" lon="1.66139">
        <ele>189</ele>
        <time>2012-05-01T09:25:47Z</time>
      </trkpt>
      <trkpt lat="45.129" lon="1.66133">
        <ele>189</ele>
        <time>2012-05-01T09:25:51Z</time>
      </trkpt>
      <trkpt lat="45.12896" lon="1.66126">
        <ele>190</ele>
        <time>2012-05-01T09:25:55Z</time>
      </trkpt>
      <trkpt lat="45.12893" lon="1.66121">
        <ele>189</ele>
        <time>2012-05-01T09:26:00Z</time>
      </trkpt>
      <trkpt lat="45.12891" lon="1.66115">
        <ele>188</ele>
        <time>2012-05-01T09:26:08Z</time>
      </trkpt>
      <trkpt lat="45.12884" lon="1.66112">
        <ele>188</ele>
        <time>2012-05-01T09:26:20Z</time>
      </trkpt>
      <trkpt lat="45.12874" lon="1.66097">
        <ele>188</ele>
        <time>2012-05-01T09:26:38Z</time>
      </trkpt>
      <trkpt lat="45.12854" lon="1.66094">
        <ele>184</ele>
        <time>2012-05-01T09:26:55Z</time>
      </trkpt>
      <trkpt lat="45.12849" lon="1.66082">
        <ele>185</ele>
        <time>2012-05-01T09:27:04Z</time>
      </trkpt>
      <trkpt lat="45.12848" lon="1.66072">
        <ele>187</ele>
        <time>2012-05-01T09:27:20Z</time>
      </trkpt>
      <trkpt lat="45.12855" lon="1.66063">
        <ele>187</ele>
        <time>2012-05-01T09:27:33Z</time>
      </trkpt>
      <trkpt lat="45.12862" lon="1.66052">
        <ele>187</ele>
        <time>2012-05-01T09:27:41Z</time>
      </trkpt>
      <trkpt lat="45.12867" lon="1.66041">
        <ele>187</ele>
        <time>2012-05-01T09:27:48Z</time>
      </trkpt>
      <trkpt lat="45.12873" lon="1.6603">
        <ele>187</ele>
        <time>2012-05-01T09:27:54Z</time>
      </trkpt>
      <trkpt lat="45.12877" lon="1.66024">
        <ele>187</ele>
        <time>2012-05-01T09:27:58Z</time>
      </trkpt>
      <trkpt lat="45.1288" lon="1.66018">
        <ele>185</ele>
        <time>2012-05-01T09:28:02Z</time>
      </trkpt>
      <trkpt lat="45.12886" lon="1.66001">
        <ele>184</ele>
        <time>2012-05-01T09:28:12Z</time>
      </trkpt>
      <trkpt lat="45.12898" lon="1.65981">
        <ele>184</ele>
        <time>2012-05-01T09:28:26Z</time>
      </trkpt>
      <trkpt lat="45.12905" lon="1.65969">
        <ele>184</ele>
        <time>2012-05-01T09:28:33Z</time>
      </trkpt>
      <trkpt lat="45.12921" lon="1.65931">
        <ele>190</ele>
        <time>2012-05-01T09:29:00Z</time>
      </trkpt>
      <trkpt lat="45.12927" lon="1.6592">
        <ele>190</ele>
        <time>2012-05-01T09:29:07Z</time>
      </trkpt>
      <trkpt lat="45.12942" lon="1.65902">
        <ele>188</ele>
        <time>2012-05-01T09:29:19Z</time>
      </trkpt>
      <trkpt lat="45.12971" lon="1.65892">
        <ele>191</ele>
        <time>2012-05-01T09:29:44Z</time>
      </trkpt>
      <trkpt lat="45.12989" lon="1.65883">
        <ele>194</ele>
        <time>2012-05-01T09:29:59Z</time>
      </trkpt>
      <trkpt lat="45.13007" lon="1.65883">
        <ele>190</ele>
        <time>2012-05-01T09:30:17Z</time>
      </trkpt>
      <trkpt lat="45.13021" lon="1.65864">
        <ele>186</ele>
        <time>2012-05-01T09:30:34Z</time>
      </trkpt>
      <trkpt lat="45.13026" lon="1.65853">
        <ele>186</ele>
        <time>2012-05-01T09:30:41Z</time>
      </trkpt>
      <trkpt lat="45.13035" lon="1.6581">
        <ele>191</ele>
        <time>2012-05-01T09:31:04Z</time>
      </trkpt>
      <trkpt lat="45.13038" lon="1.65799">
        <ele>191</ele>
        <time>2012-05-01T09:31:10Z</time>
      </trkpt>
      <trkpt lat="45.13046" lon="1.6578">
        <ele>192</ele>
        <time>2012-05-01T09:31:28Z</time>
      </trkpt>
      <trkpt lat="45.1305" lon="1.65773">
        <ele>192</ele>
        <time>2012-05-01T09:31:32Z</time>
      </trkpt>
      <trkpt lat="45.13048" lon="1.65756">
        <ele>193</ele>
        <time>2012-05-01T09:31:46Z</time>
      </trkpt>
      <trkpt lat="45.13044" lon="1.65741">
        <ele>193</ele>
        <time>2012-05-01T09:31:56Z</time>
      </trkpt>
      <trkpt lat="45.13039" lon="1.65735">
        <ele>190</ele>
        <time>2012-05-01T09:32:35Z</time>
      </trkpt>
      <trkpt lat="45.13035" lon="1.65729">
        <ele>181</ele>
        <time>2012-05-01T09:33:09Z</time>
      </trkpt>
      <trkpt lat="45.13026" lon="1.65716">
        <ele>183</ele>
        <time>2012-05-01T09:33:39Z</time>
      </trkpt>
      <trkpt lat="45.13008" lon="1.65705">
        <ele>184</ele>
        <time>2012-05-01T09:33:52Z</time>
      </trkpt>
      <trkpt lat="45.12961" lon="1.65699">
        <ele>191</ele>
        <time>2012-05-01T09:34:23Z</time>
      </trkpt>
      <trkpt lat="45.12958" lon="1.65706">
        <ele>192</ele>
        <time>2012-05-01T09:34:30Z</time>
      </trkpt>
      <trkpt lat="45.12962" lon="1.65714">
        <ele>193</ele>
        <time>2012-05-01T09:34:35Z</time>
      </trkpt>
      <trkpt lat="45.12966" lon="1.65724">
        <ele>194</ele>
        <time>2012-05-01T09:34:41Z</time>
      </trkpt>
      <trkpt lat="45.1297" lon="1.65736">
        <ele>194</ele>
        <time>2012-05-01T09:34:48Z</time>
      </trkpt>
      <trkpt lat="45.12968" lon="1.6575">
        <ele>195</ele>
        <time>2012-05-01T09:34:56Z</time>
      </trkpt>
      <trkpt lat="45.12963" lon="1.6576">
        <ele>197</ele>
        <time>2012-05-01T09:35:04Z</time>
      </trkpt>
      <trkpt lat="45.12958" lon="1.65764">
        <ele>198</ele>
        <time>2012-05-01T09:35:10Z</time>
      </trkpt>
      <trkpt lat="45.12942" lon="1.65762">
        <ele>200</ele>
        <time>2012-05-01T09:35:28Z</time>
      </trkpt>
      <trkpt lat="45.12937" lon="1.65762">
        <ele>200</ele>
        <time>2012-05-01T09:35:32Z</time>
      </trkpt>
      <trkpt lat="45.12932" lon="1.65764">
        <ele>200</ele>
        <time>2012-05-01T09:35:39Z</time>
      </trkpt>
      <trkpt lat="45.12916" lon="1.65762">
        <ele>202</ele>
        <time>2012-05-01T09:35:49Z</time>
      </trkpt>
      <trkpt lat="45.1291" lon="1.65761">
        <ele>206</ele>
        <time>2012-05-01T09:36:01Z</time>
      </trkpt>
      <trkpt lat="45.12906" lon="1.65755">
        <ele>210</ele>
        <time>2012-05-01T09:36:39Z</time>
      </trkpt>
      <trkpt lat="45.12901" lon="1.65751">
        <ele>212</ele>
        <time>2012-05-01T09:36:54Z</time>
      </trkpt>
      <trkpt lat="45.12893" lon="1.65743">
        <ele>210</ele>
        <time>2012-05-01T09:37:54Z</time>
      </trkpt>
      <trkpt lat="45.12885" lon="1.65736">
        <ele>210</ele>
        <time>2012-05-01T09:38:03Z</time>
      </trkpt>
      <trkpt lat="45.12877" lon="1.65729">
        <ele>211</ele>
        <time>2012-05-01T09:38:11Z</time>
      </trkpt>
      <trkpt lat="45.12852" lon="1.65704">
        <ele>214</ele>
        <time>2012-05-01T09:38:30Z</time>
      </trkpt>
      <trkpt lat="45.12834" lon="1.65692">
        <ele>212</ele>
        <time>2012-05-01T09:38:42Z</time>
      </trkpt>
      <trkpt lat="45.12829" lon="1.65689">
        <ele>212</ele>
        <time>2012-05-01T09:38:47Z</time>
      </trkpt>
      <trkpt lat="45.1282" lon="1.65686">
        <ele>213</ele>
        <time>2012-05-01T09:38:53Z</time>
      </trkpt>
      <trkpt lat="45.1281" lon="1.65685">
        <ele>212</ele>
        <time>2012-05-01T09:38:59Z</time>
      </trkpt>
      <trkpt lat="45.12805" lon="1.65685">
        <ele>212</ele>
        <time>2012-05-01T09:39:03Z</time>
      </trkpt>
      <trkpt lat="45.12798" lon="1.65686">
        <ele>214</ele>
        <time>2012-05-01T09:39:20Z</time>
      </trkpt>
      <trkpt lat="45.12793" lon="1.65678">
        <ele>216</ele>
        <time>2012-05-01T09:39:40Z</time>
      </trkpt>
      <trkpt lat="45.12783" lon="1.65677">
        <ele>215</ele>
        <time>2012-05-01T09:39:59Z</time>
      </trkpt>
      <trkpt lat="45.12772" lon="1.65675">
        <ele>214</ele>
        <time>2012-05-01T09:40:04Z</time>
      </trkpt>
      <trkpt lat="45.12762" lon="1.65674">
        <ele>214</ele>
        <time>2012-05-01T09:40:10Z</time>
      </trkpt>
      <trkpt lat="45.12754" lon="1.65673">
        <ele>216</ele>
        <time>2012-05-01T09:40:18Z</time>
      </trkpt>
      <trkpt lat="45.12751" lon="1.6567">
        <ele>224</ele>
        <time>2012-05-01T09:41:23Z</time>
      </trkpt>
      <trkpt lat="45.12751" lon="1.65666">
        <ele>224</ele>
        <time>2012-05-01T09:41:44Z</time>
      </trkpt>
      <trkpt lat="45.12746" lon="1.65673">
        <ele>225</ele>
        <time>2012-05-01T09:41:58Z</time>
      </trkpt>
      <trkpt lat="45.12739" lon="1.65675">
        <ele>226</ele>
        <time>2012-05-01T09:42:05Z</time>
      </trkpt>
      <trkpt lat="45.12734" lon="1.65677">
        <ele>224</ele>
        <time>2012-05-01T09:42:39Z</time>
      </trkpt>
      <trkpt lat="45.12743" lon="1.6568">
        <ele>224</ele>
        <time>2012-05-01T09:42:45Z</time>
      </trkpt>
      <trkpt lat="45.12751" lon="1.65685">
        <ele>224</ele>
        <time>2012-05-01T09:42:52Z</time>
      </trkpt>
      <trkpt lat="45.12776" lon="1.65703">
        <ele>224</ele>
        <time>2012-05-01T09:43:09Z</time>
      </trkpt>
      <trkpt lat="45.12793" lon="1.65717">
        <ele>225</ele>
        <time>2012-05-01T09:43:20Z</time>
      </trkpt>
      <trkpt lat="45.12803" lon="1.65742">
        <ele>229</ele>
        <time>2012-05-01T09:43:35Z</time>
      </trkpt>
      <trkpt lat="45.12805" lon="1.65757">
        <ele>232</ele>
        <time>2012-05-01T09:43:42Z</time>
      </trkpt>
      <trkpt lat="45.12803" lon="1.65765">
        <ele>233</ele>
        <time>2012-05-01T09:43:47Z</time>
      </trkpt>
      <trkpt lat="45.12761" lon="1.65805">
        <ele>244</ele>
        <time>2012-05-01T09:44:22Z</time>
      </trkpt>
      <trkpt lat="45.12743" lon="1.65822">
        <ele>248</ele>
        <time>2012-05-01T09:44:43Z</time>
      </trkpt>
      <trkpt lat="45.12736" lon="1.65831">
        <ele>248</ele>
        <time>2012-05-01T09:44:49Z</time>
      </trkpt>
      <trkpt lat="45.1273" lon="1.65841">
        <ele>246</ele>
        <time>2012-05-01T09:44:57Z</time>
      </trkpt>
      <trkpt lat="45.12722" lon="1.6585">
        <ele>247</ele>
        <time>2012-05-01T09:45:04Z</time>
      </trkpt>
      <trkpt lat="45.12714" lon="1.65863">
        <ele>248</ele>
        <time>2012-05-01T09:45:17Z</time>
      </trkpt>
      <trkpt lat="45.12686" lon="1.65931">
        <ele>258</ele>
        <time>2012-05-01T09:45:54Z</time>
      </trkpt>
      <trkpt lat="45.1268" lon="1.65942">
        <ele>259</ele>
        <time>2012-05-01T09:46:01Z</time>
      </trkpt>
      <trkpt lat="45.12675" lon="1.65955">
        <ele>259</ele>
        <time>2012-05-01T09:46:07Z</time>
      </trkpt>
      <trkpt lat="45.1267" lon="1.65969">
        <ele>259</ele>
        <time>2012-05-01T09:46:12Z</time>
      </trkpt>
      <trkpt lat="45.12646" lon="1.66007">
        <ele>266</ele>
        <time>2012-05-01T09:46:37Z</time>
      </trkpt>
      <trkpt lat="45.12627" lon="1.66038">
        <ele>261</ele>
        <time>2012-05-01T09:46:56Z</time>
      </trkpt>
      <trkpt lat="45.12616" lon="1.66061">
        <ele>265</ele>
        <time>2012-05-01T09:47:13Z</time>
      </trkpt>
      <trkpt lat="45.12609" lon="1.6607">
        <ele>265</ele>
        <time>2012-05-01T09:47:18Z</time>
      </trkpt>
      <trkpt lat="45.12603" lon="1.66083">
        <ele>266</ele>
        <time>2012-05-01T09:47:25Z</time>
      </trkpt>
      <trkpt lat="45.12598" lon="1.66093">
        <ele>266</ele>
        <time>2012-05-01T09:47:30Z</time>
      </trkpt>
      <trkpt lat="45.12578" lon="1.66128">
        <ele>267</ele>
        <time>2012-05-01T09:47:55Z</time>
      </trkpt>
      <trkpt lat="45.12546" lon="1.66171">
        <ele>277</ele>
        <time>2012-05-01T09:48:18Z</time>
      </trkpt>
      <trkpt lat="45.12538" lon="1.66182">
        <ele>277</ele>
        <time>2012-05-01T09:48:24Z</time>
      </trkpt>
      <trkpt lat="45.12533" lon="1.66187">
        <ele>278</ele>
        <time>2012-05-01T09:48:29Z</time>
      </trkpt>
      <trkpt lat="45.12523" lon="1.66212">
        <ele>277</ele>
        <time>2012-05-01T09:48:46Z</time>
      </trkpt>
      <trkpt lat="45.12522" lon="1.66225">
        <ele>276</ele>
        <time>2012-05-01T09:48:53Z</time>
      </trkpt>
      <trkpt lat="45.12517" lon="1.66237">
        <ele>276</ele>
        <time>2012-05-01T09:48:58Z</time>
      </trkpt>
      <trkpt lat="45.12493" lon="1.66281">
        <ele>286</ele>
        <time>2012-05-01T09:49:28Z</time>
      </trkpt>
      <trkpt lat="45.1248" lon="1.66286">
        <ele>288</ele>
        <time>2012-05-01T09:49:41Z</time>
      </trkpt>
      <trkpt lat="45.12469" lon="1.66286">
        <ele>289</ele>
        <time>2012-05-01T09:49:50Z</time>
      </trkpt>
      <trkpt lat="45.12465" lon="1.66287">
        <ele>288</ele>
        <time>2012-05-01T09:49:53Z</time>
      </trkpt>
      <trkpt lat="45.12459" lon="1.66288">
        <ele>288</ele>
        <time>2012-05-01T09:49:57Z</time>
      </trkpt>
      <trkpt lat="45.12444" lon="1.66284">
        <ele>291</ele>
        <time>2012-05-01T09:50:09Z</time>
      </trkpt>
      <trkpt lat="45.12438" lon="1.66282">
        <ele>291</ele>
        <time>2012-05-01T09:50:13Z</time>
      </trkpt>
      <trkpt lat="45.12433" lon="1.66281">
        <ele>292</ele>
        <time>2012-05-01T09:50:17Z</time>
      </trkpt>
      <trkpt lat="45.12428" lon="1.66279">
        <ele>292</ele>
        <time>2012-05-01T09:50:21Z</time>
      </trkpt>
      <trkpt lat="45.12423" lon="1.66278">
        <ele>292</ele>
        <time>2012-05-01T09:50:25Z</time>
      </trkpt>
      <trkpt lat="45.12418" lon="1.66277">
        <ele>291</ele>
        <time>2012-05-01T09:50:28Z</time>
      </trkpt>
      <trkpt lat="45.12413" lon="1.66276">
        <ele>291</ele>
        <time>2012-05-01T09:50:32Z</time>
      </trkpt>
      <trkpt lat="45.12408" lon="1.66275">
        <ele>291</ele>
        <time>2012-05-01T09:50:35Z</time>
      </trkpt>
      <trkpt lat="45.12402" lon="1.66276">
        <ele>291</ele>
        <time>2012-05-01T09:50:39Z</time>
      </trkpt>
      <trkpt lat="45.12397" lon="1.66275">
        <ele>290</ele>
        <time>2012-05-01T09:50:42Z</time>
      </trkpt>
      <trkpt lat="45.1237" lon="1.66274">
        <ele>291</ele>
        <time>2012-05-01T09:51:01Z</time>
      </trkpt>
      <trkpt lat="45.12365" lon="1.66273">
        <ele>290</ele>
        <time>2012-05-01T09:51:04Z</time>
      </trkpt>
      <trkpt lat="45.12359" lon="1.66275">
        <ele>291</ele>
        <time>2012-05-01T09:51:08Z</time>
      </trkpt>
      <trkpt lat="45.12344" lon="1.66282">
        <ele>287</ele>
        <time>2012-05-01T09:51:19Z</time>
      </trkpt>
      <trkpt lat="45.12339" lon="1.66282">
        <ele>287</ele>
        <time>2012-05-01T09:51:23Z</time>
      </trkpt>
      <trkpt lat="45.12334" lon="1.6628">
        <ele>287</ele>
        <time>2012-05-01T09:51:28Z</time>
      </trkpt>
      <trkpt lat="45.12329" lon="1.66278">
        <ele>288</ele>
        <time>2012-05-01T09:51:33Z</time>
      </trkpt>
      <trkpt lat="45.12322" lon="1.66273">
        <ele>287</ele>
        <time>2012-05-01T09:51:38Z</time>
      </trkpt>
      <trkpt lat="45.12312" lon="1.66271">
        <ele>284</ele>
        <time>2012-05-01T09:51:45Z</time>
      </trkpt>
      <trkpt lat="45.12307" lon="1.66267">
        <ele>283</ele>
        <time>2012-05-01T09:51:49Z</time>
      </trkpt>
      <trkpt lat="45.12282" lon="1.66232">
        <ele>289</ele>
        <time>2012-05-01T09:52:10Z</time>
      </trkpt>
      <trkpt lat="45.12275" lon="1.6622">
        <ele>288</ele>
        <time>2012-05-01T09:52:17Z</time>
      </trkpt>
      <trkpt lat="45.12262" lon="1.66192">
        <ele>292</ele>
        <time>2012-05-01T09:52:32Z</time>
      </trkpt>
      <trkpt lat="45.12258" lon="1.66186">
        <ele>292</ele>
        <time>2012-05-01T09:52:35Z</time>
      </trkpt>
      <trkpt lat="45.12248" lon="1.66169">
        <ele>289</ele>
        <time>2012-05-01T09:52:46Z</time>
      </trkpt>
      <trkpt lat="45.12244" lon="1.66164">
        <ele>289</ele>
        <time>2012-05-01T09:52:50Z</time>
      </trkpt>
      <trkpt lat="45.12236" lon="1.66147">
        <ele>292</ele>
        <time>2012-05-01T09:52:59Z</time>
      </trkpt>
      <trkpt lat="45.12231" lon="1.66143">
        <ele>293</ele>
        <time>2012-05-01T09:53:03Z</time>
      </trkpt>
      <trkpt lat="45.12227" lon="1.6614">
        <ele>293</ele>
        <time>2012-05-01T09:53:06Z</time>
      </trkpt>
      <trkpt lat="45.12219" lon="1.6613">
        <ele>292</ele>
        <time>2012-05-01T09:53:13Z</time>
      </trkpt>
      <trkpt lat="45.12215" lon="1.66124">
        <ele>292</ele>
        <time>2012-05-01T09:53:17Z</time>
      </trkpt>
      <trkpt lat="45.12197" lon="1.66103">
        <ele>288</ele>
        <time>2012-05-01T09:53:31Z</time>
      </trkpt>
      <trkpt lat="45.12193" lon="1.66099">
        <ele>287</ele>
        <time>2012-05-01T09:53:35Z</time>
      </trkpt>
      <trkpt lat="45.12189" lon="1.66095">
        <ele>287</ele>
        <time>2012-05-01T09:53:38Z</time>
      </trkpt>
      <trkpt lat="45.12186" lon="1.66091">
        <ele>287</ele>
        <time>2012-05-01T09:53:41Z</time>
      </trkpt>
      <trkpt lat="45.12164" lon="1.66061">
        <ele>288</ele>
        <time>2012-05-01T09:53:59Z</time>
      </trkpt>
      <trkpt lat="45.12161" lon="1.66055">
        <ele>289</ele>
        <time>2012-05-01T09:54:03Z</time>
      </trkpt>
      <trkpt lat="45.12157" lon="1.66049">
        <ele>289</ele>
        <time>2012-05-01T09:54:08Z</time>
      </trkpt>
      <trkpt lat="45.12137" lon="1.66015">
        <ele>283</ele>
        <time>2012-05-01T09:54:28Z</time>
      </trkpt>
      <trkpt lat="45.12126" lon="1.65985">
        <ele>284</ele>
        <time>2012-05-01T09:54:44Z</time>
      </trkpt>
      <trkpt lat="45.12118" lon="1.65975">
        <ele>283</ele>
        <time>2012-05-01T09:54:50Z</time>
      </trkpt>
      <trkpt lat="45.12114" lon="1.65971">
        <ele>283</ele>
        <time>2012-05-01T09:54:54Z</time>
      </trkpt>
      <trkpt lat="45.12103" lon="1.65962">
        <ele>283</ele>
        <time>2012-05-01T09:55:02Z</time>
      </trkpt>
      <trkpt lat="45.12081" lon="1.65947">
        <ele>278</ele>
        <time>2012-05-01T09:55:19Z</time>
      </trkpt>
      <trkpt lat="45.12076" lon="1.65943">
        <ele>278</ele>
        <time>2012-05-01T09:55:23Z</time>
      </trkpt>
      <trkpt lat="45.12072" lon="1.65939">
        <ele>278</ele>
        <time>2012-05-01T09:55:27Z</time>
      </trkpt>
      <trkpt lat="45.12068" lon="1.65927">
        <ele>277</ele>
        <time>2012-05-01T09:55:36Z</time>
      </trkpt>
      <trkpt lat="45.12067" lon="1.65913">
        <ele>275</ele>
        <time>2012-05-01T09:55:44Z</time>
      </trkpt>
      <trkpt lat="45.1206" lon="1.65903">
        <ele>275</ele>
        <time>2012-05-01T09:55:51Z</time>
      </trkpt>
      <trkpt lat="45.12047" lon="1.65901">
        <ele>272</ele>
        <time>2012-05-01T09:56:00Z</time>
      </trkpt>
      <trkpt lat="45.12041" lon="1.65902">
        <ele>272</ele>
        <time>2012-05-01T09:56:03Z</time>
      </trkpt>
      <trkpt lat="45.12036" lon="1.65903">
        <ele>272</ele>
        <time>2012-05-01T09:56:06Z</time>
      </trkpt>
      <trkpt lat="45.12024" lon="1.65906">
        <ele>272</ele>
        <time>2012-05-01T09:56:12Z</time>
      </trkpt>
      <trkpt lat="45.12013" lon="1.65912">
        <ele>275</ele>
        <time>2012-05-01T09:56:22Z</time>
      </trkpt>
      <trkpt lat="45.11987" lon="1.65924">
        <ele>273</ele>
        <time>2012-05-01T09:56:47Z</time>
      </trkpt>
      <trkpt lat="45.11982" lon="1.65921">
        <ele>273</ele>
        <time>2012-05-01T09:57:05Z</time>
      </trkpt>
      <trkpt lat="45.11972" lon="1.65926">
        <ele>269</ele>
        <time>2012-05-01T09:57:13Z</time>
      </trkpt>
      <trkpt lat="45.11967" lon="1.65926">
        <ele>269</ele>
        <time>2012-05-01T09:57:16Z</time>
      </trkpt>
      <trkpt lat="45.11962" lon="1.65926">
        <ele>270</ele>
        <time>2012-05-01T09:57:20Z</time>
      </trkpt>
      <trkpt lat="45.11958" lon="1.65926">
        <ele>271</ele>
        <time>2012-05-01T09:57:23Z</time>
      </trkpt>
      <trkpt lat="45.11922" lon="1.65928">
        <ele>266</ele>
        <time>2012-05-01T09:57:47Z</time>
      </trkpt>
      <trkpt lat="45.11907" lon="1.65928">
        <ele>266</ele>
        <time>2012-05-01T09:57:58Z</time>
      </trkpt>
      <trkpt lat="45.11902" lon="1.65928">
        <ele>265</ele>
        <time>2012-05-01T09:58:02Z</time>
      </trkpt>
      <trkpt lat="45.11891" lon="1.65928">
        <ele>265</ele>
        <time>2012-05-01T09:58:11Z</time>
      </trkpt>
      <trkpt lat="45.11885" lon="1.65929">
        <ele>265</ele>
        <time>2012-05-01T09:58:15Z</time>
      </trkpt>
      <trkpt lat="45.1187" lon="1.65933">
        <ele>262</ele>
        <time>2012-05-01T09:58:25Z</time>
      </trkpt>
      <trkpt lat="45.11865" lon="1.65933">
        <ele>262</ele>
        <time>2012-05-01T09:58:29Z</time>
      </trkpt>
      <trkpt lat="45.1186" lon="1.65932">
        <ele>262</ele>
        <time>2012-05-01T09:58:33Z</time>
      </trkpt>
      <trkpt lat="45.11855" lon="1.65931">
        <ele>262</ele>
        <time>2012-05-01T09:58:37Z</time>
      </trkpt>
      <trkpt lat="45.11851" lon="1.65925">
        <ele>263</ele>
        <time>2012-05-01T09:58:42Z</time>
      </trkpt>
      <trkpt lat="45.11833" lon="1.65913">
        <ele>264</ele>
        <time>2012-05-01T09:58:57Z</time>
      </trkpt>
      <trkpt lat="45.1182" lon="1.65904">
        <ele>262</ele>
        <time>2012-05-01T09:59:09Z</time>
      </trkpt>
      <trkpt lat="45.11815" lon="1.659">
        <ele>261</ele>
        <time>2012-05-01T09:59:14Z</time>
      </trkpt>
      <trkpt lat="45.11793" lon="1.65885">
        <ele>258</ele>
        <time>2012-05-01T09:59:31Z</time>
      </trkpt>
      <trkpt lat="45.11776" lon="1.65871">
        <ele>261</ele>
        <time>2012-05-01T09:59:45Z</time>
      </trkpt>
      <trkpt lat="45.1176" lon="1.65859">
        <ele>259</ele>
        <time>2012-05-01T09:59:58Z</time>
      </trkpt>
      <trkpt lat="45.11754" lon="1.65849">
        <ele>259</ele>
        <time>2012-05-01T10:00:05Z</time>
      </trkpt>
      <trkpt lat="45.11749" lon="1.65844">
        <ele>260</ele>
        <time>2012-05-01T10:00:09Z</time>
      </trkpt>
      <trkpt lat="45.11734" lon="1.65825">
        <ele>259</ele>
        <time>2012-05-01T10:00:22Z</time>
      </trkpt>
      <trkpt lat="45.11707" lon="1.65784">
        <ele>251</ele>
        <time>2012-05-01T10:00:59Z</time>
      </trkpt>
      <trkpt lat="45.11686" lon="1.65734">
        <ele>261</ele>
        <time>2012-05-01T10:01:24Z</time>
      </trkpt>
      <trkpt lat="45.1168" lon="1.65724">
        <ele>261</ele>
        <time>2012-05-01T10:01:30Z</time>
      </trkpt>
      <trkpt lat="45.11674" lon="1.65714">
        <ele>262</ele>
        <time>2012-05-01T10:01:38Z</time>
      </trkpt>
      <trkpt lat="45.11658" lon="1.65678">
        <ele>259</ele>
        <time>2012-05-01T10:02:00Z</time>
      </trkpt>
      <trkpt lat="45.11645" lon="1.65655">
        <ele>254</ele>
        <time>2012-05-01T10:02:23Z</time>
      </trkpt>
      <trkpt lat="45.11631" lon="1.65635">
        <ele>254</ele>
        <time>2012-05-01T10:02:37Z</time>
      </trkpt>
      <trkpt lat="45.1162" lon="1.65608">
        <ele>254</ele>
        <time>2012-05-01T10:02:51Z</time>
      </trkpt>
      <trkpt lat="45.11614" lon="1.65599">
        <ele>254</ele>
        <time>2012-05-01T10:02:58Z</time>
      </trkpt>
      <trkpt lat="45.11605" lon="1.65589">
        <ele>254</ele>
        <time>2012-05-01T10:03:09Z</time>
      </trkpt>
      <trkpt lat="45.11589" lon="1.65559">
        <ele>259</ele>
        <time>2012-05-01T10:03:22Z</time>
      </trkpt>
      <trkpt lat="45.11586" lon="1.65545">
        <ele>259</ele>
        <time>2012-05-01T10:03:30Z</time>
      </trkpt>
      <trkpt lat="45.11565" lon="1.65514">
        <ele>267</ele>
        <time>2012-05-01T10:03:46Z</time>
      </trkpt>
      <trkpt lat="45.11558" lon="1.65506">
        <ele>267</ele>
        <time>2012-05-01T10:03:53Z</time>
      </trkpt>
      <trkpt lat="45.11555" lon="1.65499">
        <ele>267</ele>
        <time>2012-05-01T10:03:58Z</time>
      </trkpt>
      <trkpt lat="45.11551" lon="1.65477">
        <ele>271</ele>
        <time>2012-05-01T10:04:10Z</time>
      </trkpt>
      <trkpt lat="45.11545" lon="1.6546">
        <ele>272</ele>
        <time>2012-05-01T10:04:19Z</time>
      </trkpt>
      <trkpt lat="45.1154" lon="1.65446">
        <ele>272</ele>
        <time>2012-05-01T10:04:27Z</time>
      </trkpt>
      <trkpt lat="45.11537" lon="1.65441">
        <ele>271</ele>
        <time>2012-05-01T10:04:31Z</time>
      </trkpt>
      <trkpt lat="45.11535" lon="1.6543">
        <ele>270</ele>
        <time>2012-05-01T10:04:38Z</time>
      </trkpt>
      <trkpt lat="45.11532" lon="1.65418">
        <ele>269</ele>
        <time>2012-05-01T10:04:45Z</time>
      </trkpt>
      <trkpt lat="45.11526" lon="1.65407">
        <ele>269</ele>
        <time>2012-05-01T10:04:51Z</time>
      </trkpt>
      <trkpt lat="45.11522" lon="1.65401">
        <ele>270</ele>
        <time>2012-05-01T10:04:55Z</time>
      </trkpt>
      <trkpt lat="45.11517" lon="1.65389">
        <ele>271</ele>
        <time>2012-05-01T10:05:02Z</time>
      </trkpt>
      <trkpt lat="45.11506" lon="1.65369">
        <ele>269</ele>
        <time>2012-05-01T10:05:14Z</time>
      </trkpt>
      <trkpt lat="45.11503" lon="1.65363">
        <ele>270</ele>
        <time>2012-05-01T10:05:17Z</time>
      </trkpt>
      <trkpt lat="45.11501" lon="1.65356">
        <ele>270</ele>
        <time>2012-05-01T10:05:20Z</time>
      </trkpt>
      <trkpt lat="45.11497" lon="1.65349">
        <ele>271</ele>
        <time>2012-05-01T10:05:24Z</time>
      </trkpt>
      <trkpt lat="45.11489" lon="1.65331">
        <ele>271</ele>
        <time>2012-05-01T10:05:34Z</time>
      </trkpt>
      <trkpt lat="45.11488" lon="1.65323">
        <ele>271</ele>
        <time>2012-05-01T10:05:39Z</time>
      </trkpt>
      <trkpt lat="45.11484" lon="1.65317">
        <ele>271</ele>
        <time>2012-05-01T10:05:43Z</time>
      </trkpt>
      <trkpt lat="45.11464" lon="1.65284">
        <ele>271</ele>
        <time>2012-05-01T10:06:04Z</time>
      </trkpt>
      <trkpt lat="45.11461" lon="1.65277">
        <ele>271</ele>
        <time>2012-05-01T10:06:07Z</time>
      </trkpt>
      <trkpt lat="45.11458" lon="1.65271">
        <ele>271</ele>
        <time>2012-05-01T10:06:11Z</time>
      </trkpt>
      <trkpt lat="45.11453" lon="1.65258">
        <ele>270</ele>
        <time>2012-05-01T10:06:19Z</time>
      </trkpt>
      <trkpt lat="45.11444" lon="1.65237">
        <ele>271</ele>
        <time>2012-05-01T10:06:31Z</time>
      </trkpt>
      <trkpt lat="45.11442" lon="1.65229">
        <ele>271</ele>
        <time>2012-05-01T10:06:34Z</time>
      </trkpt>
      <trkpt lat="45.11439" lon="1.65223">
        <ele>270</ele>
        <time>2012-05-01T10:06:38Z</time>
      </trkpt>
      <trkpt lat="45.11432" lon="1.65202">
        <ele>271</ele>
        <time>2012-05-01T10:06:50Z</time>
      </trkpt>
      <trkpt lat="45.11428" lon="1.65181">
        <ele>270</ele>
        <time>2012-05-01T10:07:02Z</time>
      </trkpt>
      <trkpt lat="45.11427" lon="1.65169">
        <ele>271</ele>
        <time>2012-05-01T10:07:08Z</time>
      </trkpt>
      <trkpt lat="45.11415" lon="1.65146">
        <ele>273</ele>
        <time>2012-05-01T10:07:24Z</time>
      </trkpt>
      <trkpt lat="45.11402" lon="1.65126">
        <ele>273</ele>
        <time>2012-05-01T10:07:40Z</time>
      </trkpt>
      <trkpt lat="45.11395" lon="1.65115">
        <ele>273</ele>
        <time>2012-05-01T10:07:47Z</time>
      </trkpt>
      <trkpt lat="45.11371" lon="1.65068">
        <ele>280</ele>
        <time>2012-05-01T10:08:16Z</time>
      </trkpt>
      <trkpt lat="45.11362" lon="1.65043">
        <ele>279</ele>
        <time>2012-05-01T10:08:31Z</time>
      </trkpt>
      <trkpt lat="45.11357" lon="1.65032">
        <ele>278</ele>
        <time>2012-05-01T10:08:39Z</time>
      </trkpt>
      <trkpt lat="45.11351" lon="1.65016">
        <ele>279</ele>
        <time>2012-05-01T10:08:48Z</time>
      </trkpt>
      <trkpt lat="45.11331" lon="1.64984">
        <ele>284</ele>
        <time>2012-05-01T10:09:10Z</time>
      </trkpt>
      <trkpt lat="45.11327" lon="1.64972">
        <ele>282</ele>
        <time>2012-05-01T10:09:18Z</time>
      </trkpt>
      <trkpt lat="45.1132" lon="1.64961">
        <ele>283</ele>
        <time>2012-05-01T10:09:26Z</time>
      </trkpt>
      <trkpt lat="45.11314" lon="1.6495">
        <ele>283</ele>
        <time>2012-05-01T10:09:34Z</time>
      </trkpt>
      <trkpt lat="45.11301" lon="1.64929">
        <ele>287</ele>
        <time>2012-05-01T10:09:53Z</time>
      </trkpt>
      <trkpt lat="45.11294" lon="1.64919">
        <ele>287</ele>
        <time>2012-05-01T10:10:02Z</time>
      </trkpt>
      <trkpt lat="45.11292" lon="1.64915">
        <ele>289</ele>
        <time>2012-05-01T10:10:19Z</time>
      </trkpt>
      <trkpt lat="45.11286" lon="1.64905">
        <ele>291</ele>
        <time>2012-05-01T10:10:48Z</time>
      </trkpt>
      <trkpt lat="45.11281" lon="1.64893">
        <ele>290</ele>
        <time>2012-05-01T10:10:58Z</time>
      </trkpt>
      <trkpt lat="45.11267" lon="1.64881">
        <ele>293</ele>
        <time>2012-05-01T10:11:31Z</time>
      </trkpt>
      <trkpt lat="45.11241" lon="1.64839">
        <ele>300</ele>
        <time>2012-05-01T10:12:03Z</time>
      </trkpt>
      <trkpt lat="45.11238" lon="1.64833">
        <ele>300</ele>
        <time>2012-05-01T10:12:07Z</time>
      </trkpt>
      <trkpt lat="45.11227" lon="1.6481">
        <ele>301</ele>
        <time>2012-05-01T10:12:22Z</time>
      </trkpt>
      <trkpt lat="45.11219" lon="1.64799">
        <ele>303</ele>
        <time>2012-05-01T10:12:31Z</time>
      </trkpt>
      <trkpt lat="45.11204" lon="1.64781">
        <ele>303</ele>
        <time>2012-05-01T10:12:48Z</time>
      </trkpt>
      <trkpt lat="45.11199" lon="1.64776">
        <ele>304</ele>
        <time>2012-05-01T10:12:52Z</time>
      </trkpt>
      <trkpt lat="45.11173" lon="1.64747">
        <ele>313</ele>
        <time>2012-05-01T10:13:15Z</time>
      </trkpt>
      <trkpt lat="45.11184" lon="1.64735">
        <ele>314</ele>
        <time>2012-05-01T10:13:40Z</time>
      </trkpt>
      <trkpt lat="45.11195" lon="1.64725">
        <ele>313</ele>
        <time>2012-05-01T10:13:56Z</time>
      </trkpt>
      <trkpt lat="45.11208" lon="1.64722">
        <ele>311</ele>
        <time>2012-05-01T10:14:06Z</time>
      </trkpt>
      <trkpt lat="45.11217" lon="1.64724">
        <ele>310</ele>
        <time>2012-05-01T10:14:11Z</time>
      </trkpt>
      <trkpt lat="45.11227" lon="1.64725">
        <ele>311</ele>
        <time>2012-05-01T10:14:18Z</time>
      </trkpt>
      <trkpt lat="45.11238" lon="1.64719">
        <ele>313</ele>
        <time>2012-05-01T10:14:36Z</time>
      </trkpt>
      <trkpt lat="45.11248" lon="1.64714">
        <ele>314</ele>
        <time>2012-05-01T10:14:46Z</time>
      </trkpt>
      <trkpt lat="45.11257" lon="1.6471">
        <ele>316</ele>
        <time>2012-05-01T10:14:51Z</time>
      </trkpt>
      <trkpt lat="45.1126" lon="1.64693">
        <ele>318</ele>
        <time>2012-05-01T10:15:03Z</time>
      </trkpt>
      <trkpt lat="45.11251" lon="1.64685">
        <ele>320</ele>
        <time>2012-05-01T10:15:14Z</time>
      </trkpt>
      <trkpt lat="45.11247" lon="1.64672">
        <ele>321</ele>
        <time>2012-05-01T10:15:23Z</time>
      </trkpt>
      <trkpt lat="45.11244" lon="1.64658">
        <ele>321</ele>
        <time>2012-05-01T10:15:31Z</time>
      </trkpt>
      <trkpt lat="45.11219" lon="1.64586">
        <ele>346</ele>
        <time>2012-05-01T10:16:07Z</time>
      </trkpt>
      <trkpt lat="45.1121" lon="1.64561">
        <ele>355</ele>
        <time>2012-05-01T10:16:27Z</time>
      </trkpt>
      <trkpt lat="45.11205" lon="1.64543">
        <ele>355</ele>
        <time>2012-05-01T10:16:40Z</time>
      </trkpt>
      <trkpt lat="45.11195" lon="1.64534">
        <ele>355</ele>
        <time>2012-05-01T10:16:47Z</time>
      </trkpt>
      <trkpt lat="45.11189" lon="1.64523">
        <ele>355</ele>
        <time>2012-05-01T10:16:53Z</time>
      </trkpt>
      <trkpt lat="45.11186" lon="1.64511">
        <ele>356</ele>
        <time>2012-05-01T10:17:01Z</time>
      </trkpt>
      <trkpt lat="45.11161" lon="1.64462">
        <ele>360</ele>
        <time>2012-05-01T10:17:36Z</time>
      </trkpt>
      <trkpt lat="45.11154" lon="1.64449">
        <ele>361</ele>
        <time>2012-05-01T10:17:44Z</time>
      </trkpt>
      <trkpt lat="45.11138" lon="1.64415">
        <ele>364</ele>
        <time>2012-05-01T10:18:06Z</time>
      </trkpt>
      <trkpt lat="45.11122" lon="1.64393">
        <ele>359</ele>
        <time>2012-05-01T10:18:22Z</time>
      </trkpt>
      <trkpt lat="45.11118" lon="1.64379">
        <ele>357</ele>
        <time>2012-05-01T10:18:30Z</time>
      </trkpt>
      <trkpt lat="45.1111" lon="1.64369">
        <ele>357</ele>
        <time>2012-05-01T10:18:38Z</time>
      </trkpt>
      <trkpt lat="45.11106" lon="1.64357">
        <ele>358</ele>
        <time>2012-05-01T10:18:48Z</time>
      </trkpt>
      <trkpt lat="45.111" lon="1.64344">
        <ele>357</ele>
        <time>2012-05-01T10:18:55Z</time>
      </trkpt>
      <trkpt lat="45.11081" lon="1.6432">
        <ele>352</ele>
        <time>2012-05-01T10:19:21Z</time>
      </trkpt>
      <trkpt lat="45.11076" lon="1.64309">
        <ele>352</ele>
        <time>2012-05-01T10:19:29Z</time>
      </trkpt>
      <trkpt lat="45.1106" lon="1.64286">
        <ele>355</ele>
        <time>2012-05-01T10:19:48Z</time>
      </trkpt>
      <trkpt lat="45.11044" lon="1.64248">
        <ele>359</ele>
        <time>2012-05-01T10:20:07Z</time>
      </trkpt>
      <trkpt lat="45.11036" lon="1.64224">
        <ele>359</ele>
        <time>2012-05-01T10:20:21Z</time>
      </trkpt>
      <trkpt lat="45.11028" lon="1.64214">
        <ele>361</ele>
        <time>2012-05-01T10:20:32Z</time>
      </trkpt>
      <trkpt lat="45.11011" lon="1.64199">
        <ele>362</ele>
        <time>2012-05-01T10:20:46Z</time>
      </trkpt>
      <trkpt lat="45.10994" lon="1.64181">
        <ele>367</ele>
        <time>2012-05-01T10:21:06Z</time>
      </trkpt>
      <trkpt lat="45.10975" lon="1.64163">
        <ele>365</ele>
        <time>2012-05-01T10:21:18Z</time>
      </trkpt>
      <trkpt lat="45.10964" lon="1.64159">
        <ele>365</ele>
        <time>2012-05-01T10:21:25Z</time>
      </trkpt>
      <trkpt lat="45.10941" lon="1.64146">
        <ele>374</ele>
        <time>2012-05-01T10:22:10Z</time>
      </trkpt>
      <trkpt lat="45.1095" lon="1.6415">
        <ele>381</ele>
        <time>2012-05-01T10:22:31Z</time>
      </trkpt>
      <trkpt lat="45.10954" lon="1.64137">
        <ele>382</ele>
        <time>2012-05-01T10:22:44Z</time>
      </trkpt>
      <trkpt lat="45.10948" lon="1.64127">
        <ele>381</ele>
        <time>2012-05-01T10:22:51Z</time>
      </trkpt>
      <trkpt lat="45.10941" lon="1.6412">
        <ele>380</ele>
        <time>2012-05-01T10:22:56Z</time>
      </trkpt>
      <trkpt lat="45.10935" lon="1.64112">
        <ele>380</ele>
        <time>2012-05-01T10:23:03Z</time>
      </trkpt>
      <trkpt lat="45.10899" lon="1.64059">
        <ele>373</ele>
        <time>2012-05-01T10:23:42Z</time>
      </trkpt>
      <trkpt lat="45.10886" lon="1.64018">
        <ele>369</ele>
        <time>2012-05-01T10:24:08Z</time>
      </trkpt>
      <trkpt lat="45.10881" lon="1.64003">
        <ele>368</ele>
        <time>2012-05-01T10:24:16Z</time>
      </trkpt>
      <trkpt lat="45.10881" lon="1.63994">
        <ele>369</ele>
        <time>2012-05-01T10:24:30Z</time>
      </trkpt>
      <trkpt lat="45.10888" lon="1.63983">
        <ele>370</ele>
        <time>2012-05-01T10:24:34Z</time>
      </trkpt>
      <trkpt lat="45.10893" lon="1.63967">
        <ele>368</ele>
        <time>2012-05-01T10:24:41Z</time>
      </trkpt>
      <trkpt lat="45.10899" lon="1.63954">
        <ele>368</ele>
        <time>2012-05-01T10:24:47Z</time>
      </trkpt>
      <trkpt lat="45.10915" lon="1.63899">
        <ele>379</ele>
        <time>2012-05-01T10:25:18Z</time>
      </trkpt>
      <trkpt lat="45.10917" lon="1.63877">
        <ele>384</ele>
        <time>2012-05-01T10:25:34Z</time>
      </trkpt>
      <trkpt lat="45.10913" lon="1.63863">
        <ele>383</ele>
        <time>2012-05-01T10:25:42Z</time>
      </trkpt>
      <trkpt lat="45.10905" lon="1.63855">
        <ele>382</ele>
        <time>2012-05-01T10:25:52Z</time>
      </trkpt>
      <trkpt lat="45.10886" lon="1.63852">
        <ele>385</ele>
        <time>2012-05-01T10:26:10Z</time>
      </trkpt>
      <trkpt lat="45.10875" lon="1.63843">
        <ele>386</ele>
        <time>2012-05-01T10:26:22Z</time>
      </trkpt>
      <trkpt lat="45.10864" lon="1.63819">
        <ele>390</ele>
        <time>2012-05-01T10:26:40Z</time>
      </trkpt>
      <trkpt lat="45.10853" lon="1.63794">
        <ele>390</ele>
        <time>2012-05-01T10:26:54Z</time>
      </trkpt>
      <trkpt lat="45.10845" lon="1.63769">
        <ele>395</ele>
        <time>2012-05-01T10:27:10Z</time>
      </trkpt>
      <trkpt lat="45.10839" lon="1.63757">
        <ele>394</ele>
        <time>2012-05-01T10:27:19Z</time>
      </trkpt>
      <trkpt lat="45.10837" lon="1.6374">
        <ele>392</ele>
        <time>2012-05-01T10:27:33Z</time>
      </trkpt>
      <trkpt lat="45.10838" lon="1.63722">
        <ele>394</ele>
        <time>2012-05-01T10:27:43Z</time>
      </trkpt>
      <trkpt lat="45.10844" lon="1.63675">
        <ele>391</ele>
        <time>2012-05-01T10:28:18Z</time>
      </trkpt>
      <trkpt lat="45.10839" lon="1.63661">
        <ele>391</ele>
        <time>2012-05-01T10:28:26Z</time>
      </trkpt>
      <trkpt lat="45.10833" lon="1.63651">
        <ele>391</ele>
        <time>2012-05-01T10:28:31Z</time>
      </trkpt>
      <trkpt lat="45.10792" lon="1.63594">
        <ele>407</ele>
        <time>2012-05-01T10:29:02Z</time>
      </trkpt>
      <trkpt lat="45.10758" lon="1.63553">
        <ele>415</ele>
        <time>2012-05-01T10:29:34Z</time>
      </trkpt>
      <trkpt lat="45.10753" lon="1.6355">
        <ele>416</ele>
        <time>2012-05-01T10:29:39Z</time>
      </trkpt>
      <trkpt lat="45.10749" lon="1.63547">
        <ele>416</ele>
        <time>2012-05-01T10:29:42Z</time>
      </trkpt>
      <trkpt lat="45.10739" lon="1.63543">
        <ele>416</ele>
        <time>2012-05-01T10:29:50Z</time>
      </trkpt>
      <trkpt lat="45.10722" lon="1.6353">
        <ele>411</ele>
        <time>2012-05-01T10:30:14Z</time>
      </trkpt>
      <trkpt lat="45.10713" lon="1.63522">
        <ele>411</ele>
        <time>2012-05-01T10:30:22Z</time>
      </trkpt>
      <trkpt lat="45.10709" lon="1.63517">
        <ele>411</ele>
        <time>2012-05-01T10:30:26Z</time>
      </trkpt>
      <trkpt lat="45.10696" lon="1.63499">
        <ele>410</ele>
        <time>2012-05-01T10:30:43Z</time>
      </trkpt>
      <trkpt lat="45.10682" lon="1.63494">
        <ele>408</ele>
        <time>2012-05-01T10:30:53Z</time>
      </trkpt>
      <trkpt lat="45.10673" lon="1.6349">
        <ele>408</ele>
        <time>2012-05-01T10:31:00Z</time>
      </trkpt>
      <trkpt lat="45.10668" lon="1.63488">
        <ele>409</ele>
        <time>2012-05-01T10:31:03Z</time>
      </trkpt>
      <trkpt lat="45.10658" lon="1.63484">
        <ele>412</ele>
        <time>2012-05-01T10:31:10Z</time>
      </trkpt>
      <trkpt lat="45.1062" lon="1.6348">
        <ele>415</ele>
        <time>2012-05-01T10:31:37Z</time>
      </trkpt>
      <trkpt lat="45.10616" lon="1.63481">
        <ele>417</ele>
        <time>2012-05-01T10:31:41Z</time>
      </trkpt>
      <trkpt lat="45.10605" lon="1.63481">
        <ele>418</ele>
        <time>2012-05-01T10:31:49Z</time>
      </trkpt>
      <trkpt lat="45.106" lon="1.6348">
        <ele>417</ele>
        <time>2012-05-01T10:31:53Z</time>
      </trkpt>
      <trkpt lat="45.10581" lon="1.63484">
        <ele>414</ele>
        <time>2012-05-01T10:32:09Z</time>
      </trkpt>
      <trkpt lat="45.10561" lon="1.63486">
        <ele>414</ele>
        <time>2012-05-01T10:32:28Z</time>
      </trkpt>
      <trkpt lat="45.10552" lon="1.63492">
        <ele>414</ele>
        <time>2012-05-01T10:32:42Z</time>
      </trkpt>
      <trkpt lat="45.10523" lon="1.63502">
        <ele>419</ele>
        <time>2012-05-01T10:33:02Z</time>
      </trkpt>
      <trkpt lat="45.10513" lon="1.63503">
        <ele>419</ele>
        <time>2012-05-01T10:33:08Z</time>
      </trkpt>
      <trkpt lat="45.10502" lon="1.63506">
        <ele>420</ele>
        <time>2012-05-01T10:33:15Z</time>
      </trkpt>
      <trkpt lat="45.10493" lon="1.6351">
        <ele>418</ele>
        <time>2012-05-01T10:33:21Z</time>
      </trkpt>
      <trkpt lat="45.10483" lon="1.63512">
        <ele>418</ele>
        <time>2012-05-01T10:33:29Z</time>
      </trkpt>
      <trkpt lat="45.10473" lon="1.63509">
        <ele>420</ele>
        <time>2012-05-01T10:33:36Z</time>
      </trkpt>
      <trkpt lat="45.10464" lon="1.6351">
        <ele>419</ele>
        <time>2012-05-01T10:33:46Z</time>
      </trkpt>
      <trkpt lat="45.10435" lon="1.63514">
        <ele>423</ele>
        <time>2012-05-01T10:34:07Z</time>
      </trkpt>
      <trkpt lat="45.10423" lon="1.63515">
        <ele>423</ele>
        <time>2012-05-01T10:34:15Z</time>
      </trkpt>
      <trkpt lat="45.10412" lon="1.63514">
        <ele>421</ele>
        <time>2012-05-01T10:34:22Z</time>
      </trkpt>
      <trkpt lat="45.10402" lon="1.63512">
        <ele>422</ele>
        <time>2012-05-01T10:34:28Z</time>
      </trkpt>
      <trkpt lat="45.10393" lon="1.63509">
        <ele>426</ele>
        <time>2012-05-01T10:34:40Z</time>
      </trkpt>
      <trkpt lat="45.10374" lon="1.63517">
        <ele>429</ele>
        <time>2012-05-01T10:34:51Z</time>
      </trkpt>
      <trkpt lat="45.10365" lon="1.63516">
        <ele>429</ele>
        <time>2012-05-01T10:34:57Z</time>
      </trkpt>
      <trkpt lat="45.10337" lon="1.63514">
        <ele>426</ele>
        <time>2012-05-01T10:35:21Z</time>
      </trkpt>
      <trkpt lat="45.10318" lon="1.63507">
        <ele>429</ele>
        <time>2012-05-01T10:35:39Z</time>
      </trkpt>
      <trkpt lat="45.10301" lon="1.63502">
        <ele>430</ele>
        <time>2012-05-01T10:35:54Z</time>
      </trkpt>
      <trkpt lat="45.10273" lon="1.63494">
        <ele>433</ele>
        <time>2012-05-01T10:36:20Z</time>
      </trkpt>
      <trkpt lat="45.10264" lon="1.6349">
        <ele>433</ele>
        <time>2012-05-01T10:36:29Z</time>
      </trkpt>
      <trkpt lat="45.10252" lon="1.63488">
        <ele>435</ele>
        <time>2012-05-01T10:36:38Z</time>
      </trkpt>
      <trkpt lat="45.10247" lon="1.63487">
        <ele>434</ele>
        <time>2012-05-01T10:36:41Z</time>
      </trkpt>
      <trkpt lat="45.10243" lon="1.63487">
        <ele>434</ele>
        <time>2012-05-01T10:36:44Z</time>
      </trkpt>
      <trkpt lat="45.10233" lon="1.63487">
        <ele>435</ele>
        <time>2012-05-01T10:36:50Z</time>
      </trkpt>
      <trkpt lat="45.10228" lon="1.63488">
        <ele>435</ele>
        <time>2012-05-01T10:36:54Z</time>
      </trkpt>
      <trkpt lat="45.10223" lon="1.63488">
        <ele>434</ele>
        <time>2012-05-01T10:36:57Z</time>
      </trkpt>
      <trkpt lat="45.10213" lon="1.63488">
        <ele>435</ele>
        <time>2012-05-01T10:37:03Z</time>
      </trkpt>
      <trkpt lat="45.10193" lon="1.6349">
        <ele>440</ele>
        <time>2012-05-01T10:37:18Z</time>
      </trkpt>
      <trkpt lat="45.10184" lon="1.63493">
        <ele>440</ele>
        <time>2012-05-01T10:37:24Z</time>
      </trkpt>
      <trkpt lat="45.10179" lon="1.63495">
        <ele>439</ele>
        <time>2012-05-01T10:37:28Z</time>
      </trkpt>
      <trkpt lat="45.10169" lon="1.63497">
        <ele>438</ele>
        <time>2012-05-01T10:37:36Z</time>
      </trkpt>
      <trkpt lat="45.10165" lon="1.63498">
        <ele>438</ele>
        <time>2012-05-01T10:37:39Z</time>
      </trkpt>
      <trkpt lat="45.1016" lon="1.635">
        <ele>438</ele>
        <time>2012-05-01T10:37:42Z</time>
      </trkpt>
      <trkpt lat="45.10154" lon="1.63501">
        <ele>438</ele>
        <time>2012-05-01T10:37:46Z</time>
      </trkpt>
      <trkpt lat="45.10149" lon="1.63502">
        <ele>438</ele>
        <time>2012-05-01T10:37:51Z</time>
      </trkpt>
      <trkpt lat="45.1014" lon="1.63509">
        <ele>439</ele>
        <time>2012-05-01T10:37:57Z</time>
      </trkpt>
      <trkpt lat="45.10119" lon="1.63517">
        <ele>439</ele>
        <time>2012-05-01T10:38:13Z</time>
      </trkpt>
      <trkpt lat="45.10114" lon="1.6352">
        <ele>440</ele>
        <time>2012-05-01T10:38:16Z</time>
      </trkpt>
      <trkpt lat="45.10104" lon="1.63526">
        <ele>440</ele>
        <time>2012-05-01T10:38:23Z</time>
      </trkpt>
      <trkpt lat="45.10085" lon="1.63533">
        <ele>439</ele>
        <time>2012-05-01T10:38:37Z</time>
      </trkpt>
      <trkpt lat="45.1008" lon="1.63536">
        <ele>440</ele>
        <time>2012-05-01T10:38:41Z</time>
      </trkpt>
      <trkpt lat="45.10075" lon="1.63539">
        <ele>440</ele>
        <time>2012-05-01T10:38:45Z</time>
      </trkpt>
      <trkpt lat="45.10069" lon="1.6354">
        <ele>441</ele>
        <time>2012-05-01T10:38:50Z</time>
      </trkpt>
      <trkpt lat="45.10058" lon="1.63541">
        <ele>441</ele>
        <time>2012-05-01T10:38:57Z</time>
      </trkpt>
      <trkpt lat="45.10031" lon="1.6354">
        <ele>438</ele>
        <time>2012-05-01T10:39:18Z</time>
      </trkpt>
      <trkpt lat="45.09985" lon="1.63564">
        <ele>441</ele>
        <time>2012-05-01T10:39:50Z</time>
      </trkpt>
      <trkpt lat="45.09967" lon="1.63572">
        <ele>440</ele>
        <time>2012-05-01T10:40:04Z</time>
      </trkpt>
      <trkpt lat="45.09962" lon="1.63575">
        <ele>440</ele>
        <time>2012-05-01T10:40:09Z</time>
      </trkpt>
      <trkpt lat="45.09957" lon="1.63581">
        <ele>441</ele>
        <time>2012-05-01T10:40:15Z</time>
      </trkpt>
      <trkpt lat="45.09954" lon="1.63589">
        <ele>441</ele>
        <time>2012-05-01T10:40:20Z</time>
      </trkpt>
      <trkpt lat="45.09942" lon="1.63613">
        <ele>440</ele>
        <time>2012-05-01T10:40:34Z</time>
      </trkpt>
      <trkpt lat="45.09936" lon="1.63625">
        <ele>441</ele>
        <time>2012-05-01T10:40:40Z</time>
      </trkpt>
      <trkpt lat="45.09913" lon="1.63648">
        <ele>442</ele>
        <time>2012-05-01T10:40:57Z</time>
      </trkpt>
      <trkpt lat="45.099" lon="1.63661">
        <ele>442</ele>
        <time>2012-05-01T10:41:11Z</time>
      </trkpt>
      <trkpt lat="45.09868" lon="1.63692">
        <ele>443</ele>
        <time>2012-05-01T10:41:37Z</time>
      </trkpt>
      <trkpt lat="45.09855" lon="1.63699">
        <ele>444</ele>
        <time>2012-05-01T10:41:47Z</time>
      </trkpt>
      <trkpt lat="45.0983" lon="1.63709">
        <ele>443</ele>
        <time>2012-05-01T10:42:03Z</time>
      </trkpt>
      <trkpt lat="45.09819" lon="1.63711">
        <ele>444</ele>
        <time>2012-05-01T10:42:10Z</time>
      </trkpt>
      <trkpt lat="45.09814" lon="1.63711">
        <ele>444</ele>
        <time>2012-05-01T10:42:14Z</time>
      </trkpt>
      <trkpt lat="45.09809" lon="1.63712">
        <ele>443</ele>
        <time>2012-05-01T10:42:18Z</time>
      </trkpt>
      <trkpt lat="45.09798" lon="1.63712">
        <ele>442</ele>
        <time>2012-05-01T10:42:26Z</time>
      </trkpt>
      <trkpt lat="45.09793" lon="1.63714">
        <ele>443</ele>
        <time>2012-05-01T10:42:30Z</time>
      </trkpt>
      <trkpt lat="45.09777" lon="1.63717">
        <ele>445</ele>
        <time>2012-05-01T10:42:46Z</time>
      </trkpt>
      <trkpt lat="45.09769" lon="1.63722">
        <ele>444</ele>
        <time>2012-05-01T10:42:52Z</time>
      </trkpt>
      <trkpt lat="45.09758" lon="1.63728">
        <ele>446</ele>
        <time>2012-05-01T10:43:01Z</time>
      </trkpt>
      <trkpt lat="45.09739" lon="1.63737">
        <ele>445</ele>
        <time>2012-05-01T10:43:21Z</time>
      </trkpt>
      <trkpt lat="45.09729" lon="1.63737">
        <ele>445</ele>
        <time>2012-05-01T10:43:27Z</time>
      </trkpt>
      <trkpt lat="45.09678" lon="1.63734">
        <ele>451</ele>
        <time>2012-05-01T10:44:00Z</time>
      </trkpt>
      <trkpt lat="45.09645" lon="1.63718">
        <ele>456</ele>
        <time>2012-05-01T10:44:27Z</time>
      </trkpt>
      <trkpt lat="45.09626" lon="1.6371">
        <ele>454</ele>
        <time>2012-05-01T10:44:36Z</time>
      </trkpt>
      <trkpt lat="45.09617" lon="1.63709">
        <ele>454</ele>
        <time>2012-05-01T10:44:39Z</time>
      </trkpt>
      <trkpt lat="45.09606" lon="1.63708">
        <ele>453</ele>
        <time>2012-05-01T10:44:43Z</time>
      </trkpt>
      <trkpt lat="45.09596" lon="1.63705">
        <ele>454</ele>
        <time>2012-05-01T10:44:47Z</time>
      </trkpt>
      <trkpt lat="45.09587" lon="1.637">
        <ele>454</ele>
        <time>2012-05-01T10:44:52Z</time>
      </trkpt>
      <trkpt lat="45.09576" lon="1.63693">
        <ele>455</ele>
        <time>2012-05-01T10:45:03Z</time>
      </trkpt>
      <trkpt lat="45.09566" lon="1.63693">
        <ele>454</ele>
        <time>2012-05-01T10:45:11Z</time>
      </trkpt>
      <trkpt lat="45.09537" lon="1.63683">
        <ele>458</ele>
        <time>2012-05-01T10:45:31Z</time>
      </trkpt>
      <trkpt lat="45.0948" lon="1.63661">
        <ele>459</ele>
        <time>2012-05-01T10:46:06Z</time>
      </trkpt>
      <trkpt lat="45.09469" lon="1.63658">
        <ele>459</ele>
        <time>2012-05-01T10:46:13Z</time>
      </trkpt>
      <trkpt lat="45.0946" lon="1.63655">
        <ele>459</ele>
        <time>2012-05-01T10:46:18Z</time>
      </trkpt>
      <trkpt lat="45.0945" lon="1.63655">
        <ele>462</ele>
        <time>2012-05-01T10:46:24Z</time>
      </trkpt>
      <trkpt lat="45.09441" lon="1.63653">
        <ele>463</ele>
        <time>2012-05-01T10:46:28Z</time>
      </trkpt>
      <trkpt lat="45.09408" lon="1.63654">
        <ele>470</ele>
        <time>2012-05-01T10:46:42Z</time>
      </trkpt>
      <trkpt lat="45.09399" lon="1.63651">
        <ele>470</ele>
        <time>2012-05-01T10:46:45Z</time>
      </trkpt>
      <trkpt lat="45.09378" lon="1.63647">
        <ele>470</ele>
        <time>2012-05-01T10:46:53Z</time>
      </trkpt>
      <trkpt lat="45.09368" lon="1.63644">
        <ele>468</ele>
        <time>2012-05-01T10:46:56Z</time>
      </trkpt>
      <trkpt lat="45.09335" lon="1.6365">
        <ele>466</ele>
        <time>2012-05-01T10:47:06Z</time>
      </trkpt>
      <trkpt lat="45.09274" lon="1.63668">
        <ele>455</ele>
        <time>2012-05-01T10:47:25Z</time>
      </trkpt>
      <trkpt lat="45.09252" lon="1.63673">
        <ele>455</ele>
        <time>2012-05-01T10:47:31Z</time>
      </trkpt>
      <trkpt lat="45.09143" lon="1.6372">
        <ele>473</ele>
        <time>2012-05-01T10:48:05Z</time>
      </trkpt>
      <trkpt lat="45.09131" lon="1.63723">
        <ele>474</ele>
        <time>2012-05-01T10:48:09Z</time>
      </trkpt>
      <trkpt lat="45.09124" lon="1.63725">
        <ele>474</ele>
        <time>2012-05-01T10:48:11Z</time>
      </trkpt>
      <trkpt lat="45.09068" lon="1.63741">
        <ele>477</ele>
        <time>2012-05-01T10:48:36Z</time>
      </trkpt>
      <trkpt lat="45.09053" lon="1.6374">
        <ele>479</ele>
        <time>2012-05-01T10:48:48Z</time>
      </trkpt>
      <trkpt lat="45.09047" lon="1.63742">
        <ele>479</ele>
        <time>2012-05-01T10:48:51Z</time>
      </trkpt>
      <trkpt lat="45.09038" lon="1.63744">
        <ele>479</ele>
        <time>2012-05-01T10:48:55Z</time>
      </trkpt>
      <trkpt lat="45.09019" lon="1.63747">
        <ele>478</ele>
        <time>2012-05-01T10:49:02Z</time>
      </trkpt>
      <trkpt lat="45.08979" lon="1.63759">
        <ele>482</ele>
        <time>2012-05-01T10:49:14Z</time>
      </trkpt>
      <trkpt lat="45.0897" lon="1.63768">
        <ele>482</ele>
        <time>2012-05-01T10:49:18Z</time>
      </trkpt>
      <trkpt lat="45.08963" lon="1.6378">
        <ele>482</ele>
        <time>2012-05-01T10:49:22Z</time>
      </trkpt>
      <trkpt lat="45.08958" lon="1.63793">
        <ele>482</ele>
        <time>2012-05-01T10:49:26Z</time>
      </trkpt>
      <trkpt lat="45.08932" lon="1.63843">
        <ele>483</ele>
        <time>2012-05-01T10:49:45Z</time>
      </trkpt>
      <trkpt lat="45.08925" lon="1.63854">
        <ele>485</ele>
        <time>2012-05-01T10:49:49Z</time>
      </trkpt>
      <trkpt lat="45.08894" lon="1.63932">
        <ele>482</ele>
        <time>2012-05-01T10:50:23Z</time>
      </trkpt>
      <trkpt lat="45.08875" lon="1.63963">
        <ele>482</ele>
        <time>2012-05-01T10:50:43Z</time>
      </trkpt>
      <trkpt lat="45.08846" lon="1.63989">
        <ele>488</ele>
        <time>2012-05-01T10:51:09Z</time>
      </trkpt>
      <trkpt lat="45.08838" lon="1.63996">
        <ele>486</ele>
        <time>2012-05-01T10:51:19Z</time>
      </trkpt>
      <trkpt lat="45.0883" lon="1.64001">
        <ele>486</ele>
        <time>2012-05-01T10:51:26Z</time>
      </trkpt>
      <trkpt lat="45.08821" lon="1.64005">
        <ele>487</ele>
        <time>2012-05-01T10:51:35Z</time>
      </trkpt>
      <trkpt lat="45.08815" lon="1.64007">
        <ele>488</ele>
        <time>2012-05-01T10:51:43Z</time>
      </trkpt>
      <trkpt lat="45.08806" lon="1.64009">
        <ele>488</ele>
        <time>2012-05-01T10:51:49Z</time>
      </trkpt>
      <trkpt lat="45.08803" lon="1.64007">
        <ele>484</ele>
        <time>2012-05-01T10:52:04Z</time>
      </trkpt>
      <trkpt lat="45.08793" lon="1.64011">
        <ele>487</ele>
        <time>2012-05-01T10:52:19Z</time>
      </trkpt>
      <trkpt lat="45.08786" lon="1.6401">
        <ele>486</ele>
        <time>2012-05-01T10:52:24Z</time>
      </trkpt>
      <trkpt lat="45.08777" lon="1.64015">
        <ele>483</ele>
        <time>2012-05-01T10:52:31Z</time>
      </trkpt>
      <trkpt lat="45.08768" lon="1.64026">
        <ele>482</ele>
        <time>2012-05-01T10:52:37Z</time>
      </trkpt>
      <trkpt lat="45.08764" lon="1.64029">
        <ele>482</ele>
        <time>2012-05-01T10:52:40Z</time>
      </trkpt>
      <trkpt lat="45.08759" lon="1.64032">
        <ele>483</ele>
        <time>2012-05-01T10:52:43Z</time>
      </trkpt>
      <trkpt lat="45.08753" lon="1.64034">
        <ele>483</ele>
        <time>2012-05-01T10:52:45Z</time>
      </trkpt>
      <trkpt lat="45.08737" lon="1.64042">
        <ele>481</ele>
        <time>2012-05-01T10:52:55Z</time>
      </trkpt>
      <trkpt lat="45.08733" lon="1.64045">
        <ele>482</ele>
        <time>2012-05-01T10:52:58Z</time>
      </trkpt>
      <trkpt lat="45.08729" lon="1.64049">
        <ele>481</ele>
        <time>2012-05-01T10:53:01Z</time>
      </trkpt>
      <trkpt lat="45.08718" lon="1.64061">
        <ele>481</ele>
        <time>2012-05-01T10:53:09Z</time>
      </trkpt>
      <trkpt lat="45.08698" lon="1.6409">
        <ele>484</ele>
        <time>2012-05-01T10:53:23Z</time>
      </trkpt>
      <trkpt lat="45.0869" lon="1.64101">
        <ele>483</ele>
        <time>2012-05-01T10:53:29Z</time>
      </trkpt>
      <trkpt lat="45.08687" lon="1.64106">
        <ele>483</ele>
        <time>2012-05-01T10:53:32Z</time>
      </trkpt>
      <trkpt lat="45.08684" lon="1.64112">
        <ele>484</ele>
        <time>2012-05-01T10:53:56Z</time>
      </trkpt>
      <trkpt lat="45.08679" lon="1.64122">
        <ele>484</ele>
        <time>2012-05-01T10:54:06Z</time>
      </trkpt>
      <trkpt lat="45.08661" lon="1.64156">
        <ele>480</ele>
        <time>2012-05-01T10:54:29Z</time>
      </trkpt>
      <trkpt lat="45.08656" lon="1.64168">
        <ele>480</ele>
        <time>2012-05-01T10:54:34Z</time>
      </trkpt>
      <trkpt lat="45.08652" lon="1.6418">
        <ele>479</ele>
        <time>2012-05-01T10:54:39Z</time>
      </trkpt>
      <trkpt lat="45.08648" lon="1.64188">
        <ele>478</ele>
        <time>2012-05-01T10:54:43Z</time>
      </trkpt>
      <trkpt lat="45.08643" lon="1.64201">
        <ele>478</ele>
        <time>2012-05-01T10:54:50Z</time>
      </trkpt>
      <trkpt lat="45.0864" lon="1.64208">
        <ele>478</ele>
        <time>2012-05-01T10:54:54Z</time>
      </trkpt>
      <trkpt lat="45.08634" lon="1.64224">
        <ele>477</ele>
        <time>2012-05-01T10:55:03Z</time>
      </trkpt>
      <trkpt lat="45.08631" lon="1.64232">
        <ele>476</ele>
        <time>2012-05-01T10:55:07Z</time>
      </trkpt>
      <trkpt lat="45.08621" lon="1.64257">
        <ele>476</ele>
        <time>2012-05-01T10:55:20Z</time>
      </trkpt>
      <trkpt lat="45.08615" lon="1.64271">
        <ele>477</ele>
        <time>2012-05-01T10:55:28Z</time>
      </trkpt>
      <trkpt lat="45.08603" lon="1.64296">
        <ele>475</ele>
        <time>2012-05-01T10:55:42Z</time>
      </trkpt>
      <trkpt lat="45.08597" lon="1.64306">
        <ele>475</ele>
        <time>2012-05-01T10:55:48Z</time>
      </trkpt>
      <trkpt lat="45.08591" lon="1.64319">
        <ele>474</ele>
        <time>2012-05-01T10:55:56Z</time>
      </trkpt>
      <trkpt lat="45.08587" lon="1.6433">
        <ele>475</ele>
        <time>2012-05-01T10:56:04Z</time>
      </trkpt>
      <trkpt lat="45.08575" lon="1.64355">
        <ele>471</ele>
        <time>2012-05-01T10:56:16Z</time>
      </trkpt>
      <trkpt lat="45.08569" lon="1.64367">
        <ele>471</ele>
        <time>2012-05-01T10:56:24Z</time>
      </trkpt>
      <trkpt lat="45.08554" lon="1.64403">
        <ele>465</ele>
        <time>2012-05-01T10:56:39Z</time>
      </trkpt>
      <trkpt lat="45.08534" lon="1.64457">
        <ele>471</ele>
        <time>2012-05-01T10:57:03Z</time>
      </trkpt>
      <trkpt lat="45.08528" lon="1.64468">
        <ele>471</ele>
        <time>2012-05-01T10:57:09Z</time>
      </trkpt>
      <trkpt lat="45.08525" lon="1.64481">
        <ele>471</ele>
        <time>2012-05-01T10:57:16Z</time>
      </trkpt>
      <trkpt lat="45.08519" lon="1.64494">
        <ele>471</ele>
        <time>2012-05-01T10:57:22Z</time>
      </trkpt>
      <trkpt lat="45.08516" lon="1.64508">
        <ele>471</ele>
        <time>2012-05-01T10:57:29Z</time>
      </trkpt>
      <trkpt lat="45.08504" lon="1.6453">
        <ele>471</ele>
        <time>2012-05-01T10:57:40Z</time>
      </trkpt>
      <trkpt lat="45.08488" lon="1.64548">
        <ele>473</ele>
        <time>2012-05-01T10:57:52Z</time>
      </trkpt>
      <trkpt lat="45.08471" lon="1.64562">
        <ele>471</ele>
        <time>2012-05-01T10:58:05Z</time>
      </trkpt>
      <trkpt lat="45.08447" lon="1.64581">
        <ele>471</ele>
        <time>2012-05-01T10:58:22Z</time>
      </trkpt>
      <trkpt lat="45.08433" lon="1.64586">
        <ele>473</ele>
        <time>2012-05-01T10:58:33Z</time>
      </trkpt>
      <trkpt lat="45.08429" lon="1.64591">
        <ele>473</ele>
        <time>2012-05-01T10:58:45Z</time>
      </trkpt>
      <trkpt lat="45.08424" lon="1.64591">
        <ele>473</ele>
        <time>2012-05-01T10:59:02Z</time>
      </trkpt>
      <trkpt lat="45.08419" lon="1.64592">
        <ele>474</ele>
        <time>2012-05-01T10:59:06Z</time>
      </trkpt>
      <trkpt lat="45.08409" lon="1.64597">
        <ele>473</ele>
        <time>2012-05-01T10:59:15Z</time>
      </trkpt>
      <trkpt lat="45.08405" lon="1.64599">
        <ele>473</ele>
        <time>2012-05-01T10:59:19Z</time>
      </trkpt>
      <trkpt lat="45.08378" lon="1.64614">
        <ele>471</ele>
        <time>2012-05-01T10:59:44Z</time>
      </trkpt>
      <trkpt lat="45.08369" lon="1.64623">
        <ele>473</ele>
        <time>2012-05-01T10:59:53Z</time>
      </trkpt>
      <trkpt lat="45.08362" lon="1.64633">
        <ele>474</ele>
        <time>2012-05-01T10:59:59Z</time>
      </trkpt>
      <trkpt lat="45.08356" lon="1.64644">
        <ele>474</ele>
        <time>2012-05-01T11:00:05Z</time>
      </trkpt>
      <trkpt lat="45.08347" lon="1.64668">
        <ele>476</ele>
        <time>2012-05-01T11:00:16Z</time>
      </trkpt>
      <trkpt lat="45.08345" lon="1.64684">
        <ele>476</ele>
        <time>2012-05-01T11:00:23Z</time>
      </trkpt>
      <trkpt lat="45.08344" lon="1.64697">
        <ele>478</ele>
        <time>2012-05-01T11:00:29Z</time>
      </trkpt>
      <trkpt lat="45.08344" lon="1.64712">
        <ele>479</ele>
        <time>2012-05-01T11:00:36Z</time>
      </trkpt>
      <trkpt lat="45.08343" lon="1.64757">
        <ele>475</ele>
        <time>2012-05-01T11:00:54Z</time>
      </trkpt>
      <trkpt lat="45.08342" lon="1.64769">
        <ele>475</ele>
        <time>2012-05-01T11:00:59Z</time>
      </trkpt>
      <trkpt lat="45.08342" lon="1.64785">
        <ele>474</ele>
        <time>2012-05-01T11:01:05Z</time>
      </trkpt>
      <trkpt lat="45.08342" lon="1.6481">
        <ele>473</ele>
        <time>2012-05-01T11:01:16Z</time>
      </trkpt>
      <trkpt lat="45.08344" lon="1.64852">
        <ele>465</ele>
        <time>2012-05-01T11:01:41Z</time>
      </trkpt>
      <trkpt lat="45.0835" lon="1.6491">
        <ele>461</ele>
        <time>2012-05-01T11:02:06Z</time>
      </trkpt>
      <trkpt lat="45.08351" lon="1.64917">
        <ele>461</ele>
        <time>2012-05-01T11:02:09Z</time>
      </trkpt>
      <trkpt lat="45.08354" lon="1.64946">
        <ele>463</ele>
        <time>2012-05-01T11:02:24Z</time>
      </trkpt>
      <trkpt lat="45.08356" lon="1.6496">
        <ele>463</ele>
        <time>2012-05-01T11:02:31Z</time>
      </trkpt>
      <trkpt lat="45.08357" lon="1.64967">
        <ele>462</ele>
        <time>2012-05-01T11:02:34Z</time>
      </trkpt>
      <trkpt lat="45.08357" lon="1.64981">
        <ele>462</ele>
        <time>2012-05-01T11:02:41Z</time>
      </trkpt>
      <trkpt lat="45.08359" lon="1.64995">
        <ele>463</ele>
        <time>2012-05-01T11:02:46Z</time>
      </trkpt>
      <trkpt lat="45.08367" lon="1.65059">
        <ele>469</ele>
        <time>2012-05-01T11:03:13Z</time>
      </trkpt>
      <trkpt lat="45.08367" lon="1.65074">
        <ele>468</ele>
        <time>2012-05-01T11:03:20Z</time>
      </trkpt>
      <trkpt lat="45.08368" lon="1.65086">
        <ele>467</ele>
        <time>2012-05-01T11:03:25Z</time>
      </trkpt>
      <trkpt lat="45.08374" lon="1.65129">
        <ele>467</ele>
        <time>2012-05-01T11:03:45Z</time>
      </trkpt>
      <trkpt lat="45.08376" lon="1.65147">
        <ele>465</ele>
        <time>2012-05-01T11:03:53Z</time>
      </trkpt>
      <trkpt lat="45.08378" lon="1.65163">
        <ele>466</ele>
        <time>2012-05-01T11:04:00Z</time>
      </trkpt>
      <trkpt lat="45.08379" lon="1.65177">
        <ele>468</ele>
        <time>2012-05-01T11:04:06Z</time>
      </trkpt>
      <trkpt lat="45.0838" lon="1.65183">
        <ele>467</ele>
        <time>2012-05-01T11:04:09Z</time>
      </trkpt>
      <trkpt lat="45.08384" lon="1.65211">
        <ele>468</ele>
        <time>2012-05-01T11:04:24Z</time>
      </trkpt>
      <trkpt lat="45.08383" lon="1.65246">
        <ele>465</ele>
        <time>2012-05-01T11:04:38Z</time>
      </trkpt>
      <trkpt lat="45.08379" lon="1.65274">
        <ele>464</ele>
        <time>2012-05-01T11:04:52Z</time>
      </trkpt>
      <trkpt lat="45.08376" lon="1.65295">
        <ele>466</ele>
        <time>2012-05-01T11:05:02Z</time>
      </trkpt>
      <trkpt lat="45.08374" lon="1.65302">
        <ele>465</ele>
        <time>2012-05-01T11:05:05Z</time>
      </trkpt>
      <trkpt lat="45.08372" lon="1.65308">
        <ele>465</ele>
        <time>2012-05-01T11:05:08Z</time>
      </trkpt>
      <trkpt lat="45.08362" lon="1.65317">
        <ele>463</ele>
        <time>2012-05-01T11:05:15Z</time>
      </trkpt>
      <trkpt lat="45.08358" lon="1.6532">
        <ele>464</ele>
        <time>2012-05-01T11:05:24Z</time>
      </trkpt>
      <trkpt lat="45.08336" lon="1.65308">
        <ele>463</ele>
        <time>2012-05-01T11:05:40Z</time>
      </trkpt>
      <trkpt lat="45.08331" lon="1.65305">
        <ele>464</ele>
        <time>2012-05-01T11:05:43Z</time>
      </trkpt>
      <trkpt lat="45.0832" lon="1.65301">
        <ele>464</ele>
        <time>2012-05-01T11:05:50Z</time>
      </trkpt>
      <trkpt lat="45.08315" lon="1.65302">
        <ele>464</ele>
        <time>2012-05-01T11:05:54Z</time>
      </trkpt>
      <trkpt lat="45.08311" lon="1.65302">
        <ele>464</ele>
        <time>2012-05-01T11:05:57Z</time>
      </trkpt>
      <trkpt lat="45.08296" lon="1.65296">
        <ele>462</ele>
        <time>2012-05-01T11:06:07Z</time>
      </trkpt>
      <trkpt lat="45.08246" lon="1.65275">
        <ele>462</ele>
        <time>2012-05-01T11:06:39Z</time>
      </trkpt>
      <trkpt lat="45.08235" lon="1.65274">
        <ele>462</ele>
        <time>2012-05-01T11:06:47Z</time>
      </trkpt>
      <trkpt lat="45.0823" lon="1.65275">
        <ele>462</ele>
        <time>2012-05-01T11:06:51Z</time>
      </trkpt>
      <trkpt lat="45.08225" lon="1.65274">
        <ele>464</ele>
        <time>2012-05-01T11:06:59Z</time>
      </trkpt>
      <trkpt lat="45.08223" lon="1.65276">
        <ele>460</ele>
        <time>2012-05-01T11:08:34Z</time>
      </trkpt>
      <trkpt lat="45.0822" lon="1.65284">
        <ele>458</ele>
        <time>2012-05-01T11:10:46Z</time>
      </trkpt>
      <trkpt lat="45.08222" lon="1.65285">
        <ele>458</ele>
        <time>2012-05-01T11:11:08Z</time>
      </trkpt>
      <trkpt lat="45.08225" lon="1.6528">
        <ele>458</ele>
        <time>2012-05-01T11:11:39Z</time>
      </trkpt>
      <trkpt lat="45.08223" lon="1.65277">
        <ele>458</ele>
        <time>2012-05-01T11:11:45Z</time>
      </trkpt>
      <trkpt lat="45.0822" lon="1.65271">
        <ele>457</ele>
        <time>2012-05-01T11:12:00Z</time>
      </trkpt>
      <trkpt lat="45.06291" lon="1.65064">
        <ele>223</ele>
        <time>2012-05-01T12:59:03Z</time>
      </trkpt>
      <trkpt lat="45.06293" lon="1.6506">
        <ele>222</ele>
        <time>2012-05-01T12:59:06Z</time>
      </trkpt>
      <trkpt lat="45.06305" lon="1.65028">
        <ele>218</ele>
        <time>2012-05-01T12:59:23Z</time>
      </trkpt>
      <trkpt lat="45.06312" lon="1.65015">
        <ele>218</ele>
        <time>2012-05-01T12:59:31Z</time>
      </trkpt>
      <trkpt lat="45.06316" lon="1.65008">
        <ele>216</ele>
        <time>2012-05-01T12:59:36Z</time>
      </trkpt>
      <trkpt lat="45.06319" lon="1.65001">
        <ele>216</ele>
        <time>2012-05-01T12:59:40Z</time>
      </trkpt>
      <trkpt lat="45.06322" lon="1.64996">
        <ele>216</ele>
        <time>2012-05-01T12:59:44Z</time>
      </trkpt>
      <trkpt lat="45.06366" lon="1.64951">
        <ele>209</ele>
        <time>2012-05-01T13:00:21Z</time>
      </trkpt>
      <trkpt lat="45.06381" lon="1.64933">
        <ele>208</ele>
        <time>2012-05-01T13:00:33Z</time>
      </trkpt>
      <trkpt lat="45.06407" lon="1.6489">
        <ele>200</ele>
        <time>2012-05-01T13:00:56Z</time>
      </trkpt>
      <trkpt lat="45.06414" lon="1.6488">
        <ele>201</ele>
        <time>2012-05-01T13:01:03Z</time>
      </trkpt>
      <trkpt lat="45.0642" lon="1.64869">
        <ele>200</ele>
        <time>2012-05-01T13:01:09Z</time>
      </trkpt>
      <trkpt lat="45.06425" lon="1.64858">
        <ele>199</ele>
        <time>2012-05-01T13:01:15Z</time>
      </trkpt>
      <trkpt lat="45.06424" lon="1.6485">
        <ele>199</ele>
        <time>2012-05-01T13:01:17Z</time>
      </trkpt>
      <trkpt lat="45.06417" lon="1.64825">
        <ele>199</ele>
        <time>2012-05-01T13:01:25Z</time>
      </trkpt>
      <trkpt lat="45.06413" lon="1.64794">
        <ele>202</ele>
        <time>2012-05-01T13:01:39Z</time>
      </trkpt>
      <trkpt lat="45.06416" lon="1.64768">
        <ele>205</ele>
        <time>2012-05-01T13:01:49Z</time>
      </trkpt>
      <trkpt lat="45.06417" lon="1.64758">
        <ele>205</ele>
        <time>2012-05-01T13:02:01Z</time>
      </trkpt>
      <trkpt lat="45.06421" lon="1.64772">
        <ele>204</ele>
        <time>2012-05-01T13:02:13Z</time>
      </trkpt>
      <trkpt lat="45.0642" lon="1.64777">
        <ele>204</ele>
        <time>2012-05-01T13:02:21Z</time>
      </trkpt>
      <trkpt lat="45.06419" lon="1.64774">
        <ele>204</ele>
        <time>2012-05-01T13:02:54Z</time>
      </trkpt>
      <trkpt lat="45.06421" lon="1.64775">
        <ele>200</ele>
        <time>2012-05-01T13:04:00Z</time>
      </trkpt>
      <trkpt lat="45.06422" lon="1.64759">
        <ele>200</ele>
        <time>2012-05-01T13:04:21Z</time>
      </trkpt>
      <trkpt lat="45.0642" lon="1.64718">
        <ele>206</ele>
        <time>2012-05-01T13:04:41Z</time>
      </trkpt>
      <trkpt lat="45.0642" lon="1.64703">
        <ele>206</ele>
        <time>2012-05-01T13:04:48Z</time>
      </trkpt>
      <trkpt lat="45.06426" lon="1.64684">
        <ele>208</ele>
        <time>2012-05-01T13:05:00Z</time>
      </trkpt>
      <trkpt lat="45.06436" lon="1.64659">
        <ele>206</ele>
        <time>2012-05-01T13:05:14Z</time>
      </trkpt>
      <trkpt lat="45.06446" lon="1.64639">
        <ele>211</ele>
        <time>2012-05-01T13:05:32Z</time>
      </trkpt>
      <trkpt lat="45.06452" lon="1.64611">
        <ele>206</ele>
        <time>2012-05-01T13:05:48Z</time>
      </trkpt>
      <trkpt lat="45.06464" lon="1.64551">
        <ele>213</ele>
        <time>2012-05-01T13:06:22Z</time>
      </trkpt>
      <trkpt lat="45.06496" lon="1.64492">
        <ele>221</ele>
        <time>2012-05-01T13:06:59Z</time>
      </trkpt>
      <trkpt lat="45.06503" lon="1.64482">
        <ele>224</ele>
        <time>2012-05-01T13:07:06Z</time>
      </trkpt>
      <trkpt lat="45.0651" lon="1.64469">
        <ele>225</ele>
        <time>2012-05-01T13:07:16Z</time>
      </trkpt>
      <trkpt lat="45.0653" lon="1.64424">
        <ele>237</ele>
        <time>2012-05-01T13:07:47Z</time>
      </trkpt>
      <trkpt lat="45.06545" lon="1.64404">
        <ele>237</ele>
        <time>2012-05-01T13:08:02Z</time>
      </trkpt>
      <trkpt lat="45.06575" lon="1.64371">
        <ele>243</ele>
        <time>2012-05-01T13:08:32Z</time>
      </trkpt>
      <trkpt lat="45.06591" lon="1.64355">
        <ele>243</ele>
        <time>2012-05-01T13:08:49Z</time>
      </trkpt>
      <trkpt lat="45.06601" lon="1.64346">
        <ele>247</ele>
        <time>2012-05-01T13:09:04Z</time>
      </trkpt>
      <trkpt lat="45.06617" lon="1.64329">
        <ele>242</ele>
        <time>2012-05-01T13:09:22Z</time>
      </trkpt>
      <trkpt lat="45.06626" lon="1.6432">
        <ele>243</ele>
        <time>2012-05-01T13:09:33Z</time>
      </trkpt>
      <trkpt lat="45.06662" lon="1.64276">
        <ele>256</ele>
        <time>2012-05-01T13:10:06Z</time>
      </trkpt>
      <trkpt lat="45.06672" lon="1.64257">
        <ele>258</ele>
        <time>2012-05-01T13:10:18Z</time>
      </trkpt>
      <trkpt lat="45.06679" lon="1.6423">
        <ele>258</ele>
        <time>2012-05-01T13:10:32Z</time>
      </trkpt>
      <trkpt lat="45.06684" lon="1.64218">
        <ele>259</ele>
        <time>2012-05-01T13:10:39Z</time>
      </trkpt>
      <trkpt lat="45.0669" lon="1.64209">
        <ele>259</ele>
        <time>2012-05-01T13:10:48Z</time>
      </trkpt>
      <trkpt lat="45.06694" lon="1.64193">
        <ele>257</ele>
        <time>2012-05-01T13:10:58Z</time>
      </trkpt>
      <trkpt lat="45.06698" lon="1.64178">
        <ele>258</ele>
        <time>2012-05-01T13:11:06Z</time>
      </trkpt>
      <trkpt lat="45.06707" lon="1.64154">
        <ele>256</ele>
        <time>2012-05-01T13:11:20Z</time>
      </trkpt>
      <trkpt lat="45.06713" lon="1.64143">
        <ele>257</ele>
        <time>2012-05-01T13:11:32Z</time>
      </trkpt>
      <trkpt lat="45.06721" lon="1.64134">
        <ele>254</ele>
        <time>2012-05-01T13:11:41Z</time>
      </trkpt>
      <trkpt lat="45.06722" lon="1.6412">
        <ele>252</ele>
        <time>2012-05-01T13:11:53Z</time>
      </trkpt>
      <trkpt lat="45.06719" lon="1.6409">
        <ele>253</ele>
        <time>2012-05-01T13:12:09Z</time>
      </trkpt>
      <trkpt lat="45.06721" lon="1.64033">
        <ele>266</ele>
        <time>2012-05-01T13:12:40Z</time>
      </trkpt>
      <trkpt lat="45.06733" lon="1.63992">
        <ele>286</ele>
        <time>2012-05-01T13:13:16Z</time>
      </trkpt>
      <trkpt lat="45.06744" lon="1.63973">
        <ele>288</ele>
        <time>2012-05-01T13:13:34Z</time>
      </trkpt>
      <trkpt lat="45.06746" lon="1.6396">
        <ele>288</ele>
        <time>2012-05-01T13:13:39Z</time>
      </trkpt>
      <trkpt lat="45.06751" lon="1.63947">
        <ele>289</ele>
        <time>2012-05-01T13:13:47Z</time>
      </trkpt>
      <trkpt lat="45.06754" lon="1.63936">
        <ele>289</ele>
        <time>2012-05-01T13:13:52Z</time>
      </trkpt>
      <trkpt lat="45.0676" lon="1.63916">
        <ele>288</ele>
        <time>2012-05-01T13:14:04Z</time>
      </trkpt>
      <trkpt lat="45.06761" lon="1.63909">
        <ele>288</ele>
        <time>2012-05-01T13:14:07Z</time>
      </trkpt>
      <trkpt lat="45.06763" lon="1.63902">
        <ele>288</ele>
        <time>2012-05-01T13:14:11Z</time>
      </trkpt>
      <trkpt lat="45.06764" lon="1.63894">
        <ele>286</ele>
        <time>2012-05-01T13:14:15Z</time>
      </trkpt>
      <trkpt lat="45.06768" lon="1.63825">
        <ele>280</ele>
        <time>2012-05-01T13:14:48Z</time>
      </trkpt>
      <trkpt lat="45.06765" lon="1.63789">
        <ele>276</ele>
        <time>2012-05-01T13:15:07Z</time>
      </trkpt>
      <trkpt lat="45.06761" lon="1.63773">
        <ele>276</ele>
        <time>2012-05-01T13:15:15Z</time>
      </trkpt>
      <trkpt lat="45.06753" lon="1.63701">
        <ele>270</ele>
        <time>2012-05-01T13:15:50Z</time>
      </trkpt>
      <trkpt lat="45.06745" lon="1.6364">
        <ele>263</ele>
        <time>2012-05-01T13:16:23Z</time>
      </trkpt>
      <trkpt lat="45.0673" lon="1.6361">
        <ele>258</ele>
        <time>2012-05-01T13:16:40Z</time>
      </trkpt>
      <trkpt lat="45.06727" lon="1.63605">
        <ele>258</ele>
        <time>2012-05-01T13:16:43Z</time>
      </trkpt>
      <trkpt lat="45.06723" lon="1.63597">
        <ele>258</ele>
        <time>2012-05-01T13:16:47Z</time>
      </trkpt>
      <trkpt lat="45.06721" lon="1.63591">
        <ele>257</ele>
        <time>2012-05-01T13:16:50Z</time>
      </trkpt>
      <trkpt lat="45.06716" lon="1.63579">
        <ele>258</ele>
        <time>2012-05-01T13:16:58Z</time>
      </trkpt>
      <trkpt lat="45.06692" lon="1.63523">
        <ele>253</ele>
        <time>2012-05-01T13:17:30Z</time>
      </trkpt>
      <trkpt lat="45.06672" lon="1.63506">
        <ele>249</ele>
        <time>2012-05-01T13:17:45Z</time>
      </trkpt>
      <trkpt lat="45.06663" lon="1.63495">
        <ele>249</ele>
        <time>2012-05-01T13:17:53Z</time>
      </trkpt>
      <trkpt lat="45.06633" lon="1.63451">
        <ele>243</ele>
        <time>2012-05-01T13:18:24Z</time>
      </trkpt>
      <trkpt lat="45.06629" lon="1.63444">
        <ele>243</ele>
        <time>2012-05-01T13:18:28Z</time>
      </trkpt>
      <trkpt lat="45.06625" lon="1.63438">
        <ele>243</ele>
        <time>2012-05-01T13:18:32Z</time>
      </trkpt>
      <trkpt lat="45.06621" lon="1.63431">
        <ele>242</ele>
        <time>2012-05-01T13:18:36Z</time>
      </trkpt>
      <trkpt lat="45.06608" lon="1.6342">
        <ele>241</ele>
        <time>2012-05-01T13:18:46Z</time>
      </trkpt>
      <trkpt lat="45.06593" lon="1.63419">
        <ele>241</ele>
        <time>2012-05-01T13:18:58Z</time>
      </trkpt>
      <trkpt lat="45.06577" lon="1.63418">
        <ele>234</ele>
        <time>2012-05-01T13:19:09Z</time>
      </trkpt>
      <trkpt lat="45.06501" lon="1.63405">
        <ele>230</ele>
        <time>2012-05-01T13:19:34Z</time>
      </trkpt>
      <trkpt lat="45.06478" lon="1.63403">
        <ele>226</ele>
        <time>2012-05-01T13:19:40Z</time>
      </trkpt>
      <trkpt lat="45.06396" lon="1.63381">
        <ele>227</ele>
        <time>2012-05-01T13:20:01Z</time>
      </trkpt>
      <trkpt lat="45.06312" lon="1.63379">
        <ele>222</ele>
        <time>2012-05-01T13:20:25Z</time>
      </trkpt>
      <trkpt lat="45.06217" lon="1.63324">
        <ele>203</ele>
        <time>2012-05-01T13:20:59Z</time>
      </trkpt>
      <trkpt lat="45.06206" lon="1.63321">
        <ele>205</ele>
        <time>2012-05-01T13:21:12Z</time>
      </trkpt>
      <trkpt lat="45.06184" lon="1.6329">
        <ele>212</ele>
        <time>2012-05-01T13:21:31Z</time>
      </trkpt>
      <trkpt lat="45.06173" lon="1.63286">
        <ele>212</ele>
        <time>2012-05-01T13:21:35Z</time>
      </trkpt>
      <trkpt lat="45.06163" lon="1.63283">
        <ele>212</ele>
        <time>2012-05-01T13:21:38Z</time>
      </trkpt>
      <trkpt lat="45.06142" lon="1.63273">
        <ele>207</ele>
        <time>2012-05-01T13:21:47Z</time>
      </trkpt>
      <trkpt lat="45.06124" lon="1.6326">
        <ele>206</ele>
        <time>2012-05-01T13:21:53Z</time>
      </trkpt>
      <trkpt lat="45.06114" lon="1.63254">
        <ele>206</ele>
        <time>2012-05-01T13:21:57Z</time>
      </trkpt>
      <trkpt lat="45.06093" lon="1.6324">
        <ele>203</ele>
        <time>2012-05-01T13:22:07Z</time>
      </trkpt>
      <trkpt lat="45.06085" lon="1.63231">
        <ele>203</ele>
        <time>2012-05-01T13:22:10Z</time>
      </trkpt>
      <trkpt lat="45.06066" lon="1.63215">
        <ele>205</ele>
        <time>2012-05-01T13:22:16Z</time>
      </trkpt>
      <trkpt lat="45.06058" lon="1.63209">
        <ele>205</ele>
        <time>2012-05-01T13:22:20Z</time>
      </trkpt>
      <trkpt lat="45.05994" lon="1.63185">
        <ele>188</ele>
        <time>2012-05-01T13:22:53Z</time>
      </trkpt>
      <trkpt lat="45.05976" lon="1.63172">
        <ele>186</ele>
        <time>2012-05-01T13:22:59Z</time>
      </trkpt>
      <trkpt lat="45.05963" lon="1.63165">
        <ele>186</ele>
        <time>2012-05-01T13:23:02Z</time>
      </trkpt>
      <trkpt lat="45.05943" lon="1.63156">
        <ele>184</ele>
        <time>2012-05-01T13:23:08Z</time>
      </trkpt>
      <trkpt lat="45.05911" lon="1.63155">
        <ele>183</ele>
        <time>2012-05-01T13:23:23Z</time>
      </trkpt>
      <trkpt lat="45.05868" lon="1.6314">
        <ele>185</ele>
        <time>2012-05-01T13:23:39Z</time>
      </trkpt>
      <trkpt lat="45.05858" lon="1.63141">
        <ele>184</ele>
        <time>2012-05-01T13:23:43Z</time>
      </trkpt>
      <trkpt lat="45.05847" lon="1.63139">
        <ele>184</ele>
        <time>2012-05-01T13:23:48Z</time>
      </trkpt>
      <trkpt lat="45.05829" lon="1.6313">
        <ele>185</ele>
        <time>2012-05-01T13:23:56Z</time>
      </trkpt>
      <trkpt lat="45.0582" lon="1.63127">
        <ele>184</ele>
        <time>2012-05-01T13:24:00Z</time>
      </trkpt>
      <trkpt lat="45.05799" lon="1.6312">
        <ele>184</ele>
        <time>2012-05-01T13:24:09Z</time>
      </trkpt>
      <trkpt lat="45.05789" lon="1.63116">
        <ele>183</ele>
        <time>2012-05-01T13:24:13Z</time>
      </trkpt>
      <trkpt lat="45.05781" lon="1.63107">
        <ele>182</ele>
        <time>2012-05-01T13:24:17Z</time>
      </trkpt>
      <trkpt lat="45.05767" lon="1.63083">
        <ele>182</ele>
        <time>2012-05-01T13:24:24Z</time>
      </trkpt>
      <trkpt lat="45.05761" lon="1.63071">
        <ele>181</ele>
        <time>2012-05-01T13:24:28Z</time>
      </trkpt>
      <trkpt lat="45.05753" lon="1.63063">
        <ele>181</ele>
        <time>2012-05-01T13:24:31Z</time>
      </trkpt>
      <trkpt lat="45.0567" lon="1.62977">
        <ele>195</ele>
        <time>2012-05-01T13:25:05Z</time>
      </trkpt>
      <trkpt lat="45.05663" lon="1.62965">
        <ele>196</ele>
        <time>2012-05-01T13:25:09Z</time>
      </trkpt>
      <trkpt lat="45.05657" lon="1.62953">
        <ele>195</ele>
        <time>2012-05-01T13:25:13Z</time>
      </trkpt>
      <trkpt lat="45.05642" lon="1.62935">
        <ele>197</ele>
        <time>2012-05-01T13:25:20Z</time>
      </trkpt>
      <trkpt lat="45.05635" lon="1.62931">
        <ele>197</ele>
        <time>2012-05-01T13:25:23Z</time>
      </trkpt>
      <trkpt lat="45.05626" lon="1.62926">
        <ele>196</ele>
        <time>2012-05-01T13:25:34Z</time>
      </trkpt>
      <trkpt lat="45.05619" lon="1.62919">
        <ele>198</ele>
        <time>2012-05-01T13:26:08Z</time>
      </trkpt>
      <trkpt lat="45.05606" lon="1.62898">
        <ele>199</ele>
        <time>2012-05-01T13:26:40Z</time>
      </trkpt>
      <trkpt lat="45.05603" lon="1.62892">
        <ele>199</ele>
        <time>2012-05-01T13:26:43Z</time>
      </trkpt>
      <trkpt lat="45.05589" lon="1.62862">
        <ele>199</ele>
        <time>2012-05-01T13:27:00Z</time>
      </trkpt>
      <trkpt lat="45.05592" lon="1.62854">
        <ele>199</ele>
        <time>2012-05-01T13:27:06Z</time>
      </trkpt>
      <trkpt lat="45.05631" lon="1.62817">
        <ele>192</ele>
        <time>2012-05-01T13:27:36Z</time>
      </trkpt>
      <trkpt lat="45.05642" lon="1.62812">
        <ele>193</ele>
        <time>2012-05-01T13:27:44Z</time>
      </trkpt>
      <trkpt lat="45.05664" lon="1.62796">
        <ele>196</ele>
        <time>2012-05-01T13:28:05Z</time>
      </trkpt>
      <trkpt lat="45.05672" lon="1.62788">
        <ele>196</ele>
        <time>2012-05-01T13:28:11Z</time>
      </trkpt>
      <trkpt lat="45.05698" lon="1.62753">
        <ele>201</ele>
        <time>2012-05-01T13:28:36Z</time>
      </trkpt>
      <trkpt lat="45.05704" lon="1.62745">
        <ele>200</ele>
        <time>2012-05-01T13:28:45Z</time>
      </trkpt>
      <trkpt lat="45.05708" lon="1.62739">
        <ele>200</ele>
        <time>2012-05-01T13:28:48Z</time>
      </trkpt>
      <trkpt lat="45.05725" lon="1.62682">
        <ele>206</ele>
        <time>2012-05-01T13:29:15Z</time>
      </trkpt>
      <trkpt lat="45.05724" lon="1.62667">
        <ele>208</ele>
        <time>2012-05-01T13:29:23Z</time>
      </trkpt>
      <trkpt lat="45.05721" lon="1.62654">
        <ele>207</ele>
        <time>2012-05-01T13:29:31Z</time>
      </trkpt>
      <trkpt lat="45.05707" lon="1.62626">
        <ele>204</ele>
        <time>2012-05-01T13:29:51Z</time>
      </trkpt>
      <trkpt lat="45.05704" lon="1.62613">
        <ele>204</ele>
        <time>2012-05-01T13:29:58Z</time>
      </trkpt>
      <trkpt lat="45.05701" lon="1.62598">
        <ele>203</ele>
        <time>2012-05-01T13:30:06Z</time>
      </trkpt>
      <trkpt lat="45.057" lon="1.62591">
        <ele>203</ele>
        <time>2012-05-01T13:30:09Z</time>
      </trkpt>
      <trkpt lat="45.05697" lon="1.62575">
        <ele>202</ele>
        <time>2012-05-01T13:30:17Z</time>
      </trkpt>
      <trkpt lat="45.05696" lon="1.6256">
        <ele>202</ele>
        <time>2012-05-01T13:30:25Z</time>
      </trkpt>
      <trkpt lat="45.05699" lon="1.62514">
        <ele>199</ele>
        <time>2012-05-01T13:30:51Z</time>
      </trkpt>
      <trkpt lat="45.05701" lon="1.62507">
        <ele>200</ele>
        <time>2012-05-01T13:30:55Z</time>
      </trkpt>
      <trkpt lat="45.05702" lon="1.62479">
        <ele>200</ele>
        <time>2012-05-01T13:31:09Z</time>
      </trkpt>
      <trkpt lat="45.05702" lon="1.62471">
        <ele>200</ele>
        <time>2012-05-01T13:31:13Z</time>
      </trkpt>
      <trkpt lat="45.057" lon="1.62456">
        <ele>200</ele>
        <time>2012-05-01T13:31:21Z</time>
      </trkpt>
      <trkpt lat="45.05699" lon="1.62448">
        <ele>201</ele>
        <time>2012-05-01T13:31:25Z</time>
      </trkpt>
      <trkpt lat="45.057" lon="1.62426">
        <ele>202</ele>
        <time>2012-05-01T13:31:39Z</time>
      </trkpt>
      <trkpt lat="45.05701" lon="1.62418">
        <ele>200</ele>
        <time>2012-05-01T13:31:46Z</time>
      </trkpt>
      <trkpt lat="45.05697" lon="1.62404">
        <ele>200</ele>
        <time>2012-05-01T13:31:54Z</time>
      </trkpt>
      <trkpt lat="45.05694" lon="1.62395">
        <ele>199</ele>
        <time>2012-05-01T13:31:59Z</time>
      </trkpt>
      <trkpt lat="45.05685" lon="1.62383">
        <ele>199</ele>
        <time>2012-05-01T13:32:09Z</time>
      </trkpt>
      <trkpt lat="45.05672" lon="1.62371">
        <ele>198</ele>
        <time>2012-05-01T13:32:19Z</time>
      </trkpt>
      <trkpt lat="45.0565" lon="1.62337">
        <ele>207</ele>
        <time>2012-05-01T13:32:43Z</time>
      </trkpt>
      <trkpt lat="45.05646" lon="1.62333">
        <ele>207</ele>
        <time>2012-05-01T13:32:47Z</time>
      </trkpt>
      <trkpt lat="45.05641" lon="1.6233">
        <ele>206</ele>
        <time>2012-05-01T13:32:52Z</time>
      </trkpt>
      <trkpt lat="45.05623" lon="1.62324">
        <ele>207</ele>
        <time>2012-05-01T13:33:06Z</time>
      </trkpt>
      <trkpt lat="45.05612" lon="1.62322">
        <ele>209</ele>
        <time>2012-05-01T13:33:14Z</time>
      </trkpt>
      <trkpt lat="45.05607" lon="1.62319">
        <ele>209</ele>
        <time>2012-05-01T13:33:18Z</time>
      </trkpt>
      <trkpt lat="45.05602" lon="1.62316">
        <ele>209</ele>
        <time>2012-05-01T13:33:22Z</time>
      </trkpt>
      <trkpt lat="45.05561" lon="1.62285">
        <ele>199</ele>
        <time>2012-05-01T13:33:53Z</time>
      </trkpt>
      <trkpt lat="45.05542" lon="1.62275">
        <ele>194</ele>
        <time>2012-05-01T13:34:06Z</time>
      </trkpt>
      <trkpt lat="45.05537" lon="1.62275">
        <ele>194</ele>
        <time>2012-05-01T13:34:10Z</time>
      </trkpt>
      <trkpt lat="45.05526" lon="1.62275">
        <ele>195</ele>
        <time>2012-05-01T13:34:17Z</time>
      </trkpt>
      <trkpt lat="45.05521" lon="1.62275">
        <ele>195</ele>
        <time>2012-05-01T13:34:21Z</time>
      </trkpt>
      <trkpt lat="45.05514" lon="1.62272">
        <ele>196</ele>
        <time>2012-05-01T13:34:28Z</time>
      </trkpt>
      <trkpt lat="45.05508" lon="1.62271">
        <ele>197</ele>
        <time>2012-05-01T13:34:32Z</time>
      </trkpt>
      <trkpt lat="45.05503" lon="1.62271">
        <ele>196</ele>
        <time>2012-05-01T13:34:36Z</time>
      </trkpt>
      <trkpt lat="45.05458" lon="1.6227">
        <ele>202</ele>
        <time>2012-05-01T13:35:06Z</time>
      </trkpt>
      <trkpt lat="45.05443" lon="1.62262">
        <ele>207</ele>
        <time>2012-05-01T13:35:18Z</time>
      </trkpt>
      <trkpt lat="45.05438" lon="1.62258">
        <ele>208</ele>
        <time>2012-05-01T13:35:22Z</time>
      </trkpt>
      <trkpt lat="45.05425" lon="1.62247">
        <ele>204</ele>
        <time>2012-05-01T13:35:37Z</time>
      </trkpt>
      <trkpt lat="45.05406" lon="1.62239">
        <ele>206</ele>
        <time>2012-05-01T13:35:49Z</time>
      </trkpt>
      <trkpt lat="45.05391" lon="1.62232">
        <ele>206</ele>
        <time>2012-05-01T13:35:59Z</time>
      </trkpt>
      <trkpt lat="45.05375" lon="1.62223">
        <ele>207</ele>
        <time>2012-05-01T13:36:10Z</time>
      </trkpt>
      <trkpt lat="45.05363" lon="1.62212">
        <ele>210</ele>
        <time>2012-05-01T13:36:19Z</time>
      </trkpt>
      <trkpt lat="45.05356" lon="1.62202">
        <ele>210</ele>
        <time>2012-05-01T13:36:27Z</time>
      </trkpt>
      <trkpt lat="45.05349" lon="1.62192">
        <ele>212</ele>
        <time>2012-05-01T13:36:36Z</time>
      </trkpt>
      <trkpt lat="45.05346" lon="1.62178">
        <ele>214</ele>
        <time>2012-05-01T13:36:47Z</time>
      </trkpt>
      <trkpt lat="45.05324" lon="1.62145">
        <ele>202</ele>
        <time>2012-05-01T13:37:11Z</time>
      </trkpt>
      <trkpt lat="45.0532" lon="1.62132">
        <ele>202</ele>
        <time>2012-05-01T13:37:18Z</time>
      </trkpt>
      <trkpt lat="45.05309" lon="1.62066">
        <ele>220</ele>
        <time>2012-05-01T13:37:49Z</time>
      </trkpt>
      <trkpt lat="45.05295" lon="1.62015">
        <ele>227</ele>
        <time>2012-05-01T13:38:19Z</time>
      </trkpt>
      <trkpt lat="45.05284" lon="1.61992">
        <ele>230</ele>
        <time>2012-05-01T13:38:35Z</time>
      </trkpt>
      <trkpt lat="45.05273" lon="1.61969">
        <ele>227</ele>
        <time>2012-05-01T13:38:53Z</time>
      </trkpt>
      <trkpt lat="45.05258" lon="1.61953">
        <ele>225</ele>
        <time>2012-05-01T13:39:07Z</time>
      </trkpt>
      <trkpt lat="45.05253" lon="1.61942">
        <ele>224</ele>
        <time>2012-05-01T13:39:14Z</time>
      </trkpt>
      <trkpt lat="45.05239" lon="1.61932">
        <ele>222</ele>
        <time>2012-05-01T13:39:25Z</time>
      </trkpt>
      <trkpt lat="45.05231" lon="1.61922">
        <ele>223</ele>
        <time>2012-05-01T13:39:33Z</time>
      </trkpt>
      <trkpt lat="45.05214" lon="1.61893">
        <ele>217</ele>
        <time>2012-05-01T13:40:08Z</time>
      </trkpt>
      <trkpt lat="45.0521" lon="1.61883">
        <ele>228</ele>
        <time>2012-05-01T13:42:09Z</time>
      </trkpt>
      <trkpt lat="45.05202" lon="1.61872">
        <ele>229</ele>
        <time>2012-05-01T13:42:26Z</time>
      </trkpt>
      <trkpt lat="45.05197" lon="1.61869">
        <ele>229</ele>
        <time>2012-05-01T13:42:38Z</time>
      </trkpt>
      <trkpt lat="45.05195" lon="1.61868">
        <ele>241</ele>
        <time>2012-05-01T13:44:15Z</time>
      </trkpt>
      <trkpt lat="45.05185" lon="1.61857">
        <ele>243</ele>
        <time>2012-05-01T13:44:55Z</time>
      </trkpt>
      <trkpt lat="45.05177" lon="1.6185">
        <ele>242</ele>
        <time>2012-05-01T13:45:03Z</time>
      </trkpt>
      <trkpt lat="45.05163" lon="1.61828">
        <ele>243</ele>
        <time>2012-05-01T13:45:19Z</time>
      </trkpt>
      <trkpt lat="45.05144" lon="1.61811">
        <ele>241</ele>
        <time>2012-05-01T13:45:41Z</time>
      </trkpt>
      <trkpt lat="45.05137" lon="1.618">
        <ele>240</ele>
        <time>2012-05-01T13:45:50Z</time>
      </trkpt>
      <trkpt lat="45.05128" lon="1.61794">
        <ele>237</ele>
        <time>2012-05-01T13:45:57Z</time>
      </trkpt>
      <trkpt lat="45.05117" lon="1.61789">
        <ele>237</ele>
        <time>2012-05-01T13:46:04Z</time>
      </trkpt>
      <trkpt lat="45.05109" lon="1.61782">
        <ele>237</ele>
        <time>2012-05-01T13:46:10Z</time>
      </trkpt>
      <trkpt lat="45.05106" lon="1.61776">
        <ele>240</ele>
        <time>2012-05-01T13:46:14Z</time>
      </trkpt>
      <trkpt lat="45.05105" lon="1.61721">
        <ele>251</ele>
        <time>2012-05-01T13:46:44Z</time>
      </trkpt>
      <trkpt lat="45.05105" lon="1.61712">
        <ele>251</ele>
        <time>2012-05-01T13:46:48Z</time>
      </trkpt>
      <trkpt lat="45.05105" lon="1.61689">
        <ele>254</ele>
        <time>2012-05-01T13:47:00Z</time>
      </trkpt>
      <trkpt lat="45.05104" lon="1.61678">
        <ele>255</ele>
        <time>2012-05-01T13:47:07Z</time>
      </trkpt>
      <trkpt lat="45.05099" lon="1.61648">
        <ele>251</ele>
        <time>2012-05-01T13:47:23Z</time>
      </trkpt>
      <trkpt lat="45.05094" lon="1.61628">
        <ele>250</ele>
        <time>2012-05-01T13:47:33Z</time>
      </trkpt>
      <trkpt lat="45.05092" lon="1.61618">
        <ele>249</ele>
        <time>2012-05-01T13:47:36Z</time>
      </trkpt>
      <trkpt lat="45.05091" lon="1.61603">
        <ele>249</ele>
        <time>2012-05-01T13:47:42Z</time>
      </trkpt>
      <trkpt lat="45.05085" lon="1.61576">
        <ele>250</ele>
        <time>2012-05-01T13:47:50Z</time>
      </trkpt>
      <trkpt lat="45.0508" lon="1.61544">
        <ele>248</ele>
        <time>2012-05-01T13:47:58Z</time>
      </trkpt>
      <trkpt lat="45.05073" lon="1.61509">
        <ele>248</ele>
        <time>2012-05-01T13:48:06Z</time>
      </trkpt>
      <trkpt lat="45.05071" lon="1.61501">
        <ele>248</ele>
        <time>2012-05-01T13:48:08Z</time>
      </trkpt>
      <trkpt lat="45.0507" lon="1.61494">
        <ele>248</ele>
        <time>2012-05-01T13:48:10Z</time>
      </trkpt>
      <trkpt lat="45.05067" lon="1.61475">
        <ele>249</ele>
        <time>2012-05-01T13:48:18Z</time>
      </trkpt>
      <trkpt lat="45.05066" lon="1.61467">
        <ele>248</ele>
        <time>2012-05-01T13:48:22Z</time>
      </trkpt>
      <trkpt lat="45.05064" lon="1.6146">
        <ele>248</ele>
        <time>2012-05-01T13:48:25Z</time>
      </trkpt>
      <trkpt lat="45.0506" lon="1.61438">
        <ele>248</ele>
        <time>2012-05-01T13:48:34Z</time>
      </trkpt>
      <trkpt lat="45.05059" lon="1.6143">
        <ele>249</ele>
        <time>2012-05-01T13:48:38Z</time>
      </trkpt>
      <trkpt lat="45.05053" lon="1.61401">
        <ele>248</ele>
        <time>2012-05-01T13:48:49Z</time>
      </trkpt>
      <trkpt lat="45.05049" lon="1.61381">
        <ele>249</ele>
        <time>2012-05-01T13:49:00Z</time>
      </trkpt>
      <trkpt lat="45.05047" lon="1.61374">
        <ele>249</ele>
        <time>2012-05-01T13:49:04Z</time>
      </trkpt>
      <trkpt lat="45.05037" lon="1.61344">
        <ele>246</ele>
        <time>2012-05-01T13:49:20Z</time>
      </trkpt>
      <trkpt lat="45.05032" lon="1.61301">
        <ele>246</ele>
        <time>2012-05-01T13:49:42Z</time>
      </trkpt>
      <trkpt lat="45.05024" lon="1.61269">
        <ele>243</ele>
        <time>2012-05-01T13:49:56Z</time>
      </trkpt>
      <trkpt lat="45.05021" lon="1.61262">
        <ele>243</ele>
        <time>2012-05-01T13:50:00Z</time>
      </trkpt>
      <trkpt lat="45.05015" lon="1.61251">
        <ele>241</ele>
        <time>2012-05-01T13:50:06Z</time>
      </trkpt>
      <trkpt lat="45.05013" lon="1.61244">
        <ele>241</ele>
        <time>2012-05-01T13:50:10Z</time>
      </trkpt>
      <trkpt lat="45.0501" lon="1.61239">
        <ele>241</ele>
        <time>2012-05-01T13:50:13Z</time>
      </trkpt>
      <trkpt lat="45.05006" lon="1.61225">
        <ele>240</ele>
        <time>2012-05-01T13:50:22Z</time>
      </trkpt>
      <trkpt lat="45.05004" lon="1.61219">
        <ele>240</ele>
        <time>2012-05-01T13:50:25Z</time>
      </trkpt>
      <trkpt lat="45.04998" lon="1.61206">
        <ele>239</ele>
        <time>2012-05-01T13:50:32Z</time>
      </trkpt>
      <trkpt lat="45.04997" lon="1.61175">
        <ele>234</ele>
        <time>2012-05-01T13:50:47Z</time>
      </trkpt>
      <trkpt lat="45.04996" lon="1.61168">
        <ele>234</ele>
        <time>2012-05-01T13:50:51Z</time>
      </trkpt>
      <trkpt lat="45.04996" lon="1.61144">
        <ele>232</ele>
        <time>2012-05-01T13:51:03Z</time>
      </trkpt>
      <trkpt lat="45.04994" lon="1.61127">
        <ele>232</ele>
        <time>2012-05-01T13:51:11Z</time>
      </trkpt>
      <trkpt lat="45.04993" lon="1.61104">
        <ele>231</ele>
        <time>2012-05-01T13:51:22Z</time>
      </trkpt>
      <trkpt lat="45.04992" lon="1.61095">
        <ele>231</ele>
        <time>2012-05-01T13:51:26Z</time>
      </trkpt>
      <trkpt lat="45.04994" lon="1.61088">
        <ele>232</ele>
        <time>2012-05-01T13:51:30Z</time>
      </trkpt>
      <trkpt lat="45.05" lon="1.61079">
        <ele>231</ele>
        <time>2012-05-01T13:51:36Z</time>
      </trkpt>
      <trkpt lat="45.05005" lon="1.61077">
        <ele>230</ele>
        <time>2012-05-01T13:51:39Z</time>
      </trkpt>
      <trkpt lat="45.05009" lon="1.61075">
        <ele>230</ele>
        <time>2012-05-01T13:51:43Z</time>
      </trkpt>
      <trkpt lat="45.05033" lon="1.61064">
        <ele>229</ele>
        <time>2012-05-01T13:51:59Z</time>
      </trkpt>
      <trkpt lat="45.05052" lon="1.61051">
        <ele>226</ele>
        <time>2012-05-01T13:52:11Z</time>
      </trkpt>
      <trkpt lat="45.05057" lon="1.61047">
        <ele>226</ele>
        <time>2012-05-01T13:52:15Z</time>
      </trkpt>
      <trkpt lat="45.05062" lon="1.61044">
        <ele>227</ele>
        <time>2012-05-01T13:52:19Z</time>
      </trkpt>
      <trkpt lat="45.05067" lon="1.61043">
        <ele>226</ele>
        <time>2012-05-01T13:52:22Z</time>
      </trkpt>
      <trkpt lat="45.05075" lon="1.61034">
        <ele>226</ele>
        <time>2012-05-01T13:52:30Z</time>
      </trkpt>
      <trkpt lat="45.0508" lon="1.61021">
        <ele>225</ele>
        <time>2012-05-01T13:52:37Z</time>
      </trkpt>
      <trkpt lat="45.05083" lon="1.61014">
        <ele>226</ele>
        <time>2012-05-01T13:52:42Z</time>
      </trkpt>
      <trkpt lat="45.05088" lon="1.61013">
        <ele>227</ele>
        <time>2012-05-01T13:52:46Z</time>
      </trkpt>
      <trkpt lat="45.05104" lon="1.61009">
        <ele>224</ele>
        <time>2012-05-01T13:52:56Z</time>
      </trkpt>
      <trkpt lat="45.05113" lon="1.61009">
        <ele>224</ele>
        <time>2012-05-01T13:53:02Z</time>
      </trkpt>
      <trkpt lat="45.05128" lon="1.60997">
        <ele>226</ele>
        <time>2012-05-01T13:53:16Z</time>
      </trkpt>
      <trkpt lat="45.05131" lon="1.60991">
        <ele>226</ele>
        <time>2012-05-01T13:53:20Z</time>
      </trkpt>
      <trkpt lat="45.05134" lon="1.60979">
        <ele>227</ele>
        <time>2012-05-01T13:53:26Z</time>
      </trkpt>
      <trkpt lat="45.0513" lon="1.60962">
        <ele>226</ele>
        <time>2012-05-01T13:53:41Z</time>
      </trkpt>
      <trkpt lat="45.05131" lon="1.60947">
        <ele>225</ele>
        <time>2012-05-01T13:53:48Z</time>
      </trkpt>
      <trkpt lat="45.05134" lon="1.6092">
        <ele>225</ele>
        <time>2012-05-01T13:54:00Z</time>
      </trkpt>
      <trkpt lat="45.05135" lon="1.60906">
        <ele>225</ele>
        <time>2012-05-01T13:54:07Z</time>
      </trkpt>
      <trkpt lat="45.05137" lon="1.60891">
        <ele>225</ele>
        <time>2012-05-01T13:54:14Z</time>
      </trkpt>
      <trkpt lat="45.0514" lon="1.60827">
        <ele>219</ele>
        <time>2012-05-01T13:54:48Z</time>
      </trkpt>
      <trkpt lat="45.05139" lon="1.60813">
        <ele>219</ele>
        <time>2012-05-01T13:54:55Z</time>
      </trkpt>
      <trkpt lat="45.05137" lon="1.60765">
        <ele>212</ele>
        <time>2012-05-01T13:55:22Z</time>
      </trkpt>
      <trkpt lat="45.05136" lon="1.60758">
        <ele>212</ele>
        <time>2012-05-01T13:55:26Z</time>
      </trkpt>
      <trkpt lat="45.05128" lon="1.60694">
        <ele>207</ele>
        <time>2012-05-01T13:55:57Z</time>
      </trkpt>
      <trkpt lat="45.05126" lon="1.60674">
        <ele>206</ele>
        <time>2012-05-01T13:56:06Z</time>
      </trkpt>
      <trkpt lat="45.05122" lon="1.60619">
        <ele>202</ele>
        <time>2012-05-01T13:56:37Z</time>
      </trkpt>
      <trkpt lat="45.05122" lon="1.60572">
        <ele>199</ele>
        <time>2012-05-01T13:56:59Z</time>
      </trkpt>
      <trkpt lat="45.0513" lon="1.6053">
        <ele>191</ele>
        <time>2012-05-01T13:57:27Z</time>
      </trkpt>
      <trkpt lat="45.05132" lon="1.60517">
        <ele>190</ele>
        <time>2012-05-01T13:57:31Z</time>
      </trkpt>
      <trkpt lat="45.05138" lon="1.60514">
        <ele>188</ele>
        <time>2012-05-01T13:57:56Z</time>
      </trkpt>
      <trkpt lat="45.05149" lon="1.60512">
        <ele>187</ele>
        <time>2012-05-01T13:58:14Z</time>
      </trkpt>
      <trkpt lat="45.05158" lon="1.60508">
        <ele>184</ele>
        <time>2012-05-01T13:58:30Z</time>
      </trkpt>
      <trkpt lat="45.05161" lon="1.60502">
        <ele>179</ele>
        <time>2012-05-01T13:58:42Z</time>
      </trkpt>
      <trkpt lat="45.05168" lon="1.60488">
        <ele>178</ele>
        <time>2012-05-01T13:58:56Z</time>
      </trkpt>
      <trkpt lat="45.05178" lon="1.60483">
        <ele>172</ele>
        <time>2012-05-01T13:59:09Z</time>
      </trkpt>
      <trkpt lat="45.05198" lon="1.60474">
        <ele>164</ele>
        <time>2012-05-01T13:59:28Z</time>
      </trkpt>
      <trkpt lat="45.05205" lon="1.60448">
        <ele>169</ele>
        <time>2012-05-01T13:59:47Z</time>
      </trkpt>
      <trkpt lat="45.0521" lon="1.60437">
        <ele>166</ele>
        <time>2012-05-01T13:59:59Z</time>
      </trkpt>
      <trkpt lat="45.05204" lon="1.60405">
        <ele>162</ele>
        <time>2012-05-01T14:00:30Z</time>
      </trkpt>
      <trkpt lat="45.05195" lon="1.60393">
        <ele>164</ele>
        <time>2012-05-01T14:01:23Z</time>
      </trkpt>
      <trkpt lat="45.05178" lon="1.60339">
        <ele>145</ele>
        <time>2012-05-01T14:02:01Z</time>
      </trkpt>
      <trkpt lat="45.05146" lon="1.60278">
        <ele>125</ele>
        <time>2012-05-01T14:02:27Z</time>
      </trkpt>
      <trkpt lat="45.05141" lon="1.60265">
        <ele>125</ele>
        <time>2012-05-01T14:02:31Z</time>
      </trkpt>
      <trkpt lat="45.05137" lon="1.60251">
        <ele>127</ele>
        <time>2012-05-01T14:02:36Z</time>
      </trkpt>
      <trkpt lat="45.05125" lon="1.60228">
        <ele>135</ele>
        <time>2012-05-01T14:02:46Z</time>
      </trkpt>
      <trkpt lat="45.05121" lon="1.60214">
        <ele>135</ele>
        <time>2012-05-01T14:02:53Z</time>
      </trkpt>
      <trkpt lat="45.05112" lon="1.60173">
        <ele>146</ele>
        <time>2012-05-01T14:03:09Z</time>
      </trkpt>
      <trkpt lat="45.05106" lon="1.6016">
        <ele>146</ele>
        <time>2012-05-01T14:03:16Z</time>
      </trkpt>
      <trkpt lat="45.05099" lon="1.60153">
        <ele>156</ele>
        <time>2012-05-01T14:03:57Z</time>
      </trkpt>
      <trkpt lat="45.05096" lon="1.60147">
        <ele>159</ele>
        <time>2012-05-01T14:04:14Z</time>
      </trkpt>
      <trkpt lat="45.05085" lon="1.60126">
        <ele>168</ele>
        <time>2012-05-01T14:04:35Z</time>
      </trkpt>
      <trkpt lat="45.05071" lon="1.60057">
        <ele>156</ele>
        <time>2012-05-01T14:05:08Z</time>
      </trkpt>
      <trkpt lat="45.05072" lon="1.60043">
        <ele>155</ele>
        <time>2012-05-01T14:05:15Z</time>
      </trkpt>
      <trkpt lat="45.05072" lon="1.60036">
        <ele>155</ele>
        <time>2012-05-01T14:05:18Z</time>
      </trkpt>
      <trkpt lat="45.05071" lon="1.60028">
        <ele>156</ele>
        <time>2012-05-01T14:05:21Z</time>
      </trkpt>
      <trkpt lat="45.05082" lon="1.59988">
        <ele>159</ele>
        <time>2012-05-01T14:05:43Z</time>
      </trkpt>
      <trkpt lat="45.05098" lon="1.59919">
        <ele>154</ele>
        <time>2012-05-01T14:06:13Z</time>
      </trkpt>
      <trkpt lat="45.05099" lon="1.59903">
        <ele>154</ele>
        <time>2012-05-01T14:06:21Z</time>
      </trkpt>
      <trkpt lat="45.051" lon="1.59861">
        <ele>157</ele>
        <time>2012-05-01T14:06:39Z</time>
      </trkpt>
      <trkpt lat="45.05106" lon="1.59849">
        <ele>157</ele>
        <time>2012-05-01T14:06:47Z</time>
      </trkpt>
      <trkpt lat="45.05111" lon="1.59837">
        <ele>155</ele>
        <time>2012-05-01T14:06:54Z</time>
      </trkpt>
      <trkpt lat="45.0512" lon="1.59828">
        <ele>156</ele>
        <time>2012-05-01T14:07:07Z</time>
      </trkpt>
      <trkpt lat="45.05129" lon="1.59825">
        <ele>156</ele>
        <time>2012-05-01T14:07:12Z</time>
      </trkpt>
      <trkpt lat="45.05169" lon="1.59815">
        <ele>148</ele>
        <time>2012-05-01T14:07:37Z</time>
      </trkpt>
      <trkpt lat="45.05177" lon="1.59808">
        <ele>148</ele>
        <time>2012-05-01T14:07:43Z</time>
      </trkpt>
      <trkpt lat="45.05183" lon="1.59799">
        <ele>149</ele>
        <time>2012-05-01T14:07:47Z</time>
      </trkpt>
      <trkpt lat="45.05189" lon="1.59763">
        <ele>154</ele>
        <time>2012-05-01T14:08:06Z</time>
      </trkpt>
      <trkpt lat="45.0519" lon="1.59748">
        <ele>154</ele>
        <time>2012-05-01T14:08:13Z</time>
      </trkpt>
      <trkpt lat="45.0519" lon="1.59738">
        <ele>154</ele>
        <time>2012-05-01T14:08:18Z</time>
      </trkpt>
      <trkpt lat="45.05189" lon="1.59727">
        <ele>154</ele>
        <time>2012-05-01T14:08:23Z</time>
      </trkpt>
      <trkpt lat="45.05191" lon="1.59712">
        <ele>154</ele>
        <time>2012-05-01T14:08:29Z</time>
      </trkpt>
      <trkpt lat="45.05191" lon="1.59699">
        <ele>154</ele>
        <time>2012-05-01T14:08:33Z</time>
      </trkpt>
      <trkpt lat="45.0519" lon="1.59688">
        <ele>154</ele>
        <time>2012-05-01T14:08:38Z</time>
      </trkpt>
      <trkpt lat="45.05188" lon="1.59681">
        <ele>155</ele>
        <time>2012-05-01T14:08:42Z</time>
      </trkpt>
      <trkpt lat="45.0519" lon="1.59666">
        <ele>157</ele>
        <time>2012-05-01T14:08:51Z</time>
      </trkpt>
      <trkpt lat="45.05191" lon="1.59652">
        <ele>156</ele>
        <time>2012-05-01T14:08:58Z</time>
      </trkpt>
      <trkpt lat="45.0518" lon="1.59647">
        <ele>153</ele>
        <time>2012-05-01T14:09:07Z</time>
      </trkpt>
      <trkpt lat="45.05161" lon="1.59652">
        <ele>150</ele>
        <time>2012-05-01T14:09:18Z</time>
      </trkpt>
      <trkpt lat="45.05143" lon="1.59665">
        <ele>152</ele>
        <time>2012-05-01T14:09:32Z</time>
      </trkpt>
      <trkpt lat="45.05132" lon="1.59667">
        <ele>157</ele>
        <time>2012-05-01T14:09:42Z</time>
      </trkpt>
      <trkpt lat="45.05121" lon="1.59667">
        <ele>157</ele>
        <time>2012-05-01T14:09:51Z</time>
      </trkpt>
      <trkpt lat="45.0511" lon="1.59665">
        <ele>155</ele>
        <time>2012-05-01T14:09:56Z</time>
      </trkpt>
      <trkpt lat="45.0509" lon="1.59661">
        <ele>154</ele>
        <time>2012-05-01T14:10:08Z</time>
      </trkpt>
      <trkpt lat="45.05072" lon="1.59663">
        <ele>151</ele>
        <time>2012-05-01T14:10:22Z</time>
      </trkpt>
      <trkpt lat="45.05061" lon="1.59663">
        <ele>150</ele>
        <time>2012-05-01T14:10:27Z</time>
      </trkpt>
      <trkpt lat="45.05035" lon="1.59664">
        <ele>152</ele>
        <time>2012-05-01T14:10:42Z</time>
      </trkpt>
      <trkpt lat="45.04981" lon="1.59666">
        <ele>162</ele>
        <time>2012-05-01T14:11:17Z</time>
      </trkpt>
      <trkpt lat="45.04971" lon="1.59668">
        <ele>163</ele>
        <time>2012-05-01T14:11:23Z</time>
      </trkpt>
      <trkpt lat="45.04962" lon="1.59666">
        <ele>160</ele>
        <time>2012-05-01T14:11:28Z</time>
      </trkpt>
      <trkpt lat="45.04952" lon="1.59669">
        <ele>159</ele>
        <time>2012-05-01T14:11:35Z</time>
      </trkpt>
      <trkpt lat="45.04941" lon="1.59668">
        <ele>160</ele>
        <time>2012-05-01T14:11:42Z</time>
      </trkpt>
      <trkpt lat="45.0493" lon="1.59665">
        <ele>157</ele>
        <time>2012-05-01T14:11:48Z</time>
      </trkpt>
      <trkpt lat="45.0492" lon="1.59662">
        <ele>156</ele>
        <time>2012-05-01T14:11:55Z</time>
      </trkpt>
      <trkpt lat="45.04915" lon="1.59661">
        <ele>156</ele>
        <time>2012-05-01T14:11:58Z</time>
      </trkpt>
      <trkpt lat="45.04899" lon="1.59659">
        <ele>159</ele>
        <time>2012-05-01T14:12:10Z</time>
      </trkpt>
      <trkpt lat="45.04894" lon="1.59658">
        <ele>158</ele>
        <time>2012-05-01T14:12:14Z</time>
      </trkpt>
      <trkpt lat="45.04879" lon="1.59656">
        <ele>157</ele>
        <time>2012-05-01T14:12:24Z</time>
      </trkpt>
      <trkpt lat="45.04873" lon="1.59657">
        <ele>158</ele>
        <time>2012-05-01T14:12:28Z</time>
      </trkpt>
      <trkpt lat="45.04867" lon="1.59656">
        <ele>158</ele>
        <time>2012-05-01T14:12:32Z</time>
      </trkpt>
      <trkpt lat="45.04861" lon="1.59654">
        <ele>158</ele>
        <time>2012-05-01T14:12:36Z</time>
      </trkpt>
      <trkpt lat="45.04857" lon="1.59652">
        <ele>159</ele>
        <time>2012-05-01T14:12:40Z</time>
      </trkpt>
      <trkpt lat="45.04853" lon="1.59647">
        <ele>158</ele>
        <time>2012-05-01T14:12:44Z</time>
      </trkpt>
      <trkpt lat="45.04857" lon="1.59634">
        <ele>155</ele>
        <time>2012-05-01T14:12:56Z</time>
      </trkpt>
      <trkpt lat="45.04867" lon="1.59597">
        <ele>154</ele>
        <time>2012-05-01T14:13:11Z</time>
      </trkpt>
      <trkpt lat="45.04875" lon="1.5957">
        <ele>151</ele>
        <time>2012-05-01T14:13:29Z</time>
      </trkpt>
      <trkpt lat="45.04879" lon="1.59555">
        <ele>152</ele>
        <time>2012-05-01T14:13:41Z</time>
      </trkpt>
      <trkpt lat="45.04888" lon="1.5953">
        <ele>160</ele>
        <time>2012-05-01T14:13:55Z</time>
      </trkpt>
      <trkpt lat="45.04914" lon="1.5951">
        <ele>177</ele>
        <time>2012-05-01T14:14:43Z</time>
      </trkpt>
      <trkpt lat="45.04966" lon="1.5948">
        <ele>189</ele>
        <time>2012-05-01T14:15:30Z</time>
      </trkpt>
      <trkpt lat="45.04979" lon="1.5948">
        <ele>189</ele>
        <time>2012-05-01T14:15:35Z</time>
      </trkpt>
      <trkpt lat="45.0502" lon="1.59461">
        <ele>193</ele>
        <time>2012-05-01T14:16:18Z</time>
      </trkpt>
      <trkpt lat="45.05042" lon="1.59463">
        <ele>197</ele>
        <time>2012-05-01T14:16:31Z</time>
      </trkpt>
      <trkpt lat="45.05053" lon="1.59463">
        <ele>198</ele>
        <time>2012-05-01T14:16:36Z</time>
      </trkpt>
      <trkpt lat="45.05064" lon="1.5946">
        <ele>198</ele>
        <time>2012-05-01T14:16:45Z</time>
      </trkpt>
      <trkpt lat="45.0509" lon="1.5943">
        <ele>195</ele>
        <time>2012-05-01T14:17:13Z</time>
      </trkpt>
      <trkpt lat="45.05098" lon="1.59422">
        <ele>196</ele>
        <time>2012-05-01T14:17:20Z</time>
      </trkpt>
      <trkpt lat="45.05122" lon="1.59391">
        <ele>209</ele>
        <time>2012-05-01T14:17:42Z</time>
      </trkpt>
      <trkpt lat="45.05123" lon="1.59378">
        <ele>213</ele>
        <time>2012-05-01T14:17:48Z</time>
      </trkpt>
      <trkpt lat="45.05141" lon="1.59336">
        <ele>215</ele>
        <time>2012-05-01T14:18:17Z</time>
      </trkpt>
      <trkpt lat="45.05154" lon="1.59292">
        <ele>210</ele>
        <time>2012-05-01T14:18:45Z</time>
      </trkpt>
      <trkpt lat="45.05161" lon="1.59282">
        <ele>212</ele>
        <time>2012-05-01T14:18:52Z</time>
      </trkpt>
      <trkpt lat="45.05175" lon="1.59258">
        <ele>213</ele>
        <time>2012-05-01T14:19:10Z</time>
      </trkpt>
      <trkpt lat="45.05191" lon="1.59244">
        <ele>219</ele>
        <time>2012-05-01T14:19:29Z</time>
      </trkpt>
      <trkpt lat="45.05199" lon="1.59235">
        <ele>219</ele>
        <time>2012-05-01T14:19:40Z</time>
      </trkpt>
      <trkpt lat="45.05206" lon="1.59225">
        <ele>219</ele>
        <time>2012-05-01T14:19:47Z</time>
      </trkpt>
      <trkpt lat="45.05216" lon="1.59198">
        <ele>217</ele>
        <time>2012-05-01T14:20:03Z</time>
      </trkpt>
      <trkpt lat="45.05221" lon="1.59183">
        <ele>216</ele>
        <time>2012-05-01T14:20:13Z</time>
      </trkpt>
      <trkpt lat="45.0523" lon="1.59153">
        <ele>222</ele>
        <time>2012-05-01T14:20:31Z</time>
      </trkpt>
      <trkpt lat="45.05233" lon="1.59118">
        <ele>223</ele>
        <time>2012-05-01T14:20:44Z</time>
      </trkpt>
      <trkpt lat="45.05232" lon="1.59103">
        <ele>226</ele>
        <time>2012-05-01T14:20:52Z</time>
      </trkpt>
      <trkpt lat="45.05244" lon="1.59037">
        <ele>242</ele>
        <time>2012-05-01T14:21:29Z</time>
      </trkpt>
      <trkpt lat="45.05241" lon="1.59023">
        <ele>243</ele>
        <time>2012-05-01T14:21:38Z</time>
      </trkpt>
      <trkpt lat="45.05236" lon="1.59015">
        <ele>248</ele>
        <time>2012-05-01T14:22:17Z</time>
      </trkpt>
      <trkpt lat="45.05239" lon="1.59013">
        <ele>245</ele>
        <time>2012-05-01T14:24:27Z</time>
      </trkpt>
      <trkpt lat="45.05231" lon="1.59005">
        <ele>245</ele>
        <time>2012-05-01T14:24:35Z</time>
      </trkpt>
      <trkpt lat="45.05229" lon="1.59013">
        <ele>245</ele>
        <time>2012-05-01T14:24:46Z</time>
      </trkpt>
      <trkpt lat="45.05227" lon="1.59016">
        <ele>243</ele>
        <time>2012-05-01T14:24:53Z</time>
      </trkpt>
      <trkpt lat="45.05231" lon="1.59019">
        <ele>243</ele>
        <time>2012-05-01T14:25:30Z</time>
      </trkpt>
      <trkpt lat="45.05234" lon="1.59015">
        <ele>245</ele>
        <time>2012-05-01T14:25:48Z</time>
      </trkpt>
      <trkpt lat="45.05237" lon="1.59009">
        <ele>245</ele>
        <time>2012-05-01T14:25:52Z</time>
      </trkpt>
      <trkpt lat="45.05246" lon="1.58994">
        <ele>247</ele>
        <time>2012-05-01T14:26:01Z</time>
      </trkpt>
      <trkpt lat="45.05249" lon="1.58988">
        <ele>247</ele>
        <time>2012-05-01T14:26:05Z</time>
      </trkpt>
      <trkpt lat="45.05252" lon="1.5898">
        <ele>246</ele>
        <time>2012-05-01T14:26:09Z</time>
      </trkpt>
      <trkpt lat="45.05255" lon="1.58967">
        <ele>247</ele>
        <time>2012-05-01T14:26:16Z</time>
      </trkpt>
      <trkpt lat="45.05257" lon="1.5896">
        <ele>246</ele>
        <time>2012-05-01T14:26:19Z</time>
      </trkpt>
      <trkpt lat="45.0526" lon="1.58953">
        <ele>246</ele>
        <time>2012-05-01T14:26:23Z</time>
      </trkpt>
      <trkpt lat="45.05263" lon="1.58945">
        <ele>245</ele>
        <time>2012-05-01T14:26:27Z</time>
      </trkpt>
      <trkpt lat="45.0527" lon="1.58934">
        <ele>244</ele>
        <time>2012-05-01T14:26:33Z</time>
      </trkpt>
      <trkpt lat="45.05275" lon="1.58924">
        <ele>244</ele>
        <time>2012-05-01T14:26:37Z</time>
      </trkpt>
      <trkpt lat="45.05287" lon="1.58897">
        <ele>243</ele>
        <time>2012-05-01T14:26:49Z</time>
      </trkpt>
      <trkpt lat="45.05292" lon="1.58884">
        <ele>244</ele>
        <time>2012-05-01T14:26:55Z</time>
      </trkpt>
      <trkpt lat="45.05294" lon="1.58876">
        <ele>243</ele>
        <time>2012-05-01T14:26:58Z</time>
      </trkpt>
      <trkpt lat="45.0531" lon="1.58845">
        <ele>243</ele>
        <time>2012-05-01T14:27:15Z</time>
      </trkpt>
      <trkpt lat="45.05336" lon="1.58796">
        <ele>246</ele>
        <time>2012-05-01T14:27:39Z</time>
      </trkpt>
      <trkpt lat="45.05341" lon="1.5879">
        <ele>245</ele>
        <time>2012-05-01T14:27:42Z</time>
      </trkpt>
      <trkpt lat="45.05343" lon="1.58785">
        <ele>245</ele>
        <time>2012-05-01T14:27:45Z</time>
      </trkpt>
      <trkpt lat="45.05346" lon="1.58778">
        <ele>245</ele>
        <time>2012-05-01T14:27:49Z</time>
      </trkpt>
      <trkpt lat="45.05349" lon="1.5877">
        <ele>245</ele>
        <time>2012-05-01T14:27:53Z</time>
      </trkpt>
      <trkpt lat="45.05355" lon="1.5875">
        <ele>244</ele>
        <time>2012-05-01T14:28:03Z</time>
      </trkpt>
      <trkpt lat="45.05355" lon="1.58742">
        <ele>244</ele>
        <time>2012-05-01T14:28:07Z</time>
      </trkpt>
      <trkpt lat="45.0535" lon="1.5871">
        <ele>240</ele>
        <time>2012-05-01T14:28:21Z</time>
      </trkpt>
      <trkpt lat="45.05344" lon="1.58682">
        <ele>242</ele>
        <time>2012-05-01T14:28:34Z</time>
      </trkpt>
      <trkpt lat="45.05342" lon="1.58611">
        <ele>252</ele>
        <time>2012-05-01T14:29:06Z</time>
      </trkpt>
      <trkpt lat="45.05344" lon="1.58595">
        <ele>255</ele>
        <time>2012-05-01T14:29:14Z</time>
      </trkpt>
      <trkpt lat="45.05344" lon="1.58581">
        <ele>256</ele>
        <time>2012-05-01T14:29:20Z</time>
      </trkpt>
      <trkpt lat="45.05345" lon="1.58574">
        <ele>256</ele>
        <time>2012-05-01T14:29:24Z</time>
      </trkpt>
      <trkpt lat="45.05346" lon="1.58564">
        <ele>256</ele>
        <time>2012-05-01T14:29:29Z</time>
      </trkpt>
      <trkpt lat="45.0535" lon="1.5853">
        <ele>260</ele>
        <time>2012-05-01T14:29:46Z</time>
      </trkpt>
      <trkpt lat="45.0535" lon="1.58516">
        <ele>260</ele>
        <time>2012-05-01T14:29:50Z</time>
      </trkpt>
      <trkpt lat="45.05352" lon="1.5851">
        <ele>260</ele>
        <time>2012-05-01T14:29:52Z</time>
      </trkpt>
      <trkpt lat="45.05356" lon="1.58498">
        <ele>262</ele>
        <time>2012-05-01T14:29:59Z</time>
      </trkpt>
      <trkpt lat="45.05357" lon="1.5849">
        <ele>262</ele>
        <time>2012-05-01T14:30:03Z</time>
      </trkpt>
      <trkpt lat="45.0537" lon="1.58428">
        <ele>270</ele>
        <time>2012-05-01T14:30:35Z</time>
      </trkpt>
      <trkpt lat="45.05382" lon="1.58391">
        <ele>278</ele>
        <time>2012-05-01T14:31:09Z</time>
      </trkpt>
      <trkpt lat="45.05387" lon="1.58379">
        <ele>277</ele>
        <time>2012-05-01T14:31:33Z</time>
      </trkpt>
      <trkpt lat="45.05393" lon="1.58368">
        <ele>277</ele>
        <time>2012-05-01T14:31:40Z</time>
      </trkpt>
      <trkpt lat="45.05396" lon="1.58363">
        <ele>279</ele>
        <time>2012-05-01T14:31:46Z</time>
      </trkpt>
      <trkpt lat="45.05402" lon="1.58336">
        <ele>279</ele>
        <time>2012-05-01T14:32:11Z</time>
      </trkpt>
      <trkpt lat="45.05405" lon="1.58315">
        <ele>279</ele>
        <time>2012-05-01T14:32:22Z</time>
      </trkpt>
      <trkpt lat="45.05407" lon="1.58304">
        <ele>279</ele>
        <time>2012-05-01T14:32:27Z</time>
      </trkpt>
      <trkpt lat="45.05404" lon="1.5829">
        <ele>280</ele>
        <time>2012-05-01T14:32:38Z</time>
      </trkpt>
      <trkpt lat="45.05408" lon="1.58276">
        <ele>279</ele>
        <time>2012-05-01T14:32:43Z</time>
      </trkpt>
      <trkpt lat="45.05405" lon="1.58262">
        <ele>279</ele>
        <time>2012-05-01T14:32:47Z</time>
      </trkpt>
      <trkpt lat="45.05412" lon="1.58221">
        <ele>282</ele>
        <time>2012-05-01T14:33:08Z</time>
      </trkpt>
      <trkpt lat="45.05406" lon="1.58212">
        <ele>281</ele>
        <time>2012-05-01T14:33:15Z</time>
      </trkpt>
      <trkpt lat="45.05396" lon="1.58206">
        <ele>280</ele>
        <time>2012-05-01T14:33:25Z</time>
      </trkpt>
      <trkpt lat="45.05389" lon="1.58206">
        <ele>276</ele>
        <time>2012-05-01T14:33:41Z</time>
      </trkpt>
      <trkpt lat="45.05381" lon="1.58199">
        <ele>274</ele>
        <time>2012-05-01T14:33:49Z</time>
      </trkpt>
      <trkpt lat="45.05362" lon="1.58199">
        <ele>272</ele>
        <time>2012-05-01T14:33:59Z</time>
      </trkpt>
      <trkpt lat="45.0536" lon="1.5819">
        <ele>274</ele>
        <time>2012-05-01T14:34:14Z</time>
      </trkpt>
      <trkpt lat="45.05356" lon="1.58178">
        <ele>274</ele>
        <time>2012-05-01T14:34:18Z</time>
      </trkpt>
      <trkpt lat="45.05352" lon="1.58168">
        <ele>273</ele>
        <time>2012-05-01T14:34:23Z</time>
      </trkpt>
      <trkpt lat="45.05338" lon="1.58143">
        <ele>269</ele>
        <time>2012-05-01T14:34:39Z</time>
      </trkpt>
      <trkpt lat="45.05342" lon="1.58143">
        <ele>268</ele>
        <time>2012-05-01T14:35:46Z</time>
      </trkpt>
      <trkpt lat="45.05344" lon="1.58151">
        <ele>269</ele>
        <time>2012-05-01T14:36:01Z</time>
      </trkpt>
      <trkpt lat="45.05352" lon="1.58161">
        <ele>272</ele>
        <time>2012-05-01T14:36:10Z</time>
      </trkpt>
      <trkpt lat="45.05357" lon="1.58167">
        <ele>271</ele>
        <time>2012-05-01T14:36:17Z</time>
      </trkpt>
      <trkpt lat="45.05359" lon="1.58161">
        <ele>268</ele>
        <time>2012-05-01T14:37:03Z</time>
      </trkpt>
      <trkpt lat="45.0535" lon="1.58155">
        <ele>269</ele>
        <time>2012-05-01T14:37:12Z</time>
      </trkpt>
      <trkpt lat="45.05345" lon="1.58151">
        <ele>269</ele>
        <time>2012-05-01T14:37:16Z</time>
      </trkpt>
      <trkpt lat="45.05341" lon="1.58147">
        <ele>270</ele>
        <time>2012-05-01T14:37:23Z</time>
      </trkpt>
      <trkpt lat="45.0534" lon="1.58138">
        <ele>273</ele>
        <time>2012-05-01T14:37:28Z</time>
      </trkpt>
      <trkpt lat="45.0534" lon="1.58131">
        <ele>273</ele>
        <time>2012-05-01T14:37:32Z</time>
      </trkpt>
      <trkpt lat="45.0534" lon="1.5812">
        <ele>278</ele>
        <time>2012-05-01T14:38:55Z</time>
      </trkpt>
      <trkpt lat="45.05333" lon="1.58113">
        <ele>274</ele>
        <time>2012-05-01T14:39:33Z</time>
      </trkpt>
      <trkpt lat="45.05327" lon="1.58113">
        <ele>274</ele>
        <time>2012-05-01T14:39:54Z</time>
      </trkpt>
      <trkpt lat="45.05327" lon="1.58096">
        <ele>274</ele>
        <time>2012-05-01T14:40:04Z</time>
      </trkpt>
      <trkpt lat="45.05325" lon="1.58081">
        <ele>275</ele>
        <time>2012-05-01T14:40:09Z</time>
      </trkpt>
      <trkpt lat="45.05318" lon="1.58052">
        <ele>271</ele>
        <time>2012-05-01T14:40:19Z</time>
      </trkpt>
      <trkpt lat="45.05307" lon="1.58008">
        <ele>270</ele>
        <time>2012-05-01T14:40:43Z</time>
      </trkpt>
      <trkpt lat="45.05299" lon="1.57997">
        <ele>270</ele>
        <time>2012-05-01T14:40:48Z</time>
      </trkpt>
      <trkpt lat="45.05264" lon="1.57937">
        <ele>285</ele>
        <time>2012-05-01T14:41:21Z</time>
      </trkpt>
      <trkpt lat="45.05241" lon="1.5791">
        <ele>289</ele>
        <time>2012-05-01T14:41:41Z</time>
      </trkpt>
      <trkpt lat="45.05232" lon="1.57903">
        <ele>289</ele>
        <time>2012-05-01T14:41:48Z</time>
      </trkpt>
      <trkpt lat="45.05214" lon="1.57887">
        <ele>294</ele>
        <time>2012-05-01T14:42:03Z</time>
      </trkpt>
      <trkpt lat="45.05198" lon="1.5787">
        <ele>296</ele>
        <time>2012-05-01T14:42:17Z</time>
      </trkpt>
      <trkpt lat="45.05189" lon="1.57867">
        <ele>295</ele>
        <time>2012-05-01T14:42:24Z</time>
      </trkpt>
      <trkpt lat="45.0518" lon="1.57862">
        <ele>295</ele>
        <time>2012-05-01T14:42:30Z</time>
      </trkpt>
      <trkpt lat="45.0517" lon="1.57858">
        <ele>292</ele>
        <time>2012-05-01T14:42:43Z</time>
      </trkpt>
      <trkpt lat="45.05161" lon="1.57853">
        <ele>292</ele>
        <time>2012-05-01T14:42:49Z</time>
      </trkpt>
      <trkpt lat="45.05154" lon="1.57844">
        <ele>293</ele>
        <time>2012-05-01T14:42:56Z</time>
      </trkpt>
      <trkpt lat="45.05126" lon="1.57825">
        <ele>296</ele>
        <time>2012-05-01T14:43:14Z</time>
      </trkpt>
      <trkpt lat="45.05109" lon="1.57806">
        <ele>306</ele>
        <time>2012-05-01T14:43:29Z</time>
      </trkpt>
      <trkpt lat="45.05087" lon="1.57753">
        <ele>312</ele>
        <time>2012-05-01T14:44:00Z</time>
      </trkpt>
      <trkpt lat="45.05086" lon="1.57745">
        <ele>312</ele>
        <time>2012-05-01T14:44:04Z</time>
      </trkpt>
      <trkpt lat="45.0507" lon="1.57709">
        <ele>318</ele>
        <time>2012-05-01T14:44:25Z</time>
      </trkpt>
      <trkpt lat="45.0506" lon="1.57703">
        <ele>321</ele>
        <time>2012-05-01T14:44:33Z</time>
      </trkpt>
      <trkpt lat="45.05057" lon="1.57697">
        <ele>323</ele>
        <time>2012-05-01T14:44:39Z</time>
      </trkpt>
      <trkpt lat="45.05057" lon="1.5769">
        <ele>323</ele>
        <time>2012-05-01T14:44:43Z</time>
      </trkpt>
      <trkpt lat="45.05053" lon="1.57676">
        <ele>321</ele>
        <time>2012-05-01T14:44:51Z</time>
      </trkpt>
      <trkpt lat="45.0505" lon="1.57666">
        <ele>321</ele>
        <time>2012-05-01T14:44:59Z</time>
      </trkpt>
      <trkpt lat="45.05048" lon="1.57653">
        <ele>322</ele>
        <time>2012-05-01T14:45:07Z</time>
      </trkpt>
      <trkpt lat="45.05046" lon="1.57645">
        <ele>322</ele>
        <time>2012-05-01T14:45:11Z</time>
      </trkpt>
      <trkpt lat="45.05043" lon="1.57632">
        <ele>323</ele>
        <time>2012-05-01T14:45:18Z</time>
      </trkpt>
      <trkpt lat="45.05033" lon="1.57603">
        <ele>328</ele>
        <time>2012-05-01T14:45:34Z</time>
      </trkpt>
      <trkpt lat="45.05031" lon="1.57597">
        <ele>328</ele>
        <time>2012-05-01T14:45:38Z</time>
      </trkpt>
      <trkpt lat="45.05021" lon="1.57579">
        <ele>326</ele>
        <time>2012-05-01T14:45:49Z</time>
      </trkpt>
      <trkpt lat="45.05016" lon="1.57576">
        <ele>327</ele>
        <time>2012-05-01T14:45:53Z</time>
      </trkpt>
      <trkpt lat="45.05006" lon="1.57571">
        <ele>328</ele>
        <time>2012-05-01T14:46:01Z</time>
      </trkpt>
      <trkpt lat="45.04995" lon="1.57566">
        <ele>328</ele>
        <time>2012-05-01T14:46:08Z</time>
      </trkpt>
      <trkpt lat="45.04959" lon="1.5755">
        <ele>320</ele>
        <time>2012-05-01T14:46:32Z</time>
      </trkpt>
      <trkpt lat="45.0495" lon="1.57545">
        <ele>320</ele>
        <time>2012-05-01T14:46:38Z</time>
      </trkpt>
      <trkpt lat="45.04936" lon="1.57537">
        <ele>323</ele>
        <time>2012-05-01T14:46:47Z</time>
      </trkpt>
      <trkpt lat="45.04931" lon="1.57535">
        <ele>323</ele>
        <time>2012-05-01T14:46:50Z</time>
      </trkpt>
      <trkpt lat="45.04916" lon="1.57529">
        <ele>323</ele>
        <time>2012-05-01T14:47:00Z</time>
      </trkpt>
      <trkpt lat="45.04906" lon="1.57523">
        <ele>323</ele>
        <time>2012-05-01T14:47:07Z</time>
      </trkpt>
      <trkpt lat="45.04902" lon="1.57521">
        <ele>324</ele>
        <time>2012-05-01T14:47:10Z</time>
      </trkpt>
      <trkpt lat="45.04897" lon="1.57519">
        <ele>324</ele>
        <time>2012-05-01T14:47:13Z</time>
      </trkpt>
      <trkpt lat="45.04883" lon="1.57513">
        <ele>323</ele>
        <time>2012-05-01T14:47:23Z</time>
      </trkpt>
      <trkpt lat="45.04844" lon="1.57496">
        <ele>314</ele>
        <time>2012-05-01T14:47:51Z</time>
      </trkpt>
      <trkpt lat="45.04839" lon="1.57494">
        <ele>314</ele>
        <time>2012-05-01T14:47:54Z</time>
      </trkpt>
      <trkpt lat="45.04835" lon="1.57491">
        <ele>314</ele>
        <time>2012-05-01T14:47:57Z</time>
      </trkpt>
      <trkpt lat="45.0483" lon="1.57489">
        <ele>314</ele>
        <time>2012-05-01T14:48:01Z</time>
      </trkpt>
      <trkpt lat="45.04826" lon="1.57487">
        <ele>314</ele>
        <time>2012-05-01T14:48:04Z</time>
      </trkpt>
      <trkpt lat="45.04821" lon="1.57484">
        <ele>314</ele>
        <time>2012-05-01T14:48:07Z</time>
      </trkpt>
      <trkpt lat="45.04811" lon="1.57479">
        <ele>313</ele>
        <time>2012-05-01T14:48:14Z</time>
      </trkpt>
      <trkpt lat="45.04805" lon="1.57478">
        <ele>313</ele>
        <time>2012-05-01T14:48:18Z</time>
      </trkpt>
      <trkpt lat="45.04801" lon="1.57476">
        <ele>315</ele>
        <time>2012-05-01T14:48:22Z</time>
      </trkpt>
      <trkpt lat="45.04796" lon="1.57473">
        <ele>315</ele>
        <time>2012-05-01T14:48:26Z</time>
      </trkpt>
      <trkpt lat="45.0479" lon="1.57471">
        <ele>315</ele>
        <time>2012-05-01T14:48:30Z</time>
      </trkpt>
      <trkpt lat="45.04777" lon="1.57465">
        <ele>311</ele>
        <time>2012-05-01T14:48:39Z</time>
      </trkpt>
      <trkpt lat="45.04766" lon="1.57461">
        <ele>311</ele>
        <time>2012-05-01T14:48:46Z</time>
      </trkpt>
      <trkpt lat="45.04761" lon="1.57459">
        <ele>311</ele>
        <time>2012-05-01T14:48:49Z</time>
      </trkpt>
      <trkpt lat="45.04757" lon="1.57458">
        <ele>311</ele>
        <time>2012-05-01T14:48:52Z</time>
      </trkpt>
      <trkpt lat="45.0475" lon="1.57456">
        <ele>311</ele>
        <time>2012-05-01T14:48:59Z</time>
      </trkpt>
      <trkpt lat="45.04746" lon="1.57456">
        <ele>309</ele>
        <time>2012-05-01T14:49:03Z</time>
      </trkpt>
      <trkpt lat="45.04738" lon="1.57452">
        <ele>309</ele>
        <time>2012-05-01T14:49:09Z</time>
      </trkpt>
      <trkpt lat="45.04725" lon="1.57447">
        <ele>306</ele>
        <time>2012-05-01T14:49:17Z</time>
      </trkpt>
      <trkpt lat="45.04721" lon="1.57446">
        <ele>306</ele>
        <time>2012-05-01T14:49:21Z</time>
      </trkpt>
      <trkpt lat="45.04716" lon="1.57445">
        <ele>307</ele>
        <time>2012-05-01T14:49:25Z</time>
      </trkpt>
      <trkpt lat="45.04711" lon="1.57444">
        <ele>307</ele>
        <time>2012-05-01T14:49:28Z</time>
      </trkpt>
      <trkpt lat="45.04701" lon="1.57441">
        <ele>307</ele>
        <time>2012-05-01T14:49:34Z</time>
      </trkpt>
      <trkpt lat="45.04671" lon="1.57433">
        <ele>309</ele>
        <time>2012-05-01T14:49:55Z</time>
      </trkpt>
      <trkpt lat="45.04661" lon="1.5743">
        <ele>308</ele>
        <time>2012-05-01T14:50:00Z</time>
      </trkpt>
      <trkpt lat="45.04651" lon="1.57427">
        <ele>309</ele>
        <time>2012-05-01T14:50:07Z</time>
      </trkpt>
      <trkpt lat="45.04646" lon="1.57426">
        <ele>310</ele>
        <time>2012-05-01T14:50:10Z</time>
      </trkpt>
      <trkpt lat="45.04626" lon="1.57421">
        <ele>314</ele>
        <time>2012-05-01T14:50:24Z</time>
      </trkpt>
      <trkpt lat="45.0462" lon="1.57419">
        <ele>314</ele>
        <time>2012-05-01T14:50:28Z</time>
      </trkpt>
      <trkpt lat="45.04578" lon="1.57407">
        <ele>304</ele>
        <time>2012-05-01T14:50:58Z</time>
      </trkpt>
      <trkpt lat="45.04564" lon="1.57402">
        <ele>303</ele>
        <time>2012-05-01T14:51:07Z</time>
      </trkpt>
      <trkpt lat="45.04537" lon="1.57382">
        <ele>307</ele>
        <time>2012-05-01T14:51:28Z</time>
      </trkpt>
      <trkpt lat="45.04533" lon="1.57375">
        <ele>307</ele>
        <time>2012-05-01T14:51:32Z</time>
      </trkpt>
      <trkpt lat="45.04529" lon="1.5737">
        <ele>306</ele>
        <time>2012-05-01T14:51:35Z</time>
      </trkpt>
      <trkpt lat="45.04526" lon="1.57363">
        <ele>306</ele>
        <time>2012-05-01T14:51:39Z</time>
      </trkpt>
      <trkpt lat="45.04509" lon="1.57344">
        <ele>310</ele>
        <time>2012-05-01T14:51:55Z</time>
      </trkpt>
      <trkpt lat="45.04505" lon="1.57344">
        <ele>310</ele>
        <time>2012-05-01T14:51:59Z</time>
      </trkpt>
      <trkpt lat="45.04496" lon="1.57346">
        <ele>309</ele>
        <time>2012-05-01T14:52:05Z</time>
      </trkpt>
      <trkpt lat="45.04489" lon="1.57347">
        <ele>310</ele>
        <time>2012-05-01T14:52:10Z</time>
      </trkpt>
      <trkpt lat="45.04484" lon="1.5735">
        <ele>310</ele>
        <time>2012-05-01T14:52:14Z</time>
      </trkpt>
      <trkpt lat="45.04475" lon="1.57356">
        <ele>309</ele>
        <time>2012-05-01T14:52:21Z</time>
      </trkpt>
      <trkpt lat="45.04461" lon="1.57361">
        <ele>310</ele>
        <time>2012-05-01T14:52:30Z</time>
      </trkpt>
      <trkpt lat="45.04452" lon="1.5737">
        <ele>313</ele>
        <time>2012-05-01T14:52:37Z</time>
      </trkpt>
      <trkpt lat="45.04409" lon="1.57389">
        <ele>319</ele>
        <time>2012-05-01T14:53:07Z</time>
      </trkpt>
      <trkpt lat="45.04365" lon="1.57384">
        <ele>314</ele>
        <time>2012-05-01T14:53:38Z</time>
      </trkpt>
      <trkpt lat="45.0434" lon="1.57386">
        <ele>310</ele>
        <time>2012-05-01T14:53:55Z</time>
      </trkpt>
      <trkpt lat="45.0433" lon="1.57385">
        <ele>310</ele>
        <time>2012-05-01T14:54:01Z</time>
      </trkpt>
      <trkpt lat="45.04325" lon="1.57385">
        <ele>312</ele>
        <time>2012-05-01T14:54:04Z</time>
      </trkpt>
      <trkpt lat="45.04314" lon="1.57382">
        <ele>312</ele>
        <time>2012-05-01T14:54:10Z</time>
      </trkpt>
      <trkpt lat="45.04289" lon="1.57369">
        <ele>317</ele>
        <time>2012-05-01T14:54:27Z</time>
      </trkpt>
      <trkpt lat="45.04282" lon="1.57364">
        <ele>317</ele>
        <time>2012-05-01T14:54:32Z</time>
      </trkpt>
      <trkpt lat="45.04279" lon="1.57359">
        <ele>317</ele>
        <time>2012-05-01T14:54:35Z</time>
      </trkpt>
      <trkpt lat="45.0427" lon="1.57349">
        <ele>317</ele>
        <time>2012-05-01T14:54:41Z</time>
      </trkpt>
      <trkpt lat="45.04263" lon="1.5734">
        <ele>318</ele>
        <time>2012-05-01T14:54:48Z</time>
      </trkpt>
      <trkpt lat="45.04255" lon="1.57332">
        <ele>317</ele>
        <time>2012-05-01T14:54:54Z</time>
      </trkpt>
      <trkpt lat="45.04252" lon="1.57328">
        <ele>318</ele>
        <time>2012-05-01T14:54:57Z</time>
      </trkpt>
      <trkpt lat="45.04248" lon="1.57324">
        <ele>318</ele>
        <time>2012-05-01T14:55:00Z</time>
      </trkpt>
      <trkpt lat="45.04243" lon="1.57318">
        <ele>317</ele>
        <time>2012-05-01T14:55:04Z</time>
      </trkpt>
      <trkpt lat="45.04239" lon="1.57313">
        <ele>318</ele>
        <time>2012-05-01T14:55:08Z</time>
      </trkpt>
      <trkpt lat="45.04236" lon="1.57309">
        <ele>318</ele>
        <time>2012-05-01T14:55:12Z</time>
      </trkpt>
      <trkpt lat="45.04233" lon="1.57301">
        <ele>315</ele>
        <time>2012-05-01T14:55:18Z</time>
      </trkpt>
      <trkpt lat="45.0423" lon="1.57295">
        <ele>314</ele>
        <time>2012-05-01T14:55:23Z</time>
      </trkpt>
      <trkpt lat="45.04225" lon="1.57284">
        <ele>315</ele>
        <time>2012-05-01T14:55:29Z</time>
      </trkpt>
      <trkpt lat="45.04215" lon="1.57274">
        <ele>319</ele>
        <time>2012-05-01T14:55:46Z</time>
      </trkpt>
      <trkpt lat="45.04209" lon="1.57271">
        <ele>319</ele>
        <time>2012-05-01T14:56:04Z</time>
      </trkpt>
      <trkpt lat="45.04199" lon="1.57264">
        <ele>317</ele>
        <time>2012-05-01T14:56:11Z</time>
      </trkpt>
      <trkpt lat="45.04194" lon="1.5726">
        <ele>317</ele>
        <time>2012-05-01T14:56:14Z</time>
      </trkpt>
      <trkpt lat="45.04191" lon="1.5725">
        <ele>316</ele>
        <time>2012-05-01T14:56:19Z</time>
      </trkpt>
      <trkpt lat="45.04194" lon="1.57243">
        <ele>314</ele>
        <time>2012-05-01T14:56:24Z</time>
      </trkpt>
      <trkpt lat="45.04188" lon="1.57232">
        <ele>314</ele>
        <time>2012-05-01T14:56:30Z</time>
      </trkpt>
      <trkpt lat="45.04179" lon="1.57221">
        <ele>313</ele>
        <time>2012-05-01T14:56:39Z</time>
      </trkpt>
      <trkpt lat="45.04159" lon="1.57197">
        <ele>312</ele>
        <time>2012-05-01T14:56:55Z</time>
      </trkpt>
      <trkpt lat="45.04152" lon="1.57191">
        <ele>311</ele>
        <time>2012-05-01T14:57:00Z</time>
      </trkpt>
      <trkpt lat="45.04147" lon="1.57187">
        <ele>311</ele>
        <time>2012-05-01T14:57:03Z</time>
      </trkpt>
      <trkpt lat="45.04125" lon="1.57166">
        <ele>315</ele>
        <time>2012-05-01T14:57:22Z</time>
      </trkpt>
      <trkpt lat="45.04123" lon="1.5716">
        <ele>315</ele>
        <time>2012-05-01T14:57:26Z</time>
      </trkpt>
      <trkpt lat="45.0412" lon="1.57147">
        <ele>313</ele>
        <time>2012-05-01T14:57:32Z</time>
      </trkpt>
      <trkpt lat="45.0411" lon="1.57134">
        <ele>311</ele>
        <time>2012-05-01T14:57:44Z</time>
      </trkpt>
      <trkpt lat="45.04107" lon="1.57127">
        <ele>311</ele>
        <time>2012-05-01T14:57:49Z</time>
      </trkpt>
      <trkpt lat="45.04103" lon="1.57121">
        <ele>313</ele>
        <time>2012-05-01T14:57:53Z</time>
      </trkpt>
      <trkpt lat="45.041" lon="1.57114">
        <ele>311</ele>
        <time>2012-05-01T14:57:58Z</time>
      </trkpt>
      <trkpt lat="45.04097" lon="1.57107">
        <ele>311</ele>
        <time>2012-05-01T14:58:02Z</time>
      </trkpt>
      <trkpt lat="45.04071" lon="1.57061">
        <ele>304</ele>
        <time>2012-05-01T14:58:33Z</time>
      </trkpt>
      <trkpt lat="45.04035" lon="1.57021">
        <ele>297</ele>
        <time>2012-05-01T14:59:05Z</time>
      </trkpt>
      <trkpt lat="45.04017" lon="1.57008">
        <ele>294</ele>
        <time>2012-05-01T14:59:17Z</time>
      </trkpt>
      <trkpt lat="45.04007" lon="1.57005">
        <ele>294</ele>
        <time>2012-05-01T14:59:24Z</time>
      </trkpt>
      <trkpt lat="45.03977" lon="1.56998">
        <ele>297</ele>
        <time>2012-05-01T14:59:43Z</time>
      </trkpt>
      <trkpt lat="45.03952" lon="1.57004">
        <ele>297</ele>
        <time>2012-05-01T14:59:59Z</time>
      </trkpt>
      <trkpt lat="45.03947" lon="1.57009">
        <ele>296</ele>
        <time>2012-05-01T15:00:03Z</time>
      </trkpt>
      <trkpt lat="45.03943" lon="1.57013">
        <ele>296</ele>
        <time>2012-05-01T15:00:07Z</time>
      </trkpt>
      <trkpt lat="45.03939" lon="1.57018">
        <ele>297</ele>
        <time>2012-05-01T15:00:11Z</time>
      </trkpt>
      <trkpt lat="45.03936" lon="1.57022">
        <ele>297</ele>
        <time>2012-05-01T15:00:14Z</time>
      </trkpt>
      <trkpt lat="45.03907" lon="1.57028">
        <ele>297</ele>
        <time>2012-05-01T15:00:34Z</time>
      </trkpt>
      <trkpt lat="45.0389" lon="1.57032">
        <ele>299</ele>
        <time>2012-05-01T15:00:47Z</time>
      </trkpt>
      <trkpt lat="45.03879" lon="1.57033">
        <ele>298</ele>
        <time>2012-05-01T15:00:55Z</time>
      </trkpt>
      <trkpt lat="45.03859" lon="1.57042">
        <ele>303</ele>
        <time>2012-05-01T15:01:13Z</time>
      </trkpt>
      <trkpt lat="45.03849" lon="1.57041">
        <ele>302</ele>
        <time>2012-05-01T15:01:21Z</time>
      </trkpt>
      <trkpt lat="45.03839" lon="1.57044">
        <ele>302</ele>
        <time>2012-05-01T15:01:29Z</time>
      </trkpt>
      <trkpt lat="45.03825" lon="1.57047">
        <ele>303</ele>
        <time>2012-05-01T15:01:38Z</time>
      </trkpt>
      <trkpt lat="45.03821" lon="1.57049">
        <ele>303</ele>
        <time>2012-05-01T15:01:41Z</time>
      </trkpt>
      <trkpt lat="45.03811" lon="1.57048">
        <ele>303</ele>
        <time>2012-05-01T15:01:48Z</time>
      </trkpt>
      <trkpt lat="45.03805" lon="1.57047">
        <ele>302</ele>
        <time>2012-05-01T15:01:52Z</time>
      </trkpt>
      <trkpt lat="45.03801" lon="1.57047">
        <ele>305</ele>
        <time>2012-05-01T15:01:57Z</time>
      </trkpt>
      <trkpt lat="45.03791" lon="1.57044">
        <ele>306</ele>
        <time>2012-05-01T15:02:05Z</time>
      </trkpt>
      <trkpt lat="45.03751" lon="1.57047">
        <ele>290</ele>
        <time>2012-05-01T15:02:38Z</time>
      </trkpt>
      <trkpt lat="45.03746" lon="1.57047">
        <ele>288</ele>
        <time>2012-05-01T15:02:43Z</time>
      </trkpt>
      <trkpt lat="45.03703" lon="1.57051">
        <ele>309</ele>
        <time>2012-05-01T15:03:18Z</time>
      </trkpt>
      <trkpt lat="45.03679" lon="1.57054">
        <ele>315</ele>
        <time>2012-05-01T15:03:36Z</time>
      </trkpt>
      <trkpt lat="45.03673" lon="1.57055">
        <ele>315</ele>
        <time>2012-05-01T15:03:39Z</time>
      </trkpt>
      <trkpt lat="45.03633" lon="1.57059">
        <ele>322</ele>
        <time>2012-05-01T15:04:11Z</time>
      </trkpt>
      <trkpt lat="45.03624" lon="1.57062">
        <ele>324</ele>
        <time>2012-05-01T15:04:16Z</time>
      </trkpt>
      <trkpt lat="45.03609" lon="1.57073">
        <ele>331</ele>
        <time>2012-05-01T15:04:29Z</time>
      </trkpt>
      <trkpt lat="45.03605" lon="1.57074">
        <ele>332</ele>
        <time>2012-05-01T15:04:32Z</time>
      </trkpt>
      <trkpt lat="45.036" lon="1.57075">
        <ele>331</ele>
        <time>2012-05-01T15:04:35Z</time>
      </trkpt>
      <trkpt lat="45.03595" lon="1.57079">
        <ele>331</ele>
        <time>2012-05-01T15:04:38Z</time>
      </trkpt>
      <trkpt lat="45.03587" lon="1.57093">
        <ele>331</ele>
        <time>2012-05-01T15:04:42Z</time>
      </trkpt>
      <trkpt lat="45.03581" lon="1.57121">
        <ele>329</ele>
        <time>2012-05-01T15:04:48Z</time>
      </trkpt>
      <trkpt lat="45.03533" lon="1.57279">
        <ele>332</ele>
        <time>2012-05-01T15:05:19Z</time>
      </trkpt>
      <trkpt lat="45.0352" lon="1.5731">
        <ele>330</ele>
        <time>2012-05-01T15:05:31Z</time>
      </trkpt>
      <trkpt lat="45.03485" lon="1.57339">
        <ele>326</ele>
        <time>2012-05-01T15:05:47Z</time>
      </trkpt>
      <trkpt lat="45.03475" lon="1.57356">
        <ele>326</ele>
        <time>2012-05-01T15:05:56Z</time>
      </trkpt>
      <trkpt lat="45.03472" lon="1.57364">
        <ele>328</ele>
        <time>2012-05-01T15:06:00Z</time>
      </trkpt>
      <trkpt lat="45.03468" lon="1.57366">
        <ele>331</ele>
        <time>2012-05-01T15:06:09Z</time>
      </trkpt>
      <trkpt lat="45.03463" lon="1.57366">
        <ele>335</ele>
        <time>2012-05-01T15:06:27Z</time>
      </trkpt>
      <trkpt lat="45.03458" lon="1.57362">
        <ele>336</ele>
        <time>2012-05-01T15:06:31Z</time>
      </trkpt>
      <trkpt lat="45.0345" lon="1.57352">
        <ele>336</ele>
        <time>2012-05-01T15:06:39Z</time>
      </trkpt>
      <trkpt lat="45.03424" lon="1.57327">
        <ele>335</ele>
        <time>2012-05-01T15:07:01Z</time>
      </trkpt>
      <trkpt lat="45.03419" lon="1.57323">
        <ele>334</ele>
        <time>2012-05-01T15:07:06Z</time>
      </trkpt>
      <trkpt lat="45.03411" lon="1.57316">
        <ele>333</ele>
        <time>2012-05-01T15:07:13Z</time>
      </trkpt>
      <trkpt lat="45.03406" lon="1.57313">
        <ele>334</ele>
        <time>2012-05-01T15:07:16Z</time>
      </trkpt>
      <trkpt lat="45.03393" lon="1.57306">
        <ele>333</ele>
        <time>2012-05-01T15:07:24Z</time>
      </trkpt>
      <trkpt lat="45.03387" lon="1.57305">
        <ele>331</ele>
        <time>2012-05-01T15:07:28Z</time>
      </trkpt>
      <trkpt lat="45.03378" lon="1.57301">
        <ele>331</ele>
        <time>2012-05-01T15:07:35Z</time>
      </trkpt>
      <trkpt lat="45.03373" lon="1.57298">
        <ele>331</ele>
        <time>2012-05-01T15:07:38Z</time>
      </trkpt>
      <trkpt lat="45.03364" lon="1.57291">
        <ele>329</ele>
        <time>2012-05-01T15:07:46Z</time>
      </trkpt>
      <trkpt lat="45.03355" lon="1.57283">
        <ele>329</ele>
        <time>2012-05-01T15:07:53Z</time>
      </trkpt>
      <trkpt lat="45.03351" lon="1.57279">
        <ele>328</ele>
        <time>2012-05-01T15:07:57Z</time>
      </trkpt>
      <trkpt lat="45.03347" lon="1.57276">
        <ele>328</ele>
        <time>2012-05-01T15:08:01Z</time>
      </trkpt>
      <trkpt lat="45.03343" lon="1.57273">
        <ele>328</ele>
        <time>2012-05-01T15:08:04Z</time>
      </trkpt>
      <trkpt lat="45.03339" lon="1.5727">
        <ele>327</ele>
        <time>2012-05-01T15:08:08Z</time>
      </trkpt>
      <trkpt lat="45.03299" lon="1.57245">
        <ele>318</ele>
        <time>2012-05-01T15:08:39Z</time>
      </trkpt>
      <trkpt lat="45.03294" lon="1.57244">
        <ele>316</ele>
        <time>2012-05-01T15:08:42Z</time>
      </trkpt>
      <trkpt lat="45.0329" lon="1.57241">
        <ele>314</ele>
        <time>2012-05-01T15:08:46Z</time>
      </trkpt>
      <trkpt lat="45.03285" lon="1.57239">
        <ele>314</ele>
        <time>2012-05-01T15:08:52Z</time>
      </trkpt>
      <trkpt lat="45.03281" lon="1.57235">
        <ele>315</ele>
        <time>2012-05-01T15:08:56Z</time>
      </trkpt>
      <trkpt lat="45.03276" lon="1.57231">
        <ele>315</ele>
        <time>2012-05-01T15:09:00Z</time>
      </trkpt>
      <trkpt lat="45.03271" lon="1.57228">
        <ele>315</ele>
        <time>2012-05-01T15:09:04Z</time>
      </trkpt>
      <trkpt lat="45.03223" lon="1.57218">
        <ele>307</ele>
        <time>2012-05-01T15:09:37Z</time>
      </trkpt>
      <trkpt lat="45.03218" lon="1.57216">
        <ele>306</ele>
        <time>2012-05-01T15:09:41Z</time>
      </trkpt>
      <trkpt lat="45.03209" lon="1.57211">
        <ele>306</ele>
        <time>2012-05-01T15:09:47Z</time>
      </trkpt>
      <trkpt lat="45.03204" lon="1.57208">
        <ele>306</ele>
        <time>2012-05-01T15:09:50Z</time>
      </trkpt>
      <trkpt lat="45.032" lon="1.57207">
        <ele>305</ele>
        <time>2012-05-01T15:09:53Z</time>
      </trkpt>
      <trkpt lat="45.03194" lon="1.57205">
        <ele>306</ele>
        <time>2012-05-01T15:09:57Z</time>
      </trkpt>
      <trkpt lat="45.03188" lon="1.57204">
        <ele>305</ele>
        <time>2012-05-01T15:10:00Z</time>
      </trkpt>
      <trkpt lat="45.03182" lon="1.57204">
        <ele>306</ele>
        <time>2012-05-01T15:10:03Z</time>
      </trkpt>
      <trkpt lat="45.03177" lon="1.57203">
        <ele>306</ele>
        <time>2012-05-01T15:10:06Z</time>
      </trkpt>
      <trkpt lat="45.03155" lon="1.57196">
        <ele>304</ele>
        <time>2012-05-01T15:10:19Z</time>
      </trkpt>
      <trkpt lat="45.03149" lon="1.57194">
        <ele>304</ele>
        <time>2012-05-01T15:10:23Z</time>
      </trkpt>
      <trkpt lat="45.03145" lon="1.57192">
        <ele>303</ele>
        <time>2012-05-01T15:10:26Z</time>
      </trkpt>
      <trkpt lat="45.03138" lon="1.57187">
        <ele>303</ele>
        <time>2012-05-01T15:10:32Z</time>
      </trkpt>
      <trkpt lat="45.03134" lon="1.57183">
        <ele>305</ele>
        <time>2012-05-01T15:10:36Z</time>
      </trkpt>
      <trkpt lat="45.0313" lon="1.57179">
        <ele>305</ele>
        <time>2012-05-01T15:10:39Z</time>
      </trkpt>
      <trkpt lat="45.03112" lon="1.57165">
        <ele>303</ele>
        <time>2012-05-01T15:10:51Z</time>
      </trkpt>
      <trkpt lat="45.03103" lon="1.57159">
        <ele>304</ele>
        <time>2012-05-01T15:10:57Z</time>
      </trkpt>
      <trkpt lat="45.03099" lon="1.57156">
        <ele>304</ele>
        <time>2012-05-01T15:11:00Z</time>
      </trkpt>
      <trkpt lat="45.03079" lon="1.57147">
        <ele>299</ele>
        <time>2012-05-01T15:11:13Z</time>
      </trkpt>
      <trkpt lat="45.03073" lon="1.57147">
        <ele>299</ele>
        <time>2012-05-01T15:11:18Z</time>
      </trkpt>
      <trkpt lat="45.03049" lon="1.57143">
        <ele>294</ele>
        <time>2012-05-01T15:11:36Z</time>
      </trkpt>
      <trkpt lat="45.03039" lon="1.57144">
        <ele>294</ele>
        <time>2012-05-01T15:11:44Z</time>
      </trkpt>
      <trkpt lat="45.0303" lon="1.57141">
        <ele>293</ele>
        <time>2012-05-01T15:11:49Z</time>
      </trkpt>
      <trkpt lat="45.02991" lon="1.57124">
        <ele>285</ele>
        <time>2012-05-01T15:12:20Z</time>
      </trkpt>
      <trkpt lat="45.0298" lon="1.57121">
        <ele>283</ele>
        <time>2012-05-01T15:12:28Z</time>
      </trkpt>
      <trkpt lat="45.0297" lon="1.57117">
        <ele>283</ele>
        <time>2012-05-01T15:12:34Z</time>
      </trkpt>
      <trkpt lat="45.0295" lon="1.57112">
        <ele>286</ele>
        <time>2012-05-01T15:12:50Z</time>
      </trkpt>
      <trkpt lat="45.02932" lon="1.57108">
        <ele>286</ele>
        <time>2012-05-01T15:12:57Z</time>
      </trkpt>
      <trkpt lat="45.02892" lon="1.5711">
        <ele>281</ele>
        <time>2012-05-01T15:13:27Z</time>
      </trkpt>
      <trkpt lat="45.0284" lon="1.57109">
        <ele>289</ele>
        <time>2012-05-01T15:13:58Z</time>
      </trkpt>
      <trkpt lat="45.02832" lon="1.57109">
        <ele>291</ele>
        <time>2012-05-01T15:14:03Z</time>
      </trkpt>
      <trkpt lat="45.02816" lon="1.57107">
        <ele>292</ele>
        <time>2012-05-01T15:14:12Z</time>
      </trkpt>
      <trkpt lat="45.02798" lon="1.5711">
        <ele>295</ele>
        <time>2012-05-01T15:14:22Z</time>
      </trkpt>
      <trkpt lat="45.02791" lon="1.5711">
        <ele>295</ele>
        <time>2012-05-01T15:14:26Z</time>
      </trkpt>
      <trkpt lat="45.02786" lon="1.57111">
        <ele>294</ele>
        <time>2012-05-01T15:14:29Z</time>
      </trkpt>
      <trkpt lat="45.02779" lon="1.57113">
        <ele>294</ele>
        <time>2012-05-01T15:14:33Z</time>
      </trkpt>
      <trkpt lat="45.02761" lon="1.57115">
        <ele>295</ele>
        <time>2012-05-01T15:14:44Z</time>
      </trkpt>
      <trkpt lat="45.02752" lon="1.57116">
        <ele>295</ele>
        <time>2012-05-01T15:14:51Z</time>
      </trkpt>
      <trkpt lat="45.02743" lon="1.57119">
        <ele>293</ele>
        <time>2012-05-01T15:14:57Z</time>
      </trkpt>
      <trkpt lat="45.02738" lon="1.5712">
        <ele>293</ele>
        <time>2012-05-01T15:15:00Z</time>
      </trkpt>
      <trkpt lat="45.02702" lon="1.57125">
        <ele>299</ele>
        <time>2012-05-01T15:15:27Z</time>
      </trkpt>
      <trkpt lat="45.02693" lon="1.57127">
        <ele>299</ele>
        <time>2012-05-01T15:15:34Z</time>
      </trkpt>
      <trkpt lat="45.0268" lon="1.57128">
        <ele>298</ele>
        <time>2012-05-01T15:15:43Z</time>
      </trkpt>
      <trkpt lat="45.02669" lon="1.57134">
        <ele>300</ele>
        <time>2012-05-01T15:15:56Z</time>
      </trkpt>
      <trkpt lat="45.0266" lon="1.57139">
        <ele>300</ele>
        <time>2012-05-01T15:16:03Z</time>
      </trkpt>
      <trkpt lat="45.02633" lon="1.57145">
        <ele>306</ele>
        <time>2012-05-01T15:16:32Z</time>
      </trkpt>
      <trkpt lat="45.02623" lon="1.57147">
        <ele>306</ele>
        <time>2012-05-01T15:16:38Z</time>
      </trkpt>
      <trkpt lat="45.02602" lon="1.57143">
        <ele>305</ele>
        <time>2012-05-01T15:16:50Z</time>
      </trkpt>
      <trkpt lat="45.02594" lon="1.57143">
        <ele>303</ele>
        <time>2012-05-01T15:16:57Z</time>
      </trkpt>
      <trkpt lat="45.02587" lon="1.5714">
        <ele>302</ele>
        <time>2012-05-01T15:17:02Z</time>
      </trkpt>
      <trkpt lat="45.02582" lon="1.5714">
        <ele>301</ele>
        <time>2012-05-01T15:17:06Z</time>
      </trkpt>
      <trkpt lat="45.02577" lon="1.57139">
        <ele>300</ele>
        <time>2012-05-01T15:17:10Z</time>
      </trkpt>
      <trkpt lat="45.02561" lon="1.57135">
        <ele>302</ele>
        <time>2012-05-01T15:17:22Z</time>
      </trkpt>
      <trkpt lat="45.02556" lon="1.57132">
        <ele>302</ele>
        <time>2012-05-01T15:17:25Z</time>
      </trkpt>
      <trkpt lat="45.02551" lon="1.57131">
        <ele>302</ele>
        <time>2012-05-01T15:17:28Z</time>
      </trkpt>
      <trkpt lat="45.02537" lon="1.57124">
        <ele>302</ele>
        <time>2012-05-01T15:17:38Z</time>
      </trkpt>
      <trkpt lat="45.02532" lon="1.57123">
        <ele>301</ele>
        <time>2012-05-01T15:17:42Z</time>
      </trkpt>
      <trkpt lat="45.02519" lon="1.57118">
        <ele>302</ele>
        <time>2012-05-01T15:17:51Z</time>
      </trkpt>
      <trkpt lat="45.02479" lon="1.57111">
        <ele>298</ele>
        <time>2012-05-01T15:18:18Z</time>
      </trkpt>
      <trkpt lat="45.02474" lon="1.57114">
        <ele>299</ele>
        <time>2012-05-01T15:18:22Z</time>
      </trkpt>
      <trkpt lat="45.02466" lon="1.57123">
        <ele>300</ele>
        <time>2012-05-01T15:18:29Z</time>
      </trkpt>
      <trkpt lat="45.02463" lon="1.57128">
        <ele>300</ele>
        <time>2012-05-01T15:18:32Z</time>
      </trkpt>
      <trkpt lat="45.02456" lon="1.57139">
        <ele>301</ele>
        <time>2012-05-01T15:18:40Z</time>
      </trkpt>
      <trkpt lat="45.02443" lon="1.57158">
        <ele>299</ele>
        <time>2012-05-01T15:18:53Z</time>
      </trkpt>
      <trkpt lat="45.02435" lon="1.57165">
        <ele>297</ele>
        <time>2012-05-01T15:19:00Z</time>
      </trkpt>
      <trkpt lat="45.0242" lon="1.57172">
        <ele>300</ele>
        <time>2012-05-01T15:19:09Z</time>
      </trkpt>
      <trkpt lat="45.02402" lon="1.57182">
        <ele>301</ele>
        <time>2012-05-01T15:19:21Z</time>
      </trkpt>
      <trkpt lat="45.02398" lon="1.57186">
        <ele>301</ele>
        <time>2012-05-01T15:19:24Z</time>
      </trkpt>
      <trkpt lat="45.02382" lon="1.57196">
        <ele>303</ele>
        <time>2012-05-01T15:19:35Z</time>
      </trkpt>
      <trkpt lat="45.02366" lon="1.57199">
        <ele>303</ele>
        <time>2012-05-01T15:19:47Z</time>
      </trkpt>
      <trkpt lat="45.02354" lon="1.57204">
        <ele>306</ele>
        <time>2012-05-01T15:19:53Z</time>
      </trkpt>
      <trkpt lat="45.023" lon="1.57216">
        <ele>311</ele>
        <time>2012-05-01T15:20:28Z</time>
      </trkpt>
      <trkpt lat="45.02292" lon="1.57218">
        <ele>310</ele>
        <time>2012-05-01T15:20:34Z</time>
      </trkpt>
      <trkpt lat="45.02287" lon="1.57219">
        <ele>310</ele>
        <time>2012-05-01T15:20:37Z</time>
      </trkpt>
      <trkpt lat="45.02249" lon="1.57225">
        <ele>315</ele>
        <time>2012-05-01T15:21:01Z</time>
      </trkpt>
      <trkpt lat="45.02233" lon="1.57223">
        <ele>314</ele>
        <time>2012-05-01T15:21:21Z</time>
      </trkpt>
      <trkpt lat="45.02223" lon="1.57219">
        <ele>315</ele>
        <time>2012-05-01T15:21:27Z</time>
      </trkpt>
      <trkpt lat="45.02218" lon="1.57215">
        <ele>314</ele>
        <time>2012-05-01T15:21:30Z</time>
      </trkpt>
      <trkpt lat="45.02207" lon="1.57211">
        <ele>316</ele>
        <time>2012-05-01T15:21:36Z</time>
      </trkpt>
      <trkpt lat="45.02202" lon="1.57208">
        <ele>316</ele>
        <time>2012-05-01T15:21:39Z</time>
      </trkpt>
      <trkpt lat="45.02197" lon="1.57206">
        <ele>316</ele>
        <time>2012-05-01T15:21:43Z</time>
      </trkpt>
      <trkpt lat="45.02193" lon="1.57204">
        <ele>318</ele>
        <time>2012-05-01T15:22:04Z</time>
      </trkpt>
      <trkpt lat="45.02187" lon="1.57203">
        <ele>316</ele>
        <time>2012-05-01T15:22:09Z</time>
      </trkpt>
      <trkpt lat="45.02176" lon="1.57198">
        <ele>320</ele>
        <time>2012-05-01T15:22:31Z</time>
      </trkpt>
      <trkpt lat="45.02151" lon="1.57195">
        <ele>318</ele>
        <time>2012-05-01T15:22:48Z</time>
      </trkpt>
      <trkpt lat="45.02145" lon="1.57195">
        <ele>318</ele>
        <time>2012-05-01T15:22:52Z</time>
      </trkpt>
      <trkpt lat="45.0214" lon="1.57195">
        <ele>319</ele>
        <time>2012-05-01T15:22:56Z</time>
      </trkpt>
      <trkpt lat="45.0213" lon="1.57196">
        <ele>318</ele>
        <time>2012-05-01T15:23:02Z</time>
      </trkpt>
      <trkpt lat="45.02118" lon="1.57195">
        <ele>317</ele>
        <time>2012-05-01T15:23:11Z</time>
      </trkpt>
      <trkpt lat="45.02103" lon="1.5719">
        <ele>317</ele>
        <time>2012-05-01T15:23:22Z</time>
      </trkpt>
      <trkpt lat="45.02092" lon="1.57188">
        <ele>318</ele>
        <time>2012-05-01T15:23:29Z</time>
      </trkpt>
      <trkpt lat="45.02077" lon="1.57194">
        <ele>321</ele>
        <time>2012-05-01T15:23:38Z</time>
      </trkpt>
      <trkpt lat="45.02056" lon="1.57214">
        <ele>321</ele>
        <time>2012-05-01T15:23:55Z</time>
      </trkpt>
      <trkpt lat="45.02043" lon="1.57224">
        <ele>319</ele>
        <time>2012-05-01T15:24:06Z</time>
      </trkpt>
      <trkpt lat="45.02038" lon="1.57228">
        <ele>319</ele>
        <time>2012-05-01T15:24:09Z</time>
      </trkpt>
      <trkpt lat="45.02033" lon="1.57231">
        <ele>318</ele>
        <time>2012-05-01T15:24:13Z</time>
      </trkpt>
      <trkpt lat="45.0203" lon="1.57233">
        <ele>318</ele>
        <time>2012-05-01T15:24:22Z</time>
      </trkpt>
      <trkpt lat="45.02015" lon="1.57243">
        <ele>320</ele>
        <time>2012-05-01T15:24:35Z</time>
      </trkpt>
      <trkpt lat="45.0201" lon="1.57247">
        <ele>320</ele>
        <time>2012-05-01T15:24:39Z</time>
      </trkpt>
      <trkpt lat="45.01964" lon="1.57284">
        <ele>315</ele>
        <time>2012-05-01T15:25:19Z</time>
      </trkpt>
      <trkpt lat="45.01959" lon="1.57288">
        <ele>315</ele>
        <time>2012-05-01T15:25:23Z</time>
      </trkpt>
      <trkpt lat="45.01954" lon="1.57293">
        <ele>314</ele>
        <time>2012-05-01T15:25:28Z</time>
      </trkpt>
      <trkpt lat="45.01945" lon="1.57301">
        <ele>313</ele>
        <time>2012-05-01T15:25:35Z</time>
      </trkpt>
      <trkpt lat="45.0193" lon="1.57309">
        <ele>315</ele>
        <time>2012-05-01T15:25:45Z</time>
      </trkpt>
      <trkpt lat="45.01921" lon="1.57316">
        <ele>314</ele>
        <time>2012-05-01T15:25:56Z</time>
      </trkpt>
      <trkpt lat="45.01917" lon="1.5732">
        <ele>314</ele>
        <time>2012-05-01T15:25:59Z</time>
      </trkpt>
      <trkpt lat="45.01908" lon="1.57329">
        <ele>315</ele>
        <time>2012-05-01T15:26:06Z</time>
      </trkpt>
      <trkpt lat="45.01903" lon="1.57331">
        <ele>315</ele>
        <time>2012-05-01T15:26:09Z</time>
      </trkpt>
      <trkpt lat="45.01897" lon="1.57334">
        <ele>315</ele>
        <time>2012-05-01T15:26:12Z</time>
      </trkpt>
      <trkpt lat="45.01878" lon="1.57345">
        <ele>319</ele>
        <time>2012-05-01T15:26:25Z</time>
      </trkpt>
      <trkpt lat="45.01873" lon="1.57347">
        <ele>320</ele>
        <time>2012-05-01T15:26:28Z</time>
      </trkpt>
      <trkpt lat="45.01868" lon="1.57351">
        <ele>319</ele>
        <time>2012-05-01T15:26:32Z</time>
      </trkpt>
      <trkpt lat="45.01853" lon="1.57358">
        <ele>320</ele>
        <time>2012-05-01T15:26:43Z</time>
      </trkpt>
      <trkpt lat="45.01843" lon="1.57361">
        <ele>318</ele>
        <time>2012-05-01T15:26:49Z</time>
      </trkpt>
      <trkpt lat="45.01839" lon="1.57364">
        <ele>318</ele>
        <time>2012-05-01T15:26:52Z</time>
      </trkpt>
      <trkpt lat="45.01807" lon="1.57378">
        <ele>312</ele>
        <time>2012-05-01T15:27:14Z</time>
      </trkpt>
      <trkpt lat="45.01788" lon="1.57388">
        <ele>311</ele>
        <time>2012-05-01T15:27:28Z</time>
      </trkpt>
      <trkpt lat="45.01765" lon="1.5741">
        <ele>314</ele>
        <time>2012-05-01T15:27:49Z</time>
      </trkpt>
      <trkpt lat="45.01748" lon="1.57434">
        <ele>314</ele>
        <time>2012-05-01T15:28:06Z</time>
      </trkpt>
      <trkpt lat="45.01721" lon="1.5747">
        <ele>310</ele>
        <time>2012-05-01T15:28:44Z</time>
      </trkpt>
      <trkpt lat="45.0171" lon="1.57477">
        <ele>311</ele>
        <time>2012-05-01T15:29:00Z</time>
      </trkpt>
      <trkpt lat="45.01701" lon="1.57484">
        <ele>309</ele>
        <time>2012-05-01T15:29:06Z</time>
      </trkpt>
      <trkpt lat="45.01661" lon="1.57524">
        <ele>309</ele>
        <time>2012-05-01T15:29:38Z</time>
      </trkpt>
      <trkpt lat="45.01652" lon="1.57531">
        <ele>308</ele>
        <time>2012-05-01T15:29:44Z</time>
      </trkpt>
      <trkpt lat="45.01627" lon="1.57551">
        <ele>306</ele>
        <time>2012-05-01T15:30:03Z</time>
      </trkpt>
      <trkpt lat="45.0161" lon="1.57565">
        <ele>306</ele>
        <time>2012-05-01T15:30:19Z</time>
      </trkpt>
      <trkpt lat="45.01602" lon="1.57575">
        <ele>307</ele>
        <time>2012-05-01T15:30:26Z</time>
      </trkpt>
      <trkpt lat="45.01593" lon="1.57582">
        <ele>307</ele>
        <time>2012-05-01T15:30:32Z</time>
      </trkpt>
      <trkpt lat="45.01582" lon="1.57587">
        <ele>306</ele>
        <time>2012-05-01T15:30:37Z</time>
      </trkpt>
      <trkpt lat="45.01551" lon="1.57603">
        <ele>313</ele>
        <time>2012-05-01T15:31:13Z</time>
      </trkpt>
      <trkpt lat="45.01542" lon="1.57606">
        <ele>313</ele>
        <time>2012-05-01T15:31:18Z</time>
      </trkpt>
      <trkpt lat="45.01523" lon="1.5761">
        <ele>316</ele>
        <time>2012-05-01T15:31:30Z</time>
      </trkpt>
      <trkpt lat="45.01517" lon="1.5761">
        <ele>316</ele>
        <time>2012-05-01T15:31:33Z</time>
      </trkpt>
      <trkpt lat="45.01507" lon="1.57611">
        <ele>316</ele>
        <time>2012-05-01T15:31:41Z</time>
      </trkpt>
      <trkpt lat="45.01492" lon="1.5761">
        <ele>317</ele>
        <time>2012-05-01T15:31:49Z</time>
      </trkpt>
      <trkpt lat="45.01476" lon="1.57611">
        <ele>317</ele>
        <time>2012-05-01T15:31:59Z</time>
      </trkpt>
      <trkpt lat="45.01467" lon="1.57611">
        <ele>318</ele>
        <time>2012-05-01T15:32:04Z</time>
      </trkpt>
      <trkpt lat="45.01444" lon="1.57608">
        <ele>322</ele>
        <time>2012-05-01T15:32:19Z</time>
      </trkpt>
      <trkpt lat="45.01439" lon="1.57608">
        <ele>322</ele>
        <time>2012-05-01T15:32:22Z</time>
      </trkpt>
      <trkpt lat="45.01434" lon="1.57609">
        <ele>322</ele>
        <time>2012-05-01T15:32:25Z</time>
      </trkpt>
      <trkpt lat="45.01428" lon="1.5761">
        <ele>322</ele>
        <time>2012-05-01T15:32:29Z</time>
      </trkpt>
      <trkpt lat="45.01414" lon="1.57604">
        <ele>321</ele>
        <time>2012-05-01T15:32:38Z</time>
      </trkpt>
      <trkpt lat="45.01409" lon="1.57603">
        <ele>321</ele>
        <time>2012-05-01T15:32:42Z</time>
      </trkpt>
      <trkpt lat="45.01397" lon="1.57606">
        <ele>323</ele>
        <time>2012-05-01T15:32:50Z</time>
      </trkpt>
      <trkpt lat="45.01383" lon="1.57603">
        <ele>324</ele>
        <time>2012-05-01T15:33:08Z</time>
      </trkpt>
      <trkpt lat="45.01373" lon="1.57606">
        <ele>322</ele>
        <time>2012-05-01T15:33:15Z</time>
      </trkpt>
      <trkpt lat="45.01363" lon="1.5761">
        <ele>323</ele>
        <time>2012-05-01T15:33:22Z</time>
      </trkpt>
      <trkpt lat="45.01358" lon="1.57612">
        <ele>324</ele>
        <time>2012-05-01T15:33:26Z</time>
      </trkpt>
      <trkpt lat="45.01341" lon="1.57617">
        <ele>323</ele>
        <time>2012-05-01T15:33:37Z</time>
      </trkpt>
      <trkpt lat="45.01335" lon="1.57619">
        <ele>324</ele>
        <time>2012-05-01T15:33:42Z</time>
      </trkpt>
      <trkpt lat="45.01309" lon="1.57623">
        <ele>319</ele>
        <time>2012-05-01T15:34:18Z</time>
      </trkpt>
      <trkpt lat="45.01303" lon="1.57621">
        <ele>320</ele>
        <time>2012-05-01T15:34:22Z</time>
      </trkpt>
      <trkpt lat="45.01293" lon="1.57623">
        <ele>317</ele>
        <time>2012-05-01T15:34:39Z</time>
      </trkpt>
      <trkpt lat="45.01281" lon="1.57619">
        <ele>318</ele>
        <time>2012-05-01T15:34:53Z</time>
      </trkpt>
      <trkpt lat="45.01264" lon="1.57616">
        <ele>318</ele>
        <time>2012-05-01T15:35:01Z</time>
      </trkpt>
      <trkpt lat="45.01215" lon="1.57607">
        <ele>311</ele>
        <time>2012-05-01T15:35:37Z</time>
      </trkpt>
      <trkpt lat="45.01173" lon="1.57606">
        <ele>306</ele>
        <time>2012-05-01T15:36:03Z</time>
      </trkpt>
      <trkpt lat="45.01165" lon="1.57615">
        <ele>306</ele>
        <time>2012-05-01T15:36:09Z</time>
      </trkpt>
      <trkpt lat="45.01156" lon="1.5762">
        <ele>306</ele>
        <time>2012-05-01T15:36:15Z</time>
      </trkpt>
      <trkpt lat="45.01146" lon="1.57622">
        <ele>305</ele>
        <time>2012-05-01T15:36:22Z</time>
      </trkpt>
      <trkpt lat="45.01134" lon="1.57628">
        <ele>306</ele>
        <time>2012-05-01T15:36:30Z</time>
      </trkpt>
      <trkpt lat="45.01127" lon="1.57637">
        <ele>307</ele>
        <time>2012-05-01T15:36:37Z</time>
      </trkpt>
      <trkpt lat="45.0111" lon="1.57649">
        <ele>305</ele>
        <time>2012-05-01T15:36:51Z</time>
      </trkpt>
      <trkpt lat="45.01102" lon="1.57654">
        <ele>305</ele>
        <time>2012-05-01T15:36:57Z</time>
      </trkpt>
      <trkpt lat="45.01097" lon="1.57657">
        <ele>305</ele>
        <time>2012-05-01T15:37:00Z</time>
      </trkpt>
      <trkpt lat="45.01086" lon="1.57671">
        <ele>304</ele>
        <time>2012-05-01T15:37:09Z</time>
      </trkpt>
      <trkpt lat="45.01082" lon="1.57674">
        <ele>305</ele>
        <time>2012-05-01T15:37:12Z</time>
      </trkpt>
      <trkpt lat="45.01063" lon="1.57684">
        <ele>311</ele>
        <time>2012-05-01T15:37:29Z</time>
      </trkpt>
      <trkpt lat="45.01057" lon="1.57686">
        <ele>311</ele>
        <time>2012-05-01T15:37:33Z</time>
      </trkpt>
      <trkpt lat="45.01013" lon="1.57679">
        <ele>315</ele>
        <time>2012-05-01T15:38:05Z</time>
      </trkpt>
      <trkpt lat="45.01008" lon="1.57682">
        <ele>315</ele>
        <time>2012-05-01T15:38:09Z</time>
      </trkpt>
      <trkpt lat="45.01001" lon="1.57692">
        <ele>313</ele>
        <time>2012-05-01T15:38:16Z</time>
      </trkpt>
      <trkpt lat="45.0098" lon="1.57716">
        <ele>318</ele>
        <time>2012-05-01T15:38:32Z</time>
      </trkpt>
      <trkpt lat="45.00971" lon="1.57725">
        <ele>319</ele>
        <time>2012-05-01T15:38:40Z</time>
      </trkpt>
      <trkpt lat="45.00967" lon="1.57731">
        <ele>319</ele>
        <time>2012-05-01T15:38:43Z</time>
      </trkpt>
      <trkpt lat="45.00963" lon="1.57734">
        <ele>318</ele>
        <time>2012-05-01T15:38:46Z</time>
      </trkpt>
      <trkpt lat="45.00925" lon="1.57781">
        <ele>316</ele>
        <time>2012-05-01T15:39:18Z</time>
      </trkpt>
      <trkpt lat="45.00916" lon="1.57788">
        <ele>316</ele>
        <time>2012-05-01T15:39:24Z</time>
      </trkpt>
      <trkpt lat="45.00895" lon="1.5782">
        <ele>319</ele>
        <time>2012-05-01T15:39:44Z</time>
      </trkpt>
      <trkpt lat="45.00892" lon="1.57826">
        <ele>318</ele>
        <time>2012-05-01T15:39:48Z</time>
      </trkpt>
      <trkpt lat="45.00888" lon="1.57832">
        <ele>318</ele>
        <time>2012-05-01T15:39:51Z</time>
      </trkpt>
      <trkpt lat="45.00881" lon="1.5784">
        <ele>319</ele>
        <time>2012-05-01T15:39:57Z</time>
      </trkpt>
      <trkpt lat="45.00876" lon="1.57852">
        <ele>320</ele>
        <time>2012-05-01T15:40:05Z</time>
      </trkpt>
      <trkpt lat="45.00872" lon="1.57858">
        <ele>320</ele>
        <time>2012-05-01T15:40:09Z</time>
      </trkpt>
      <trkpt lat="45.00868" lon="1.57862">
        <ele>320</ele>
        <time>2012-05-01T15:40:12Z</time>
      </trkpt>
      <trkpt lat="45.00854" lon="1.57877">
        <ele>320</ele>
        <time>2012-05-01T15:40:25Z</time>
      </trkpt>
      <trkpt lat="45.00851" lon="1.57882">
        <ele>321</ele>
        <time>2012-05-01T15:40:30Z</time>
      </trkpt>
      <trkpt lat="45.00848" lon="1.57883">
        <ele>320</ele>
        <time>2012-05-01T15:40:41Z</time>
      </trkpt>
      <trkpt lat="45.00827" lon="1.57905">
        <ele>323</ele>
        <time>2012-05-01T15:41:00Z</time>
      </trkpt>
      <trkpt lat="45.00802" lon="1.57937">
        <ele>320</ele>
        <time>2012-05-01T15:41:21Z</time>
      </trkpt>
      <trkpt lat="45.00778" lon="1.57967">
        <ele>324</ele>
        <time>2012-05-01T15:41:51Z</time>
      </trkpt>
      <trkpt lat="45.00766" lon="1.57982">
        <ele>324</ele>
        <time>2012-05-01T15:42:02Z</time>
      </trkpt>
      <trkpt lat="45.00755" lon="1.57998">
        <ele>321</ele>
        <time>2012-05-01T15:42:13Z</time>
      </trkpt>
      <trkpt lat="45.00752" lon="1.58002">
        <ele>321</ele>
        <time>2012-05-01T15:42:17Z</time>
      </trkpt>
      <trkpt lat="45.00747" lon="1.58008">
        <ele>319</ele>
        <time>2012-05-01T15:42:30Z</time>
      </trkpt>
      <trkpt lat="45.0074" lon="1.58015">
        <ele>318</ele>
        <time>2012-05-01T15:42:36Z</time>
      </trkpt>
      <trkpt lat="45.00733" lon="1.5802">
        <ele>318</ele>
        <time>2012-05-01T15:42:42Z</time>
      </trkpt>
      <trkpt lat="45.00728" lon="1.58023">
        <ele>318</ele>
        <time>2012-05-01T15:42:45Z</time>
      </trkpt>
      <trkpt lat="45.00723" lon="1.58026">
        <ele>318</ele>
        <time>2012-05-01T15:42:48Z</time>
      </trkpt>
      <trkpt lat="45.00719" lon="1.5803">
        <ele>320</ele>
        <time>2012-05-01T15:42:53Z</time>
      </trkpt>
      <trkpt lat="45.00715" lon="1.58035">
        <ele>320</ele>
        <time>2012-05-01T15:42:58Z</time>
      </trkpt>
      <trkpt lat="45.00706" lon="1.58042">
        <ele>320</ele>
        <time>2012-05-01T15:43:05Z</time>
      </trkpt>
      <trkpt lat="45.00698" lon="1.58047">
        <ele>320</ele>
        <time>2012-05-01T15:43:12Z</time>
      </trkpt>
      <trkpt lat="45.00694" lon="1.58051">
        <ele>321</ele>
        <time>2012-05-01T15:43:16Z</time>
      </trkpt>
      <trkpt lat="45.00689" lon="1.58054">
        <ele>321</ele>
        <time>2012-05-01T15:43:20Z</time>
      </trkpt>
      <trkpt lat="45.00674" lon="1.58067">
        <ele>320</ele>
        <time>2012-05-01T15:43:32Z</time>
      </trkpt>
      <trkpt lat="45.00665" lon="1.58071">
        <ele>321</ele>
        <time>2012-05-01T15:43:38Z</time>
      </trkpt>
      <trkpt lat="45.00656" lon="1.58079">
        <ele>320</ele>
        <time>2012-05-01T15:43:46Z</time>
      </trkpt>
      <trkpt lat="45.00649" lon="1.58089">
        <ele>317</ele>
        <time>2012-05-01T15:43:55Z</time>
      </trkpt>
      <trkpt lat="45.00637" lon="1.58102">
        <ele>319</ele>
        <time>2012-05-01T15:44:06Z</time>
      </trkpt>
      <trkpt lat="45.00632" lon="1.58107">
        <ele>319</ele>
        <time>2012-05-01T15:44:10Z</time>
      </trkpt>
      <trkpt lat="45.00613" lon="1.58121">
        <ele>317</ele>
        <time>2012-05-01T15:44:24Z</time>
      </trkpt>
      <trkpt lat="45.00603" lon="1.58128">
        <ele>315</ele>
        <time>2012-05-01T15:44:32Z</time>
      </trkpt>
      <trkpt lat="45.00594" lon="1.58134">
        <ele>316</ele>
        <time>2012-05-01T15:44:40Z</time>
      </trkpt>
      <trkpt lat="45.0059" lon="1.58138">
        <ele>315</ele>
        <time>2012-05-01T15:44:43Z</time>
      </trkpt>
      <trkpt lat="45.00587" lon="1.58143">
        <ele>314</ele>
        <time>2012-05-01T15:44:59Z</time>
      </trkpt>
      <trkpt lat="45.00584" lon="1.58149">
        <ele>316</ele>
        <time>2012-05-01T15:45:06Z</time>
      </trkpt>
      <trkpt lat="45.00579" lon="1.58152">
        <ele>316</ele>
        <time>2012-05-01T15:45:09Z</time>
      </trkpt>
      <trkpt lat="45.00573" lon="1.58156">
        <ele>316</ele>
        <time>2012-05-01T15:45:13Z</time>
      </trkpt>
      <trkpt lat="45.00568" lon="1.58159">
        <ele>315</ele>
        <time>2012-05-01T15:45:17Z</time>
      </trkpt>
      <trkpt lat="45.00559" lon="1.58165">
        <ele>316</ele>
        <time>2012-05-01T15:45:25Z</time>
      </trkpt>
      <trkpt lat="45.00551" lon="1.58168">
        <ele>317</ele>
        <time>2012-05-01T15:45:35Z</time>
      </trkpt>
      <trkpt lat="45.00542" lon="1.58179">
        <ele>318</ele>
        <time>2012-05-01T15:45:45Z</time>
      </trkpt>
      <trkpt lat="45.00538" lon="1.58182">
        <ele>318</ele>
        <time>2012-05-01T15:45:48Z</time>
      </trkpt>
      <trkpt lat="45.00503" lon="1.58209">
        <ele>312</ele>
        <time>2012-05-01T15:46:14Z</time>
      </trkpt>
      <trkpt lat="45.00485" lon="1.58219">
        <ele>313</ele>
        <time>2012-05-01T15:46:27Z</time>
      </trkpt>
      <trkpt lat="45.00466" lon="1.5822">
        <ele>311</ele>
        <time>2012-05-01T15:46:40Z</time>
      </trkpt>
      <trkpt lat="45.00454" lon="1.58222">
        <ele>307</ele>
        <time>2012-05-01T15:47:12Z</time>
      </trkpt>
      <trkpt lat="45.00411" lon="1.5821">
        <ele>303</ele>
        <time>2012-05-01T15:47:42Z</time>
      </trkpt>
      <trkpt lat="45.00398" lon="1.58202">
        <ele>303</ele>
        <time>2012-05-01T15:47:51Z</time>
      </trkpt>
      <trkpt lat="45.00389" lon="1.58199">
        <ele>304</ele>
        <time>2012-05-01T15:47:59Z</time>
      </trkpt>
      <trkpt lat="45.00384" lon="1.582">
        <ele>305</ele>
        <time>2012-05-01T15:48:04Z</time>
      </trkpt>
      <trkpt lat="45.00379" lon="1.58201">
        <ele>305</ele>
        <time>2012-05-01T15:48:08Z</time>
      </trkpt>
      <trkpt lat="45.00369" lon="1.58204">
        <ele>305</ele>
        <time>2012-05-01T15:48:15Z</time>
      </trkpt>
      <trkpt lat="45.0036" lon="1.58209">
        <ele>306</ele>
        <time>2012-05-01T15:48:23Z</time>
      </trkpt>
      <trkpt lat="45.00349" lon="1.5821">
        <ele>305</ele>
        <time>2012-05-01T15:48:29Z</time>
      </trkpt>
      <trkpt lat="45.00325" lon="1.58205">
        <ele>301</ele>
        <time>2012-05-01T15:48:42Z</time>
      </trkpt>
      <trkpt lat="45.0032" lon="1.58204">
        <ele>301</ele>
        <time>2012-05-01T15:48:45Z</time>
      </trkpt>
      <trkpt lat="45.00309" lon="1.58204">
        <ele>300</ele>
        <time>2012-05-01T15:48:54Z</time>
      </trkpt>
      <trkpt lat="45.00291" lon="1.58205">
        <ele>302</ele>
        <time>2012-05-01T15:49:06Z</time>
      </trkpt>
      <trkpt lat="45.00259" lon="1.58216">
        <ele>298</ele>
        <time>2012-05-01T15:49:26Z</time>
      </trkpt>
      <trkpt lat="45.00245" lon="1.58223">
        <ele>299</ele>
        <time>2012-05-01T15:49:36Z</time>
      </trkpt>
      <trkpt lat="45.0024" lon="1.58224">
        <ele>299</ele>
        <time>2012-05-01T15:49:39Z</time>
      </trkpt>
      <trkpt lat="45.00227" lon="1.58231">
        <ele>297</ele>
        <time>2012-05-01T15:49:51Z</time>
      </trkpt>
      <trkpt lat="45.00217" lon="1.58232">
        <ele>298</ele>
        <time>2012-05-01T15:50:03Z</time>
      </trkpt>
      <trkpt lat="45.00201" lon="1.58245">
        <ele>303</ele>
        <time>2012-05-01T15:50:21Z</time>
      </trkpt>
      <trkpt lat="45.00163" lon="1.58275">
        <ele>292</ele>
        <time>2012-05-01T15:50:55Z</time>
      </trkpt>
      <trkpt lat="45.0012" lon="1.58313">
        <ele>281</ele>
        <time>2012-05-01T15:51:32Z</time>
      </trkpt>
      <trkpt lat="45.00116" lon="1.58327">
        <ele>280</ele>
        <time>2012-05-01T15:51:39Z</time>
      </trkpt>
      <trkpt lat="45.00115" lon="1.58356">
        <ele>279</ele>
        <time>2012-05-01T15:51:50Z</time>
      </trkpt>
      <trkpt lat="45.00123" lon="1.58395">
        <ele>285</ele>
        <time>2012-05-01T15:52:10Z</time>
      </trkpt>
      <trkpt lat="45.00123" lon="1.58454">
        <ele>288</ele>
        <time>2012-05-01T15:52:37Z</time>
      </trkpt>
      <trkpt lat="45.00115" lon="1.58531">
        <ele>300</ele>
        <time>2012-05-01T15:53:08Z</time>
      </trkpt>
      <trkpt lat="45.00105" lon="1.58548">
        <ele>299</ele>
        <time>2012-05-01T15:53:17Z</time>
      </trkpt>
      <trkpt lat="45.00101" lon="1.58555">
        <ele>301</ele>
        <time>2012-05-01T15:53:23Z</time>
      </trkpt>
      <trkpt lat="45.00098" lon="1.5856">
        <ele>301</ele>
        <time>2012-05-01T15:53:25Z</time>
      </trkpt>
      <trkpt lat="45.00083" lon="1.58595">
        <ele>307</ele>
        <time>2012-05-01T15:53:47Z</time>
      </trkpt>
      <trkpt lat="45.00076" lon="1.586">
        <ele>309</ele>
        <time>2012-05-01T15:53:53Z</time>
      </trkpt>
      <trkpt lat="45.00067" lon="1.58605">
        <ele>310</ele>
        <time>2012-05-01T15:53:59Z</time>
      </trkpt>
      <trkpt lat="45.00052" lon="1.58622">
        <ele>306</ele>
        <time>2012-05-01T15:54:14Z</time>
      </trkpt>
      <trkpt lat="45.00032" lon="1.58642">
        <ele>304</ele>
        <time>2012-05-01T15:54:31Z</time>
      </trkpt>
      <trkpt lat="45.00029" lon="1.58648">
        <ele>303</ele>
        <time>2012-05-01T15:54:35Z</time>
      </trkpt>
      <trkpt lat="45.00024" lon="1.58652">
        <ele>303</ele>
        <time>2012-05-01T15:54:39Z</time>
      </trkpt>
      <trkpt lat="45.00014" lon="1.58659">
        <ele>301</ele>
        <time>2012-05-01T15:54:47Z</time>
      </trkpt>
      <trkpt lat="45.0001" lon="1.58662">
        <ele>302</ele>
        <time>2012-05-01T15:54:50Z</time>
      </trkpt>
      <trkpt lat="44.99978" lon="1.58666">
        <ele>298</ele>
        <time>2012-05-01T15:55:09Z</time>
      </trkpt>
      <trkpt lat="44.99965" lon="1.58678">
        <ele>295</ele>
        <time>2012-05-01T15:55:22Z</time>
      </trkpt>
      <trkpt lat="44.99956" lon="1.58685">
        <ele>294</ele>
        <time>2012-05-01T15:55:31Z</time>
      </trkpt>
      <trkpt lat="44.99932" lon="1.58713">
        <ele>288</ele>
        <time>2012-05-01T15:55:54Z</time>
      </trkpt>
      <trkpt lat="44.99925" lon="1.58724">
        <ele>287</ele>
        <time>2012-05-01T15:55:58Z</time>
      </trkpt>
      <trkpt lat="44.99899" lon="1.58751">
        <ele>279</ele>
        <time>2012-05-01T15:56:32Z</time>
      </trkpt>
      <trkpt lat="44.99884" lon="1.58769">
        <ele>280</ele>
        <time>2012-05-01T15:56:59Z</time>
      </trkpt>
      <trkpt lat="44.99881" lon="1.58781">
        <ele>280</ele>
        <time>2012-05-01T15:57:05Z</time>
      </trkpt>
      <trkpt lat="44.99878" lon="1.58794">
        <ele>279</ele>
        <time>2012-05-01T15:57:11Z</time>
      </trkpt>
      <trkpt lat="44.99865" lon="1.58815">
        <ele>278</ele>
        <time>2012-05-01T15:57:22Z</time>
      </trkpt>
      <trkpt lat="44.99863" lon="1.58821">
        <ele>278</ele>
        <time>2012-05-01T15:57:24Z</time>
      </trkpt>
      <trkpt lat="44.99854" lon="1.58838">
        <ele>274</ele>
        <time>2012-05-01T15:57:35Z</time>
      </trkpt>
      <trkpt lat="44.99841" lon="1.58864">
        <ele>273</ele>
        <time>2012-05-01T15:57:51Z</time>
      </trkpt>
      <trkpt lat="44.99836" lon="1.58874">
        <ele>273</ele>
        <time>2012-05-01T15:57:57Z</time>
      </trkpt>
      <trkpt lat="44.99809" lon="1.58934">
        <ele>266</ele>
        <time>2012-05-01T15:58:33Z</time>
      </trkpt>
      <trkpt lat="44.99802" lon="1.58944">
        <ele>265</ele>
        <time>2012-05-01T15:58:39Z</time>
      </trkpt>
      <trkpt lat="44.99766" lon="1.59006">
        <ele>265</ele>
        <time>2012-05-01T15:59:13Z</time>
      </trkpt>
      <trkpt lat="44.99763" lon="1.59011">
        <ele>265</ele>
        <time>2012-05-01T15:59:17Z</time>
      </trkpt>
      <trkpt lat="44.99761" lon="1.59019">
        <ele>265</ele>
        <time>2012-05-01T15:59:21Z</time>
      </trkpt>
      <trkpt lat="44.99756" lon="1.59036">
        <ele>262</ele>
        <time>2012-05-01T15:59:39Z</time>
      </trkpt>
      <trkpt lat="44.99757" lon="1.59051">
        <ele>262</ele>
        <time>2012-05-01T15:59:44Z</time>
      </trkpt>
      <trkpt lat="44.99767" lon="1.59076">
        <ele>258</ele>
        <time>2012-05-01T15:59:58Z</time>
      </trkpt>
      <trkpt lat="44.99782" lon="1.59114">
        <ele>264</ele>
        <time>2012-05-01T16:00:20Z</time>
      </trkpt>
      <trkpt lat="44.99786" lon="1.59131">
        <ele>264</ele>
        <time>2012-05-01T16:00:28Z</time>
      </trkpt>
      <trkpt lat="44.99792" lon="1.59141">
        <ele>265</ele>
        <time>2012-05-01T16:00:36Z</time>
      </trkpt>
      <trkpt lat="44.99795" lon="1.59171">
        <ele>264</ele>
        <time>2012-05-01T16:00:48Z</time>
      </trkpt>
      <trkpt lat="44.99798" lon="1.59185">
        <ele>263</ele>
        <time>2012-05-01T16:00:55Z</time>
      </trkpt>
      <trkpt lat="44.9981" lon="1.59207">
        <ele>267</ele>
        <time>2012-05-01T16:01:09Z</time>
      </trkpt>
      <trkpt lat="44.99808" lon="1.592">
        <ele>266</ele>
        <time>2012-05-01T16:01:26Z</time>
      </trkpt>
      <trkpt lat="44.99801" lon="1.59189">
        <ele>266</ele>
        <time>2012-05-01T16:01:34Z</time>
      </trkpt>
      <trkpt lat="44.9979" lon="1.59186">
        <ele>266</ele>
        <time>2012-05-01T16:01:46Z</time>
      </trkpt>
      <trkpt lat="44.99788" lon="1.59201">
        <ele>265</ele>
        <time>2012-05-01T16:02:05Z</time>
      </trkpt>
      <trkpt lat="44.99786" lon="1.59215">
        <ele>263</ele>
        <time>2012-05-01T16:02:12Z</time>
      </trkpt>
      <trkpt lat="44.99779" lon="1.59233">
        <ele>268</ele>
        <time>2012-05-01T16:02:34Z</time>
      </trkpt>
      <trkpt lat="44.99772" lon="1.59246">
        <ele>267</ele>
        <time>2012-05-01T16:02:41Z</time>
      </trkpt>
      <trkpt lat="44.99767" lon="1.59263">
        <ele>262</ele>
        <time>2012-05-01T16:02:56Z</time>
      </trkpt>
      <trkpt lat="44.99757" lon="1.59271">
        <ele>261</ele>
        <time>2012-05-01T16:03:04Z</time>
      </trkpt>
      <trkpt lat="44.99743" lon="1.59291">
        <ele>258</ele>
        <time>2012-05-01T16:03:15Z</time>
      </trkpt>
      <trkpt lat="44.99736" lon="1.59301">
        <ele>257</ele>
        <time>2012-05-01T16:03:22Z</time>
      </trkpt>
      <trkpt lat="44.99719" lon="1.59334">
        <ele>257</ele>
        <time>2012-05-01T16:03:37Z</time>
      </trkpt>
      <trkpt lat="44.99713" lon="1.59348">
        <ele>258</ele>
        <time>2012-05-01T16:03:45Z</time>
      </trkpt>
      <trkpt lat="44.99708" lon="1.59359">
        <ele>258</ele>
        <time>2012-05-01T16:03:51Z</time>
      </trkpt>
      <trkpt lat="44.99685" lon="1.59396">
        <ele>262</ele>
        <time>2012-05-01T16:04:21Z</time>
      </trkpt>
      <trkpt lat="44.99677" lon="1.59407">
        <ele>262</ele>
        <time>2012-05-01T16:04:26Z</time>
      </trkpt>
      <trkpt lat="44.99654" lon="1.59449">
        <ele>269</ele>
        <time>2012-05-01T16:04:52Z</time>
      </trkpt>
      <trkpt lat="44.99626" lon="1.59482">
        <ele>266</ele>
        <time>2012-05-01T16:05:24Z</time>
      </trkpt>
      <trkpt lat="44.99622" lon="1.59487">
        <ele>266</ele>
        <time>2012-05-01T16:05:27Z</time>
      </trkpt>
      <trkpt lat="44.99621" lon="1.59496">
        <ele>267</ele>
        <time>2012-05-01T16:05:33Z</time>
      </trkpt>
      <trkpt lat="44.99622" lon="1.59502">
        <ele>270</ele>
        <time>2012-05-01T16:05:42Z</time>
      </trkpt>
      <trkpt lat="44.9962" lon="1.59509">
        <ele>272</ele>
        <time>2012-05-01T16:06:00Z</time>
      </trkpt>
      <trkpt lat="44.99614" lon="1.59562">
        <ele>264</ele>
        <time>2012-05-01T16:06:30Z</time>
      </trkpt>
      <trkpt lat="44.99605" lon="1.59601">
        <ele>257</ele>
        <time>2012-05-01T16:06:53Z</time>
      </trkpt>
      <trkpt lat="44.99603" lon="1.59614">
        <ele>257</ele>
        <time>2012-05-01T16:06:58Z</time>
      </trkpt>
      <trkpt lat="44.99603" lon="1.5963">
        <ele>257</ele>
        <time>2012-05-01T16:07:04Z</time>
      </trkpt>
      <trkpt lat="44.99603" lon="1.59644">
        <ele>256</ele>
        <time>2012-05-01T16:07:09Z</time>
      </trkpt>
      <trkpt lat="44.9961" lon="1.59655">
        <ele>255</ele>
        <time>2012-05-01T16:07:16Z</time>
      </trkpt>
      <trkpt lat="44.99637" lon="1.59698">
        <ele>247</ele>
        <time>2012-05-01T16:07:48Z</time>
      </trkpt>
      <trkpt lat="44.9964" lon="1.59706">
        <ele>247</ele>
        <time>2012-05-01T16:07:52Z</time>
      </trkpt>
      <trkpt lat="44.99642" lon="1.59713">
        <ele>247</ele>
        <time>2012-05-01T16:07:57Z</time>
      </trkpt>
      <trkpt lat="44.99651" lon="1.59735">
        <ele>250</ele>
        <time>2012-05-01T16:08:09Z</time>
      </trkpt>
      <trkpt lat="44.99658" lon="1.59759">
        <ele>247</ele>
        <time>2012-05-01T16:08:21Z</time>
      </trkpt>
      <trkpt lat="44.99659" lon="1.59766">
        <ele>247</ele>
        <time>2012-05-01T16:08:25Z</time>
      </trkpt>
      <trkpt lat="44.9966" lon="1.59774">
        <ele>247</ele>
        <time>2012-05-01T16:08:28Z</time>
      </trkpt>
      <trkpt lat="44.99663" lon="1.59811">
        <ele>246</ele>
        <time>2012-05-01T16:08:45Z</time>
      </trkpt>
      <trkpt lat="44.99666" lon="1.59821">
        <ele>246</ele>
        <time>2012-05-01T16:08:54Z</time>
      </trkpt>
      <trkpt lat="44.99668" lon="1.59827">
        <ele>245</ele>
        <time>2012-05-01T16:09:17Z</time>
      </trkpt>
      <trkpt lat="44.99679" lon="1.59859">
        <ele>246</ele>
        <time>2012-05-01T16:09:35Z</time>
      </trkpt>
      <trkpt lat="44.99697" lon="1.59909">
        <ele>244</ele>
        <time>2012-05-01T16:10:04Z</time>
      </trkpt>
      <trkpt lat="44.99692" lon="1.59945">
        <ele>249</ele>
        <time>2012-05-01T16:10:23Z</time>
      </trkpt>
      <trkpt lat="44.99688" lon="1.59957">
        <ele>249</ele>
        <time>2012-05-01T16:10:30Z</time>
      </trkpt>
      <trkpt lat="44.9969" lon="1.59964">
        <ele>250</ele>
        <time>2012-05-01T16:10:37Z</time>
      </trkpt>
      <trkpt lat="44.997" lon="1.59969">
        <ele>250</ele>
        <time>2012-05-01T16:10:44Z</time>
      </trkpt>
      <trkpt lat="44.99708" lon="1.59976">
        <ele>248</ele>
        <time>2012-05-01T16:10:50Z</time>
      </trkpt>
      <trkpt lat="44.99713" lon="1.59991">
        <ele>247</ele>
        <time>2012-05-01T16:10:58Z</time>
      </trkpt>
      <trkpt lat="44.9972" lon="1.59999">
        <ele>245</ele>
        <time>2012-05-01T16:11:18Z</time>
      </trkpt>
      <trkpt lat="44.99724" lon="1.59996">
        <ele>246</ele>
        <time>2012-05-01T16:12:35Z</time>
      </trkpt>
      <trkpt lat="44.99729" lon="1.60002">
        <ele>248</ele>
        <time>2012-05-01T16:13:03Z</time>
      </trkpt>
      <trkpt lat="44.99727" lon="1.60005">
        <ele>246</ele>
        <time>2012-05-01T16:13:13Z</time>
      </trkpt>
      <trkpt lat="44.99724" lon="1.60002">
        <ele>245</ele>
        <time>2012-05-01T16:13:21Z</time>
      </trkpt>
      <trkpt lat="44.99725" lon="1.60002">
        <ele>245</ele>
        <time>2012-05-01T16:15:19Z</time>
      </trkpt>
      <trkpt lat="44.99719" lon="1.59995">
        <ele>246</ele>
        <time>2012-05-01T16:17:09Z</time>
      </trkpt>
      <trkpt lat="44.99716" lon="1.60001">
        <ele>246</ele>
        <time>2012-05-01T16:21:13Z</time>
      </trkpt>
      <trkpt lat="44.99719" lon="1.60006">
        <ele>246</ele>
        <time>2012-05-01T16:23:38Z</time>
      </trkpt>
      <trkpt lat="44.99722" lon="1.60011">
        <ele>246</ele>
        <time>2012-05-01T16:23:49Z</time>
      </trkpt>
      <trkpt lat="44.99723" lon="1.60005">
        <ele>246</ele>
        <time>2012-05-01T16:25:15Z</time>
      </trkpt>
      <trkpt lat="44.99723" lon="1.60013">
        <ele>246</ele>
        <time>2012-05-01T16:27:36Z</time>
      </trkpt>
      <trkpt lat="44.9973" lon="1.60015">
        <ele>246</ele>
        <time>2012-05-01T16:29:29Z</time>
      </trkpt>
    </trkseg>
  </trk>
</gpx>